[[{"header":{"parameterUnit":"m.s-1","parameterCategory":1,"la1":30.6,"la2":28.766,"lo1":-90.7593,"lo2":-88.6598,"dx":0.0162,"dy":0.0183,"nx":116,"ny":114,"refTime":"2023-02-04T06:00:00:Z","depth":0,"parameterNumber":2,"parameterNumberName":"U-component_of_WINDS"},"data":[0.0,0.0,0.0,0.0,0.0,0.0,0.0,0.0,0.0,0.0,0.0,0.0,0.0,0.0,0.0,0.0,0.0,0.0,0.0,0.0,0.0,0.0,0.0,0.0,0.0,0.0,0.0,0.0,0.0,0.0,0.0,0.0,0.0,0.0,0.0,0.0,0.0,0.0,0.0,0.0,0.0,0.0,0.0,0.0,0.0,0.0,0.0,0.0,0.0,0.0,0.0,0.0,0.0,0.0,0.0,0.0,0.0,0.0,0.0,0.0,0.0,0.0,0.0,0.0,0.0,0.0,0.0,0.0,0.0,0.0,0.0,0.0,0.0,0.0,0.0,0.0,0.0,0.0,0.0,0.0,0.0,0.0,0.0,0.0,0.0,0.0,0.0,0.0,0.0,0.0,0.0,0.0,0.0,0.0,0.0,0.0,0.0,0.0,0.0,0.0,0.0,0.0,0.0,0.0,0.0,0.0,0.0,0.0,0.0,0.0,0.0,0.0,0.0,0.0,0.0,0.0,0.0,0.0,0.0,0.0,0.0,0.0,0.0,0.0,0.0,0.0,0.0,0.0,0.0,0.0,0.0,0.0,0.0,0.0,0.0,0.0,0.0,0.0,0.0,0.0,0.0,0.0,0.0,0.0,0.0,0.0,0.0,0.0,0.0,0.0,0.0,0.0,0.0,0.0,0.0,0.0,0.0,0.0,0.0,0.0,0.0,0.0,0.0,0.0,0.0,0.0,0.0,0.0,0.0,0.0,0.0,0.0,0.0,0.0,0.0,0.0,0.0,0.0,0.0,0.0,0.0,0.0,0.0,0.0,0.0,0.0,0.0,0.0,0.0,0.0,0.0,0.0,0.0,0.0,0.0,0.0,0.0,0.0,0.0,0.0,0.0,0.0,0.0,0.0,0.0,0.0,0.0,0.0,0.0,0.0,0.0,0.0,0.0,0.0,0.0,0.0,0.0,0.0,0.0,0.0,0.0,0.0,0.0,0.0,0.0,0.0,0.0,0.0,0.0,0.0,0.0,0.0,0.0,0.0,0.0,0.0,0.0,0.0,0.0,0.0,0.0,0.0,0.0,0.0,0.0,0.0,0.0,0.0,0.0,0.0,0.0,0.0,0.0,0.0,0.0,0.0,0.0,0.0,0.0,0.0,0.0,0.0,0.0,0.0,0.0,0.0,0.0,0.0,0.0,0.0,0.0,0.0,0.0,0.0,0.0,0.0,0.0,0.0,0.0,0.0,0.0,0.0,0.0,0.0,0.0,0.0,0.0,0.0,0.0,0.0,0.0,0.0,0.0,0.0,0.0,0.0,0.0,0.0,0.0,0.0,0.0,0.0,0.0,0.0,0.0,0.0,0.0,0.0,0.0,0.0,0.0,0.0,0.0,0.0,0.0,0.0,0.0,0.0,0.0,0.0,0.0,0.0,0.0,0.0,0.0,0.0,0.0,0.0,0.0,0.0,0.0,0.0,0.0,0.0,0.0,0.0,0.0,0.0,0.0,0.0,0.0,0.0,0.0,0.0,0.0,0.0,0.0,0.0,0.0,0.0,0.0,0.0,0.0,0.0,0.0,0.0,0.0,0.0,0.0,0.0,0.0,0.0,0.0,0.0,0.0,0.0,0.0,0.0,0.0,0.0,0.0,0.0,0.0,0.0,0.0,0.0,0.0,0.0,0.0,0.0,0.0,0.0,0.0,0.0,0.0,0.0,0.0,0.0,0.0,0.0,0.0,0.0,0.0,0.0,0.0,0.0,0.0,0.0,0.0,0.0,0.0,0.0,0.0,0.0,0.0,0.0,0.0,0.0,0.0,0.0,0.0,0.0,0.0,0.0,0.0,0.0,0.0,0.0,0.0,0.0,0.0,0.0,0.0,0.0,0.0,0.0,0.0,0.0,0.0,0.0,0.0,0.0,0.0,0.0,0.0,0.0,0.0,0.0,0.0,0.0,0.0,0.0,0.0,0.0,0.0,0.0,0.0,0.0,0.0,0.0,0.0,0.0,0.0,0.0,0.0,0.0,0.0,0.0,0.0,0.0,0.0,0.0,0.0,0.0,0.0,0.0,0.0,0.0,0.0,0.0,0.0,0.0,0.0,0.0,0.0,0.0,0.0,0.0,0.0,0.0,0.0,0.0,0.0,0.0,0.0,0.0,0.0,0.0,0.0,0.0,0.0,0.0,0.0,0.0,0.0,0.0,0.0,0.0,0.0,0.0,0.0,0.0,0.0,0.0,0.0,0.0,0.0,0.0,0.0,0.0,0.0,0.0,0.0,0.0,0.0,0.0,0.0,0.0,0.0,0.0,0.0,0.0,0.0,0.0,0.0,0.0,0.0,0.0,0.0,0.0,0.0,0.0,0.0,0.0,0.0,0.0,0.0,0.0,0.0,0.0,0.0,0.0,0.0,0.0,0.0,0.0,0.0,0.0,0.0,0.0,0.0,0.0,0.0,0.0,0.0,0.0,0.0,0.0,0.0,0.0,0.0,0.0,0.0,0.0,0.0,0.0,0.0,0.0,0.0,0.0,0.0,0.0,0.0,0.0,0.0,0.0,0.0,0.0,0.0,0.0,0.0,0.0,0.0,0.0,0.0,0.0,0.0,0.0,0.0,0.0,0.0,0.0,0.0,0.0,0.0,0.0,0.0,0.0,0.0,0.0,0.0,0.0,0.0,0.0,0.0,0.0,0.0,0.0,0.0,0.0,0.0,0.0,0.0,0.0,0.0,0.0,0.0,0.0,0.0,0.0,0.0,0.0,0.0,0.0,0.0,0.0,0.0,0.0,0.0,0.0,0.0,0.0,0.0,0.0,0.0,0.0,0.0,0.0,0.0,0.0,0.0,0.0,0.0,0.0,0.0,0.0,0.0,0.0,0.0,0.0,0.0,0.0,0.0,0.0,0.0,0.0,0.0,0.0,0.0,0.0,0.0,0.0,0.0,0.0,0.0,0.0,0.0,0.0,0.0,0.0,0.0,0.0,0.0,0.0,0.0,0.0,0.0,0.0,0.0,0.0,0.0,0.0,0.0,0.0,0.0,0.0,0.0,0.0,0.0,0.0,0.0,0.0,0.0,0.0,0.0,0.0,0.0,0.0,0.0,0.0,0.0,0.0,0.0,0.0,0.0,0.0,0.0,0.0,0.0,0.0,0.0,0.0,0.0,0.0,0.0,0.0,0.0,0.0,0.0,0.0,0.0,0.0,0.0,0.0,0.0,0.0,0.0,0.0,0.0,0.0,0.0,0.0,0.0,0.0,0.0,0.0,0.0,0.0,0.0,0.0,0.0,0.0,0.0,0.0,0.0,0.0,0.0,0.0,0.0,0.0,0.0,0.0,0.0,0.0,0.0,0.0,0.0,0.0,0.0,0.0,0.0,0.0,0.0,0.0,0.0,0.0,0.0,0.0,0.0,0.0,0.0,0.0,0.0,0.0,0.0,0.0,0.0,0.0,0.0,0.0,0.0,0.0,0.0,0.0,0.0,0.0,0.0,0.0,0.0,0.0,0.0,0.0,0.0,0.0,0.0,0.0,0.0,0.0,0.0,0.0,0.0,0.0,0.0,0.0,0.0,0.0,0.0,0.0,0.0,0.0,0.0,0.0,0.0,0.0,0.0,0.0,0.0,0.0,0.0,0.0,0.0,0.0,0.0,0.0,0.0,0.0,0.0,0.0,0.0,0.0,0.0,0.0,0.0,0.0,0.0,0.0,0.0,0.0,0.0,0.0,0.0,0.0,0.0,0.0,0.0,0.0,0.0,0.0,0.0,0.0,0.0,0.0,0.0,0.0,0.0,0.0,0.0,0.0,0.0,0.0,0.0,0.0,0.0,0.0,0.0,0.0,0.0,0.0,0.0,0.0,0.0,0.0,0.0,0.0,0.0,0.0,0.0,0.0,0.0,0.0,0.0,0.0,0.0,0.0,0.0,0.0,0.0,0.0,0.0,0.0,0.0,0.0,0.0,0.0,0.0,0.0,0.0,0.0,0.0,0.0,0.0,0.0,0.0,0.0,0.0,0.0,0.0,0.0,0.0,0.0,0.0,0.0,0.0,0.0,0.0,0.0,0.0,0.0,0.0,0.0,0.0,0.0,0.0,0.0,0.0,0.0,0.0,0.0,0.0,0.0,0.0,0.0,0.0,0.0,0.0,0.0,0.0,0.0,0.0,0.0,0.0,0.0,0.0,0.0,0.0,0.0,0.0,0.0,0.0,0.0,0.0,0.0,0.0,0.0,0.0,0.0,0.0,0.0,0.0,0.0,0.0,0.0,0.0,0.0,0.0,0.0,0.0,0.0,0.0,0.0,0.0,0.0,0.0,0.0,0.0,0.0,0.0,0.0,0.0,0.0,0.0,0.0,0.0,0.0,0.0,0.0,0.0,0.0,0.0,0.0,0.0,0.0,0.0,0.0,0.0,0.0,0.0,0.0,0.0,0.0,0.0,0.0,0.0,0.0,0.0,0.0,0.0,0.0,0.0,0.0,0.0,0.0,0.0,0.0,0.0,0.0,0.0,0.0,0.0,0.0,0.0,0.0,0.0,0.0,0.0,0.0,0.0,0.0,0.0,0.0,0.0,0.0,0.0,0.0,0.0,0.0,0.0,0.0,0.0,0.0,0.0,0.0,0.0,0.0,0.0,0.0,0.0,0.0,0.0,0.0,0.0,0.0,0.0,0.0,0.0,0.0,0.0,0.0,0.0,0.0,0.0,0.0,0.0,0.0,0.0,0.0,0.0,0.0,0.0,0.0,0.0,0.0,0.0,0.0,0.0,0.0,0.0,0.0,0.0,0.0,0.0,0.0,0.0,0.0,0.0,0.0,0.0,0.0,0.0,0.0,0.0,0.0,0.0,0.0,0.0,0.0,0.0,0.0,0.0,0.0,0.0,0.0,0.0,0.0,0.0,0.0,0.0,0.0,0.0,0.0,0.0,0.0,0.0,0.0,0.0,0.0,0.0,0.0,0.0,0.0,0.0,0.0,0.0,0.0,0.0,0.0,0.0,0.0,0.0,0.0,0.0,0.0,0.0,0.0,0.0,0.0,0.0,0.0,0.0,0.0,0.0,0.0,0.0,0.0,0.0,0.0,0.0,0.0,0.0,0.0,0.0,0.0,0.0,0.0,0.0,0.0,0.0,0.0,0.0,0.0,0.0,0.0,0.0,0.0,0.0,0.0,0.0,0.0,0.0,0.0,0.0,0.0,0.0,0.0,0.0,0.0,0.0,0.0,0.0,0.0,0.0,0.0,0.0,0.0,0.0,0.0,0.0,0.0,0.0,0.0,0.0,0.0,0.0,0.0,0.0,0.0,0.0,0.0,0.0,0.0,0.0,0.0,0.0,0.0,0.0,0.0,0.0,0.0,0.0,0.0,0.0,0.0,0.0,0.0,0.0,0.0,0.0,0.0,0.0,0.0,0.0,0.0,0.0,0.0,0.0,0.0,0.0,0.0,0.0,0.0,0.0,0.0,0.0,0.0,0.0,0.0,0.0,0.0,0.0,0.0,0.0,0.0,0.0,0.0,0.0,0.0,0.0,0.0,0.0,0.0,0.0,0.0,0.0,0.0,0.0,0.0,0.0,0.0,0.0,0.0,0.0,0.0,0.0,0.0,0.0,0.0,0.0,0.0,0.0,0.0,0.0,0.0,0.0,0.0,0.0,0.0,0.0,0.0,0.0,0.0,0.0,0.0,0.0,0.0,0.0,0.0,0.0,0.0,0.0,0.0,0.0,0.0,0.0,0.0,0.0,0.0,0.0,0.0,0.0,0.0,0.0,0.0,0.0,0.0,0.0,0.0,0.0,0.0,0.0,0.0,0.0,0.0,0.0,0.0,0.0,0.0,0.0,0.0,0.0,0.0,0.0,0.0,0.0,0.0,0.0,0.0,0.0,0.0,0.0,0.0,0.0,0.0,0.0,0.0,0.0,0.0,0.0,0.0,0.0,0.0,0.0,0.0,0.0,0.0,0.0,0.0,0.0,0.0,0.0,0.0,0.0,0.0,0.0,0.0,0.0,0.0,0.0,0.0,0.0,0.0,0.0,0.0,0.0,0.0,0.0,0.0,0.0,0.0,0.0,0.0,0.0,0.0,0.0,0.0,0.0,0.0,0.0,0.0,0.0,0.0,-2.8291,0.0,0.0,0.0,0.0,0.0,0.0,0.0,0.0,0.0,0.0,0.0,0.0,0.0,0.0,0.0,0.0,0.0,0.0,0.0,0.0,0.0,0.0,0.0,0.0,0.0,0.0,0.0,0.0,0.0,0.0,0.0,0.0,0.0,0.0,0.0,0.0,0.0,0.0,0.0,0.0,-2.965,-2.9792,-2.9792,-2.9792,-2.9792,0.0,0.0,0.0,0.0,0.0,0.0,0.0,0.0,0.0,0.0,0.0,0.0,0.0,0.0,0.0,0.0,0.0,0.0,0.0,0.0,0.0,0.0,0.0,0.0,0.0,0.0,0.0,0.0,0.0,0.0,0.0,0.0,0.0,0.0,0.0,0.0,0.0,0.0,0.0,0.0,0.0,0.0,0.0,0.0,0.0,0.0,0.0,0.0,0.0,0.0,0.0,0.0,0.0,0.0,0.0,0.0,0.0,0.0,0.0,0.0,0.0,0.0,0.0,0.0,0.0,0.0,0.0,0.0,0.0,0.0,0.0,-2.813,0.0,0.0,0.0,0.0,0.0,0.0,0.0,0.0,0.0,0.0,0.0,0.0,0.0,0.0,0.0,0.0,0.0,0.0,0.0,0.0,0.0,0.0,0.0,0.0,0.0,0.0,0.0,0.0,0.0,0.0,0.0,0.0,0.0,0.0,0.0,0.0,0.0,0.0,0.0,0.0,-2.9456,-2.9456,-2.9546,-2.974,0.0,0.0,0.0,0.0,0.0,0.0,0.0,0.0,0.0,0.0,0.0,0.0,0.0,0.0,0.0,0.0,0.0,0.0,0.0,0.0,0.0,0.0,0.0,0.0,0.0,0.0,0.0,0.0,0.0,0.0,0.0,0.0,0.0,0.0,0.0,0.0,0.0,0.0,0.0,0.0,0.0,0.0,0.0,0.0,0.0,0.0,0.0,0.0,0.0,0.0,0.0,0.0,0.0,0.0,0.0,0.0,0.0,0.0,0.0,0.0,0.0,0.0,0.0,0.0,-2.6879,-2.6754,-2.6754,-2.6754,-2.6754,-2.6808,-2.7015,-2.7232,-2.7511,-2.7511,0.0,0.0,0.0,0.0,0.0,0.0,0.0,0.0,0.0,0.0,0.0,0.0,0.0,0.0,0.0,0.0,0.0,0.0,0.0,0.0,0.0,0.0,0.0,0.0,0.0,0.0,0.0,0.0,0.0,0.0,0.0,0.0,0.0,0.0,0.0,0.0,0.0,-2.7302,-2.8051,-2.8051,-2.8569,-2.947,-2.9702,0.0,0.0,0.0,0.0,0.0,0.0,0.0,0.0,0.0,0.0,0.0,0.0,0.0,0.0,0.0,0.0,0.0,0.0,0.0,0.0,0.0,0.0,0.0,0.0,0.0,0.0,0.0,0.0,0.0,0.0,0.0,0.0,0.0,0.0,0.0,0.0,0.0,0.0,0.0,0.0,0.0,0.0,0.0,-2.5333,-2.5333,0.0,0.0,0.0,0.0,0.0,0.0,0.0,0.0,0.0,0.0,0.0,0.0,0.0,-2.2367,-2.2703,-2.3014,-2.3491,-2.4022,-2.4179,-2.4275,-2.4275,-2.4275,-2.4275,-2.4267,-2.4108,0.0,-2.5899,-2.5899,0.0,0.0,0.0,0.0,0.0,0.0,0.0,0.0,0.0,0.0,0.0,0.0,0.0,0.0,0.0,0.0,0.0,0.0,0.0,0.0,0.0,0.0,0.0,0.0,0.0,0.0,0.0,0.0,0.0,0.0,0.0,0.0,0.0,0.0,0.0,0.0,-2.6431,-2.6689,-2.7058,-2.7058,-2.7302,-2.7787,-2.7879,-2.8542,-2.956,-2.956,0.0,0.0,0.0,0.0,0.0,0.0,0.0,0.0,0.0,0.0,0.0,0.0,0.0,0.0,0.0,0.0,0.0,0.0,0.0,0.0,0.0,0.0,0.0,0.0,0.0,0.0,0.0,0.0,0.0,0.0,0.0,0.0,0.0,0.0,0.0,0.0,0.0,0.0,0.0,-2.3958,-2.3452,-2.3285,-2.2885,-2.2584,0.0,0.0,0.0,0.0,0.0,0.0,0.0,0.0,0.0,-2.0735,-2.1347,-2.162,-2.1422,-2.2144,-2.2716,-2.3193,-2.3285,-2.3351,-2.3351,-2.3351,-2.3351,-2.3295,-2.2507,-2.2507,-2.3175,-2.4005,-2.4292,-2.4189,0.0,0.0,0.0,0.0,-2.4586,-2.4189,0.0,0.0,0.0,0.0,0.0,0.0,0.0,0.0,0.0,0.0,0.0,0.0,0.0,0.0,0.0,-2.8179,0.0,0.0,0.0,0.0,0.0,0.0,0.0,0.0,0.0,0.0,0.0,-2.5326,-2.5515,-2.5766,-2.5986,-2.5986,-2.6141,-2.6389,-2.6348,-2.7168,-2.8648,-2.8648,-2.8569,0.0,0.0,0.0,0.0,0.0,0.0,0.0,0.0,0.0,0.0,0.0,0.0,0.0,0.0,0.0,0.0,0.0,0.0,0.0,0.0,0.0,0.0,0.0,0.0,0.0,0.0,0.0,0.0,0.0,0.0,0.0,0.0,0.0,0.0,0.0,0.0,0.0,0.0,-2.2433,-2.1828,-2.1608,-2.1363,-2.121,0.0,0.0,0.0,0.0,0.0,0.0,-2.0633,-2.0633,-2.0282,-1.942,-2.0231,-2.0444,-2.0015,-2.088,-2.1542,-2.1938,-2.2015,-2.2078,-2.2078,-2.2078,-2.2078,-2.2021,-2.1117,-2.0723,-2.0838,-2.2274,-2.2733,-2.258,-2.3119,-2.3183,-2.2974,-2.2974,-2.2813,-2.2587,0.0,0.0,0.0,0.0,0.0,0.0,0.0,0.0,0.0,0.0,0.0,0.0,0.0,0.0,-2.7267,-2.7267,-2.6423,-2.5861,0.0,0.0,0.0,0.0,0.0,0.0,0.0,0.0,0.0,-2.3256,-2.3266,-2.3734,-2.4616,-2.4616,-2.5147,-2.6119,-2.5933,-2.6152,-2.6637,-2.6637,-2.6648,-2.6648,0.0,0.0,0.0,0.0,0.0,0.0,0.0,0.0,0.0,0.0,0.0,0.0,0.0,0.0,0.0,0.0,0.0,0.0,0.0,0.0,0.0,0.0,0.0,0.0,0.0,0.0,0.0,0.0,0.0,0.0,0.0,0.0,0.0,0.0,0.0,0.0,0.0,0.0,0.0,-2.1328,-2.0431,0.0,0.0,0.0,0.0,-1.8167,-1.795,-1.7786,-1.7786,-1.7786,-1.7786,-1.7733,-1.7786,-1.7881,-1.8144,-1.8502,-1.8854,-1.9088,-1.9449,-1.9597,-1.9597,-1.9597,-1.9597,-1.9597,-1.954,-1.9482,-1.9597,-2.0838,-2.1288,-2.1402,-2.2587,-2.303,-2.2974,-2.2974,-2.2248,-2.146,0.0,0.0,0.0,0.0,0.0,0.0,0.0,0.0,0.0,0.0,0.0,0.0,0.0,-2.7389,-2.6969,-2.6329,-2.5495,-2.4956,-2.4956,0.0,0.0,0.0,0.0,0.0,0.0,0.0,-2.3091,-2.3091,-2.3091,-2.3266,-2.3604,-2.3604,-2.381,-2.4168,-2.4102,-2.4145,-2.4392,-2.5714,-2.6171,-2.6027,-2.5588,-2.5305,0.0,0.0,0.0,0.0,0.0,0.0,0.0,0.0,0.0,0.0,0.0,0.0,0.0,0.0,0.0,0.0,0.0,0.0,0.0,0.0,0.0,0.0,0.0,0.0,0.0,0.0,0.0,0.0,0.0,0.0,0.0,0.0,0.0,0.0,0.0,0.0,0.0,-1.8923,-1.8572,0.0,-1.837,-1.7957,-1.7747,-1.7747,-1.7635,-1.7582,-1.7582,-1.7769,-1.7883,-1.7883,-1.807,-1.8223,-1.833,-1.8624,-1.8824,-1.8925,-1.9225,-1.9424,-1.9424,-1.9424,-1.9424,-1.9424,-1.9424,-1.9424,-1.9424,-1.9873,-2.0046,-2.0104,-2.05,-2.0666,-2.0666,-2.0666,-2.0385,-2.0104,0.0,0.0,0.0,0.0,0.0,0.0,0.0,0.0,0.0,0.0,0.0,-2.8179,-2.7307,-2.6928,-2.6381,-2.5453,-2.4531,-2.4026,-2.4026,0.0,0.0,0.0,-2.3091,0.0,0.0,-2.3091,-2.3091,-2.3091,-2.3091,-2.3091,-2.3091,-2.3091,-2.3091,-2.3091,-2.3091,-2.3091,-2.3178,-2.45,-2.501,-2.4861,-2.4425,-2.4135,-2.395,0.0,0.0,0.0,0.0,0.0,0.0,0.0,0.0,0.0,0.0,0.0,0.0,0.0,0.0,0.0,0.0,0.0,0.0,0.0,0.0,0.0,0.0,0.0,0.0,0.0,0.0,0.0,0.0,0.0,0.0,0.0,0.0,0.0,0.0,0.0,-1.7799,-1.7635,-1.7582,-1.7582,-1.7582,-1.7582,-1.7622,-1.7736,-1.7736,-1.7782,-1.7883,-1.8083,-1.8196,-1.8196,-1.8384,-1.8537,-1.8637,-1.8712,-1.8851,-1.9078,-1.915,-1.9243,-1.9243,-1.9366,-1.9366,-1.9243,-1.9366,-1.9424,-1.9424,-1.9424,-1.9424,-1.9424,-1.9424,-1.9424,-1.9424,-1.9424,-1.9424,-1.9424,0.0,0.0,0.0,0.0,0.0,0.0,0.0,0.0,0.0,0.0,-2.8471,-2.8139,-2.7267,-2.6329,-2.5411,-2.4541,-2.3604,-2.3091,-2.3091,-2.3091,0.0,0.0,0.0,0.0,-2.3091,-2.3091,-2.3091,-2.3091,-2.3091,-2.3091,-2.3091,-2.3091,-2.3091,-2.3091,-2.3091,-2.3091,-2.3091,-2.3091,-2.3091,-2.3091,-2.3091,-2.3091,-2.3091,0.0,0.0,0.0,0.0,0.0,0.0,0.0,0.0,0.0,0.0,0.0,0.0,0.0,0.0,0.0,0.0,0.0,0.0,0.0,0.0,0.0,0.0,0.0,0.0,0.0,0.0,0.0,0.0,0.0,0.0,0.0,0.0,0.0,-1.7629,-1.7582,-1.7589,-1.7595,-1.7595,-1.7602,-1.7609,-1.7609,-1.7736,-1.7982,-1.8009,-1.8135,-1.8477,-1.8497,-1.8504,-1.8504,-1.851,-1.8651,-1.8931,-1.8577,-1.8722,-1.9366,-1.9055,-1.8881,-1.8874,-1.9243,-1.9185,-1.8874,-1.9243,-1.9366,-1.9366,-1.9366,-1.9366,-1.9366,-1.9366,-1.9424,-1.9424,-1.9424,-1.9366,-1.9366,0.0,0.0,0.0,0.0,0.0,0.0,0.0,0.0,0.0,0.0,-2.7966,-2.7214,-2.6287,-2.5368,-2.4498,-2.356,-2.3266,-2.3091,-2.3091,0.0,0.0,0.0,0.0,0.0,-2.3091,-2.3091,-2.3091,-2.3091,-2.3091,-2.3091,-2.3091,-2.3091,-2.3091,-2.3091,-2.3091,-2.3091,-2.3091,-2.3091,-2.3091,-2.3091,-2.3091,-2.3091,-2.313,0.0,0.0,0.0,0.0,0.0,0.0,0.0,0.0,0.0,0.0,0.0,0.0,0.0,0.0,0.0,0.0,0.0,0.0,0.0,0.0,0.0,0.0,0.0,0.0,0.0,0.0,0.0,0.0,0.0,0.0,0.0,0.0,-1.8424,-1.7689,-1.7582,-1.7662,-1.7896,-1.7903,-1.7989,-1.8217,-1.8237,-1.8277,-1.8364,-1.837,-1.8404,-1.849,-1.8691,-1.8804,-1.8804,-1.9018,-1.9165,-1.9245,-1.8943,-1.8861,-1.9055,-1.8706,-1.8538,-1.8532,-1.8655,-1.8596,-1.8532,-1.8655,-1.8655,-1.8655,-1.8655,-1.8655,-1.8713,-1.9191,-1.9424,-1.9424,-1.9424,-1.9243,-1.9004,0.0,0.0,0.0,0.0,0.0,0.0,0.0,0.0,0.0,0.0,-2.7894,-2.6846,-2.5902,-2.5031,-2.4112,-2.3178,-2.3091,-2.3091,-2.3091,0.0,0.0,0.0,0.0,-2.3091,-2.3091,-2.3091,-2.3091,-2.3091,-2.3091,-2.3091,-2.3091,-2.3091,-2.3091,-2.3091,-2.3091,-2.3091,-2.3091,-2.3091,-2.3091,-2.3091,-2.3091,-2.3208,-2.3437,-2.3691,-2.3896,-2.4141,-2.4871,-2.5116,-2.5184,-2.5538,0.0,0.0,0.0,0.0,0.0,0.0,0.0,0.0,0.0,0.0,0.0,0.0,0.0,0.0,0.0,0.0,0.0,0.0,0.0,0.0,0.0,0.0,0.0,0.0,-1.8925,-1.8698,-1.8056,-1.7963,-1.8029,-1.821,-1.8223,-1.8283,-1.847,-1.849,-1.8544,-1.8664,-1.8671,-1.8724,-1.8851,-1.9018,-1.9112,-1.9112,-1.9279,-1.9307,-1.9185,-1.8887,-1.8706,-1.8706,-1.8363,-1.8252,-1.8252,-1.8363,-1.8363,-1.8252,-1.8363,-1.8421,-1.8421,-1.8421,-1.8421,0.0,0.0,0.0,0.0,0.0,-1.8887,-1.8648,0.0,0.0,0.0,0.0,0.0,0.0,0.0,0.0,0.0,0.0,0.0,-2.7023,-2.6115,-2.52,-2.4217,-2.3353,-2.3178,-2.3091,0.0,0.0,0.0,-2.3091,-2.3091,-2.3091,-2.3091,-2.3091,-2.3091,-2.3091,-2.3091,-2.3091,-2.3091,-2.3091,-2.3091,-2.3091,-2.3091,-2.3091,-2.3091,-2.3091,-2.312,-2.3169,-2.3169,-2.3447,-2.3799,-2.3838,-2.4121,-2.4551,-2.499,-2.5194,-2.5205,-2.5605,0.0,0.0,0.0,0.0,0.0,0.0,0.0,0.0,0.0,0.0,0.0,0.0,0.0,0.0,0.0,0.0,0.0,0.0,0.0,0.0,0.0,0.0,0.0,0.0,-1.8978,-1.8885,-1.8624,-1.8591,-1.8577,-1.8544,-1.8544,-1.8551,-1.8584,-1.8591,-1.8698,-1.8951,-1.8978,-1.9092,-1.9352,0.0,0.0,0.0,0.0,-1.9243,-1.8874,-1.859,-1.8376,-1.8407,-1.8127,-1.7969,-1.8065,-1.8288,-1.8288,-1.8065,-1.8288,-1.8399,-1.8399,-1.8399,-1.838,-1.8349,-1.8369,-1.8421,-1.8421,-1.8363,-1.8363,-1.8363,0.0,0.0,0.0,0.0,0.0,0.0,0.0,0.0,0.0,-2.9971,-2.9042,-2.8218,-2.7661,-2.6109,-2.4892,-2.4272,-2.3517,-2.3091,0.0,0.0,-2.3091,-2.3091,-2.3091,-2.3091,-2.3091,-2.3091,-2.3091,-2.3091,-2.3091,-2.3091,-2.3091,-2.3091,-2.3091,-2.3091,-2.3091,-2.3091,-2.3091,-2.3091,-2.334,-2.3662,-2.3662,-2.3711,-2.3828,-2.417,-2.457,-2.5,-2.5449,-2.5557,-2.5625,-2.5664,-2.5693,-2.5693,-2.5693,0.0,0.0,0.0,0.0,0.0,0.0,0.0,0.0,0.0,0.0,0.0,0.0,0.0,0.0,0.0,0.0,0.0,0.0,0.0,0.0,-1.9292,-1.9279,-1.9259,-1.9205,-1.9256,-1.9112,-1.8871,-1.8838,-1.8931,-1.9172,-1.9256,-1.9219,-1.9279,-1.9279,-1.9305,-1.9424,-1.9424,-1.9424,-1.9424,-1.9424,-1.9243,-1.8874,-1.859,-1.8418,-1.8408,0.0,0.0,-1.8264,-1.8319,-1.8319,-1.8264,-1.8319,-1.8319,-1.8319,-1.8319,-1.8185,-1.8013,-1.8269,-1.8421,-1.8363,-1.8142,-1.8083,-1.8025,0.0,0.0,0.0,0.0,0.0,0.0,0.0,0.0,0.0,0.0,-2.9515,-2.8605,-2.8418,-2.6726,-2.5415,-2.4958,-2.3821,0.0,0.0,-2.3091,-2.3091,-2.3091,-2.3091,-2.3091,-2.3091,-2.3091,-2.3091,-2.3091,-2.3091,-2.3091,-2.3091,-2.3091,-2.3091,-2.311,-2.3369,-2.3467,-2.3477,-2.3691,-2.3906,-2.4102,-2.4102,-2.4238,-2.4453,-2.4658,-2.5019,-2.543,-2.5615,-2.5693,-2.5684,-2.5538,-2.5586,-2.5635,-2.5382,-2.4667,-2.3692,0.0,0.0,0.0,0.0,0.0,0.0,0.0,0.0,0.0,0.0,0.0,0.0,0.0,0.0,-1.9424,0.0,0.0,-1.9424,-1.9424,-1.9424,-1.9424,-1.9424,-1.9424,-1.9312,-1.9165,-1.9145,-1.9205,-1.9352,-1.9424,-1.9424,-1.9424,-1.9424,-1.9424,-1.9424,-1.9424,-1.9424,-1.9424,-1.9243,-1.9069,-1.8854,-1.8572,-1.836,-1.8337,-1.8204,-1.8161,-1.8294,-1.8294,-1.8294,-1.8294,-1.8294,-1.8294,-1.8294,-1.8294,-1.8209,-1.8131,-1.8298,-1.8195,-1.7954,-1.7784,-1.7726,-1.7726,0.0,0.0,0.0,0.0,0.0,0.0,0.0,0.0,0.0,0.0,-3.0185,-2.932,-2.9238,-2.7657,-2.6264,0.0,0.0,0.0,0.0,-2.3344,-2.3344,-2.3344,-2.3344,-2.3344,-2.3344,-2.3344,-2.3344,-2.3344,-2.3344,-2.3344,-2.3344,-2.3344,-2.3344,-2.3354,-2.376,-2.3906,-2.3935,-2.4277,-2.4463,-2.4541,-2.4541,-2.4805,-2.5195,-2.5195,-2.543,-2.5693,-2.5693,-2.5693,-2.5586,-2.5382,-2.5391,-2.543,-2.4775,-2.4007,-2.2985,-2.143,-2.0151,0.0,0.0,0.0,0.0,0.0,0.0,0.0,0.0,0.0,-1.9424,-1.9424,-1.9424,-1.9424,-1.9424,-1.9424,-1.9424,-1.9424,-1.9424,-1.9424,-1.9424,-1.9424,-1.9424,-1.9424,-1.9424,-1.9424,-1.9424,-1.9424,-1.9424,-1.9424,-1.9424,-1.9424,-1.9424,-1.9424,-1.9366,-1.9307,-1.9115,-1.89,-1.8715,-1.8539,-1.8404,-1.8366,-1.8366,-1.8396,-1.8444,-1.8444,-1.8444,-1.8444,-1.8444,-1.8444,-1.8438,-1.839,-1.8366,-1.8366,-1.8312,-1.8022,-1.7636,-1.7581,-1.7557,-1.7551,0.0,0.0,0.0,0.0,0.0,0.0,0.0,0.0,0.0,0.0,0.0,0.0,0.0,0.0,0.0,0.0,0.0,0.0,-2.4268,-2.4268,-2.4268,-2.4268,-2.4268,-2.4268,-2.4268,-2.4268,-2.4268,-2.4268,-2.4268,-2.4268,-2.4268,-2.4268,-2.4268,-2.4277,-2.4326,-2.4346,-2.4346,-2.4394,-2.4639,-2.5047,-2.5047,-2.5264,-2.5615,-2.5615,-2.5645,-2.5693,-2.5693,-2.5538,-2.5333,-2.5333,-2.5137,-2.4824,-2.38,-2.2735,-2.1625,-2.0195,0.0,-1.8115,-1.7694,-1.7782,-1.7942,-1.7942,-1.8382,-1.8878,0.0,0.0,-1.9424,-1.9424,-1.9424,-1.9424,-1.9424,-1.9424,-1.9424,-1.9424,-1.9424,-1.9424,-1.9424,-1.9424,-1.9424,-1.9424,-1.9424,-1.9424,-1.9424,-1.9424,-1.9424,-1.9424,-1.9424,-1.9424,-1.9424,-1.9424,-1.9243,-1.8997,-1.9142,-1.8994,-1.8429,-1.8604,-1.868,-1.8644,-1.8644,-1.8764,-1.8988,-1.8988,-1.8988,-1.8988,-1.8988,-1.8988,-1.8969,-1.8734,-1.8644,-1.8613,-1.8384,-1.8257,-1.8173,-1.7919,-1.7829,-1.7793,0.0,0.0,0.0,0.0,0.0,0.0,0.0,0.0,0.0,0.0,0.0,0.0,0.0,0.0,0.0,0.0,0.0,0.0,-2.53,-2.5255,-2.4991,-2.4414,-2.4414,-2.4414,-2.4414,-2.4414,-2.4414,-2.4414,-2.4414,-2.4414,-2.4414,-2.4414,-2.4414,-2.4424,-2.4687,-2.4795,-2.4814,-2.5078,-2.5293,-2.5459,-2.5459,-2.5566,-2.5693,-2.5693,-2.5693,-2.5684,-2.5538,-2.5391,0.0,0.0,-2.447,-2.3859,-2.3061,-2.1735,-2.0349,-1.9583,-1.8699,0.0,-1.8117,-1.8203,-1.8303,0.0,-1.8617,-1.8925,-1.8925,-1.9152,-1.9424,-1.9424,-1.9424,-1.9424,-1.9424,-1.9424,-1.9419,0.0,-1.9619,-1.9679,-1.9846,-1.9873,-1.9873,-1.9873,-1.9873,-1.974,-1.9457,-1.9424,-1.9424,-1.9424,-1.9424,-1.9424,-1.9424,-1.9526,-1.9554,-1.943,-1.9356,-1.9226,-1.9159,-1.8834,-1.8775,-1.8915,-1.8915,-1.8969,-1.9078,-1.9078,-1.9078,-1.9078,-1.9078,-1.9078,-1.9066,-1.8957,-1.8915,-1.8897,-1.8794,-1.8752,-1.8698,-1.8275,-1.8118,-1.81,0.0,0.0,0.0,0.0,0.0,0.0,0.0,0.0,0.0,0.0,0.0,0.0,0.0,0.0,0.0,0.0,0.0,0.0,0.0,-2.6651,-2.6206,-2.5222,-2.5176,-2.5046,-2.4775,-2.4775,-2.4775,-2.4775,-2.4775,-2.4775,-2.4775,-2.4775,-2.4775,-2.4748,-2.5107,-2.5254,-2.5273,-2.5596,-2.5693,-2.5693,-2.5693,-2.5693,-2.5693,-2.5693,-2.5693,-2.5635,-2.5391,-2.5235,0.0,0.0,-2.3868,-2.2953,-2.2266,-2.0877,-1.9398,-1.8972,-1.8505,-1.8217,-1.843,0.0,0.0,-1.8611,-1.8831,-1.9045,-1.9045,-1.9212,-1.9424,-1.9424,-1.9432,-1.9486,-1.9486,-1.9553,-1.9673,-1.9887,-1.992,-1.9993,-2.014,-2.0173,-2.0173,-2.0173,-2.0173,-2.0067,-1.9646,-1.9606,-1.9606,-1.9606,-1.9606,-1.9606,-1.9606,-1.9806,-1.986,-1.9801,-1.9533,-1.9477,-1.9562,-1.9073,-1.8885,-1.9078,-1.9078,-1.9078,-1.9078,-1.9078,-1.9078,-1.9078,-1.9078,-1.9078,-1.9078,-1.9078,-1.9078,-1.9078,-1.9078,-1.9078,-1.903,-1.865,-1.8463,-1.839,0.0,0.0,0.0,0.0,0.0,0.0,0.0,0.0,0.0,0.0,0.0,0.0,0.0,0.0,0.0,0.0,0.0,0.0,0.0,-2.8637,-2.8172,-2.7148,-2.7101,-2.6645,-2.5693,-2.5645,-2.5645,-2.5645,-2.5645,-2.5645,-2.5645,-2.5645,-2.5645,-2.5645,-2.5664,-2.5664,-2.5674,-2.5684,-2.5693,-2.5693,-2.5693,-2.5693,-2.5693,-2.5693,-2.5693,-2.5635,-2.5391,0.0,0.0,0.0,-2.3628,-2.2325,-2.1293,-2.0158,0.0,-1.8258,-1.8243,0.0,0.0,0.0,-1.8911,-1.8911,-1.9132,-1.9352,-1.9352,-1.9417,-1.9424,-1.9424,-1.9593,-1.9786,-1.9786,-2.0013,-2.0153,-2.0221,-2.0221,-2.016,-2.0173,-2.0173,-2.0173,-2.0173,-2.0173,-2.0167,0.0,-2.0207,-2.0207,-2.0207,-2.0207,-2.0207,-2.0207,-2.0153,-2.0039,-1.9809,-1.972,-1.9556,-1.9237,-1.9124,-1.9066,-1.9078,-1.9078,-1.9078,-1.9078,-1.9078,-1.9078,-1.9078,-1.9078,-1.9078,-1.9078,-1.9078,-1.9078,-1.9078,-1.9078,-1.9078,-1.9072,-1.906,-1.8891,-1.8638,0.0,0.0,0.0,0.0,0.0,0.0,0.0,0.0,0.0,0.0,0.0,0.0,0.0,0.0,0.0,0.0,0.0,0.0,0.0,-3.0068,-2.9555,-2.8262,-2.8308,-2.784,-2.6733,-2.6686,-2.637,-2.5693,-2.5693,-2.5693,-2.5693,-2.5693,-2.5693,-2.5693,-2.5693,-2.6052,-2.6686,-2.6686,-2.6686,-2.6686,-2.6686,-2.6284,-2.5693,-2.5693,-2.5693,-2.5635,0.0,0.0,0.0,0.0,0.0,0.0,-2.0987,0.0,0.0,-1.8539,0.0,0.0,0.0,0.0,-1.9219,-1.9219,-1.9292,-1.9424,-1.9424,-1.9424,-1.9419,-1.9619,-1.9733,-1.986,-2.0054,-2.0167,-2.0294,-2.0494,-2.0528,-2.0595,-2.0788,-2.0815,-2.0815,-2.0815,-2.0815,0.0,0.0,0.0,0.0,-2.0173,-2.0173,-2.0173,-2.0173,-2.0421,-2.0466,-2.0411,-2.0134,-1.9903,-1.977,-1.9355,-1.9078,-1.9078,-1.9078,-1.9078,-1.9078,-1.9078,-1.9078,-1.9078,-1.9078,-1.9078,-1.9078,-1.9078,-1.9078,-1.9078,-1.9078,-1.9078,-1.9078,-1.9078,-1.9018,-1.8933,0.0,0.0,0.0,0.0,0.0,0.0,0.0,0.0,0.0,0.0,0.0,0.0,0.0,0.0,0.0,0.0,0.0,0.0,0.0,0.0,-3.0722,-2.9418,-2.9418,-2.8912,-2.7746,-2.7746,-2.7426,-2.6744,-2.6744,-2.6744,-2.6744,-2.6744,-2.6744,-2.6744,-2.6744,-2.7115,-2.7746,-2.7746,-2.7852,-2.7989,-2.7441,-2.6931,-2.6465,-2.5888,-2.5693,0.0,0.0,0.0,0.0,0.0,0.0,0.0,0.0,0.0,0.0,0.0,0.0,0.0,0.0,-1.9424,-1.9424,-1.9424,-1.9424,-1.9457,-1.9499,-1.9519,-1.9606,-1.9893,-2.004,-2.0174,-2.0354,-2.0474,-2.0608,-2.0802,-2.0828,-2.0895,-2.1082,-2.1109,-2.1109,-2.1109,-2.1109,-2.1109,0.0,0.0,0.0,-2.0548,-2.0548,-2.0548,-2.0548,-2.0728,-2.0828,-2.0828,-2.0391,-2.0106,-2.0106,-1.9462,-1.9078,-1.9078,-1.9078,-1.9078,-1.9078,-1.9078,-1.9078,-1.9078,-1.9078,-1.9078,-1.9078,-1.9078,-1.9078,-1.9078,-1.9078,-1.9078,-1.9078,-1.9078,-1.9078,-1.9078,0.0,0.0,0.0,0.0,0.0,0.0,0.0,0.0,0.0,0.0,0.0,0.0,0.0,0.0,0.0,0.0,0.0,0.0,0.0,0.0,0.0,-3.0633,-3.0396,-2.9841,-2.8819,-2.8808,-2.8773,-2.8727,-2.8727,-2.8727,-2.868,-2.868,-2.868,-2.868,-2.868,-2.8727,-2.8773,-2.8773,-2.9047,-2.9405,-2.7889,-2.7554,-2.7772,-2.6269,0.0,0.0,0.0,0.0,0.0,0.0,0.0,0.0,0.0,0.0,0.0,0.0,0.0,-1.9424,-1.9424,-1.9424,-1.9424,-1.9424,-1.9437,-1.9459,-1.974,-1.9813,-1.9907,-2.0194,-2.0481,-2.0681,0.0,0.0,-2.1109,-2.1109,-2.1109,-2.1109,-2.1109,-2.1109,-2.1109,0.0,0.0,0.0,0.0,0.0,0.0,-2.1109,0.0,-2.1109,-2.1109,-2.1109,-2.1109,-2.1109,-2.0418,-2.0106,-2.0106,-1.9462,-1.9078,-1.9078,-1.9078,-1.9078,-1.9078,-1.9078,-1.9078,-1.9078,-1.9078,-1.9078,-1.9078,-1.9078,-1.9078,-1.9078,-1.9078,-1.9078,-1.9078,-1.9078,-1.9078,-1.9078,0.0,0.0,0.0,0.0,0.0,0.0,0.0,0.0,0.0,0.0,0.0,0.0,0.0,0.0,0.0,0.0,0.0,0.0,0.0,0.0,0.0,0.0,0.0,0.0,0.0,0.0,0.0,-2.8912,-2.8912,-2.8866,-2.868,-2.868,-2.868,-2.868,-2.868,-2.9143,-2.9841,-2.9841,-2.992,-2.9942,0.0,-2.7961,-2.727,0.0,0.0,0.0,0.0,0.0,0.0,0.0,0.0,0.0,0.0,0.0,-1.8871,0.0,0.0,-1.9424,-1.9424,-1.9424,-1.9424,-1.9424,-1.9533,-1.9713,-1.978,-1.9967,-2.0207,-2.0501,-2.0621,-2.0742,0.0,0.0,0.0,-2.1109,-2.1109,0.0,-2.1109,-2.1109,0.0,-2.1109,0.0,-2.1109,-2.1109,-2.1109,0.0,0.0,-2.1109,-2.1109,-2.1109,-2.1109,-2.1109,-2.1109,-2.0418,-2.0106,-2.0106,-1.9462,-1.9078,-1.9078,-1.9078,-1.9078,-1.9078,-1.9078,-1.9078,-1.9078,-1.9078,-1.9078,-1.9078,-1.9078,-1.9078,-1.9078,-1.9078,-1.9078,-1.9078,-1.9078,-1.9078,-1.9078,0.0,0.0,0.0,0.0,0.0,0.0,0.0,0.0,0.0,0.0,0.0,0.0,0.0,0.0,0.0,0.0,0.0,0.0,0.0,0.0,0.0,0.0,0.0,0.0,0.0,0.0,0.0,0.0,0.0,0.0,-3.0294,-3.0204,-3.0215,-3.0306,-3.0215,-3.0543,-3.1181,-3.1181,0.0,0.0,0.0,0.0,0.0,0.0,0.0,0.0,0.0,0.0,0.0,0.0,0.0,-2.1703,-2.0772,-1.9757,-1.8985,-1.9279,0.0,-1.9424,-1.9424,-1.9424,-1.9457,-1.9526,-1.9679,-1.9867,-2.0127,-2.0307,-2.0508,-2.0808,-2.0869,0.0,0.0,0.0,0.0,0.0,0.0,0.0,-2.1109,-2.1109,-2.1109,0.0,-2.1109,0.0,-2.1109,-2.1109,-2.1109,0.0,-2.1109,-2.1109,-2.1109,-2.1109,-2.1109,-2.1109,-2.0418,-1.9979,-1.9654,-1.927,-1.9078,-1.9078,-1.9078,-1.9078,-1.9078,-1.9078,-1.9078,-1.9078,0.0,-1.9078,-1.9078,-1.9078,-1.9078,-1.9078,-1.9078,-1.9078,-1.9078,-1.9078,-1.9078,-1.9078,0.0,0.0,0.0,0.0,0.0,0.0,0.0,0.0,0.0,0.0,0.0,0.0,0.0,0.0,0.0,0.0,0.0,0.0,0.0,0.0,0.0,0.0,0.0,0.0,0.0,0.0,0.0,0.0,0.0,0.0,0.0,0.0,0.0,0.0,0.0,0.0,0.0,0.0,0.0,0.0,0.0,0.0,0.0,0.0,0.0,0.0,0.0,0.0,0.0,0.0,-2.5003,-2.2358,-2.1279,-2.0147,-1.931,-1.9401,-1.9424,-1.9424,-1.9424,-1.9457,-1.9486,-1.974,-1.986,-2.0047,-2.0561,-2.0708,-2.0808,-2.1056,0.0,-2.1109,-2.1109,-2.1109,-2.1109,-2.1109,0.0,-2.1109,-2.1109,-2.1109,-2.1109,-2.1109,-2.1109,-2.1109,-2.1109,-2.1109,-2.1109,-2.1109,-2.1109,-2.1109,-2.1109,-2.1109,-2.1109,-2.1046,-2.0418,-1.9788,-1.92,-1.9136,-1.9078,-1.9078,-1.9078,-1.9078,-1.9078,-1.9078,-1.9078,-1.9078,-1.9078,0.0,-1.9078,-1.9078,-1.9078,-1.9078,-1.9078,-1.9078,-1.9078,-1.9078,-1.9078,-1.9078,0.0,0.0,0.0,0.0,0.0,0.0,0.0,0.0,0.0,0.0,0.0,0.0,0.0,0.0,0.0,0.0,0.0,0.0,0.0,0.0,0.0,0.0,0.0,0.0,0.0,0.0,0.0,0.0,0.0,0.0,0.0,0.0,0.0,0.0,0.0,0.0,0.0,0.0,0.0,0.0,0.0,0.0,0.0,0.0,0.0,0.0,0.0,0.0,0.0,0.0,-2.6012,-2.4606,-2.344,-2.2174,-2.0958,-2.0019,-1.9591,-1.9424,-1.9424,-1.9546,-1.974,-1.9786,-2.0167,-2.0555,-2.0655,-2.0862,0.0,0.0,0.0,-2.1109,-2.1109,-2.1109,0.0,-2.1109,0.0,0.0,0.0,0.0,-2.1109,0.0,0.0,0.0,0.0,0.0,0.0,0.0,0.0,-2.1109,-2.1109,-2.1109,-2.0982,-2.0672,-2.0297,-1.9909,-1.9514,-1.9264,-1.9078,-1.9078,-1.9078,-1.9078,-1.9078,-1.9078,-1.9078,-1.9078,-1.9078,0.0,-1.9078,-1.9078,-1.9078,-1.9078,-1.9078,-1.9078,-1.9078,-1.9078,-1.9078,-1.9078,0.0,0.0,0.0,0.0,0.0,0.0,0.0,0.0,0.0,0.0,0.0,0.0,0.0,0.0,0.0,0.0,0.0,0.0,0.0,0.0,0.0,0.0,0.0,0.0,0.0,0.0,0.0,0.0,0.0,0.0,0.0,0.0,0.0,0.0,0.0,0.0,0.0,0.0,0.0,0.0,0.0,0.0,0.0,0.0,0.0,0.0,0.0,0.0,0.0,0.0,-2.7309,-2.6607,-2.5031,-2.3194,-2.1472,-2.0923,-2.009,-1.9424,-1.9424,-1.9579,-1.9833,-1.9987,-2.0354,-2.0715,-2.0869,0.0,0.0,0.0,-2.1109,-2.1109,-2.1109,0.0,0.0,0.0,0.0,0.0,0.0,0.0,0.0,0.0,0.0,0.0,0.0,0.0,0.0,0.0,0.0,-2.1109,-2.1109,-2.1109,-2.0919,-2.0609,-2.0297,-1.9909,-1.9577,-1.9264,-1.9078,-1.9078,-1.9078,-1.9078,-1.9078,-1.9078,-1.9078,-1.9078,-1.9078,0.0,-1.9078,-1.9078,-1.9078,-1.9078,-1.9078,-1.9078,-1.9078,-1.9078,-1.9078,-1.9078,0.0,0.0,0.0,0.0,0.0,0.0,0.0,0.0,0.0,0.0,0.0,0.0,0.0,0.0,0.0,0.0,0.0,0.0,0.0,0.0,0.0,0.0,0.0,0.0,0.0,0.0,0.0,0.0,0.0,0.0,0.0,0.0,0.0,0.0,0.0,0.0,0.0,0.0,0.0,0.0,0.0,0.0,0.0,0.0,0.0,0.0,0.0,0.0,0.0,0.0,-2.8291,-2.8009,-2.6498,-2.4415,-2.2476,-2.2209,-2.1045,-1.9866,-1.9822,-1.9854,-1.9947,-2.0174,-2.0501,-2.0828,-2.1056,-2.1109,0.0,0.0,-2.1109,-2.1109,-2.1109,0.0,0.0,0.0,0.0,0.0,0.0,0.0,0.0,0.0,0.0,0.0,0.0,0.0,0.0,0.0,0.0,0.0,-2.1109,-2.1109,-2.0982,-2.0736,-2.0361,-2.0036,-1.9711,-1.9392,-1.92,-1.9078,-1.9078,-1.9078,-1.9078,-1.9078,-1.9078,-1.9078,-1.9078,0.0,0.0,-1.9078,-1.9078,-1.9078,-1.9078,-1.9078,-1.9078,-1.9078,-1.9078,-1.9078,0.0,0.0,0.0,0.0,0.0,0.0,0.0,0.0,0.0,0.0,0.0,0.0,0.0,0.0,0.0,0.0,0.0,0.0,0.0,0.0,0.0,0.0,0.0,0.0,0.0,0.0,0.0,0.0,0.0,0.0,0.0,0.0,0.0,0.0,0.0,0.0,0.0,0.0,0.0,0.0,0.0,0.0,0.0,0.0,0.0,0.0,0.0,0.0,0.0,0.0,0.0,-2.8281,-2.8072,-2.6959,-2.5434,-2.4086,0.0,0.0,-2.111,-2.0638,-2.0201,-2.0167,-2.0655,-2.1076,-2.1102,0.0,0.0,-2.1109,-2.1109,-2.1109,-2.1109,-2.1109,0.0,0.0,0.0,-2.1109,0.0,0.0,0.0,0.0,0.0,0.0,0.0,0.0,0.0,0.0,0.0,0.0,-2.1109,-2.1109,-2.1109,-2.1046,-2.0736,-2.0418,-2.0043,-1.9711,-1.9386,-1.9078,-1.9078,-1.9078,-1.9078,-1.9078,-1.9078,-1.9078,-1.9078,0.0,0.0,-1.9078,-1.9078,-1.9078,-1.9078,-1.9078,-1.9078,-1.9078,-1.9078,-1.9078,0.0,0.0,0.0,0.0,0.0,0.0,0.0,0.0,0.0,0.0,0.0,0.0,0.0,0.0,0.0,0.0,0.0,0.0,0.0,0.0,0.0,0.0,0.0,0.0,0.0,0.0,0.0,0.0,0.0,0.0,0.0,0.0,0.0,0.0,0.0,0.0,0.0,0.0,0.0,0.0,0.0,0.0,0.0,0.0,0.0,0.0,0.0,0.0,0.0,0.0,0.0,0.0,-2.8291,-2.7897,0.0,0.0,-2.3997,-2.2484,-2.1658,-2.1335,-2.112,-2.0409,-2.0675,-2.1109,-2.1109,0.0,0.0,-2.1109,-2.1109,-2.1109,-2.1109,-2.1109,-2.1109,0.0,0.0,0.0,0.0,0.0,0.0,0.0,0.0,0.0,0.0,0.0,0.0,0.0,0.0,0.0,-2.1109,-2.1109,-2.1109,-2.1109,-2.0799,-2.0418,-2.0106,-1.9775,-1.945,-1.9078,-1.9078,-1.9078,-1.9078,-1.9078,-1.9078,-1.9078,-1.9078,0.0,0.0,-1.9078,-1.9078,-1.9078,-1.9078,-1.9078,-1.9078,-1.9078,-1.9078,-1.9078,0.0,0.0,0.0,0.0,0.0,0.0,0.0,0.0,0.0,0.0,0.0,0.0,0.0,0.0,0.0,0.0,0.0,0.0,0.0,0.0,0.0,0.0,0.0,0.0,0.0,0.0,0.0,0.0,0.0,0.0,0.0,0.0,0.0,0.0,0.0,0.0,0.0,0.0,0.0,0.0,0.0,0.0,0.0,0.0,0.0,0.0,0.0,0.0,0.0,0.0,0.0,0.0,0.0,0.0,0.0,0.0,-2.5388,-2.3774,-2.2484,-2.2004,-2.157,-2.0394,-2.0548,-2.0982,0.0,0.0,-2.1109,-2.1109,-2.1109,-2.1109,-2.1109,-2.1109,-2.1109,-2.1109,0.0,-2.1109,0.0,0.0,0.0,0.0,0.0,0.0,0.0,0.0,0.0,0.0,0.0,0.0,-2.1109,-2.1109,-2.1109,-2.1109,-2.0856,-2.0609,-2.0234,-1.9909,-1.9584,-1.9264,-1.9136,-1.9078,-1.9078,-1.9078,-1.9078,-1.9078,-1.9078,0.0,0.0,-1.9078,-1.9078,-1.9078,-1.9078,-1.9078,-1.9078,-1.9078,-1.9078,-1.9078,0.0,0.0,0.0,0.0,0.0,0.0,0.0,0.0,0.0,0.0,0.0,0.0,0.0,0.0,0.0,0.0,0.0,0.0,0.0,0.0,0.0,0.0,0.0,0.0,0.0,0.0,0.0,0.0,0.0,0.0,0.0,0.0,0.0,0.0,0.0,0.0,0.0,0.0,0.0,0.0,0.0,0.0,0.0,0.0,0.0,0.0,0.0,0.0,0.0,0.0,0.0,0.0,0.0,0.0,0.0,0.0,-2.6789,-2.5232,-2.3774,-2.2528,-2.1306,-2.0096,-2.0247,-2.0681,0.0,0.0,-2.1109,-2.1109,-2.1109,-2.1109,-2.1109,-2.1109,-2.1109,-2.1109,-2.1109,0.0,0.0,0.0,0.0,0.0,0.0,0.0,0.0,0.0,0.0,0.0,0.0,0.0,-2.1109,-2.1109,-2.1109,-2.1109,-2.1109,-2.0919,-2.0609,-2.0234,-1.9909,-1.9577,-1.9264,-1.9078,-1.9078,-1.9078,-1.9078,0.0,0.0,0.0,0.0,-1.9078,-1.9078,-1.9078,-1.9078,-1.9078,-1.9078,-1.9078,-1.9078,-1.9078,0.0,0.0,0.0,0.0,0.0,0.0,0.0,0.0,0.0,0.0,0.0,0.0,0.0,0.0,0.0,0.0,0.0,0.0,0.0,0.0,0.0,0.0,0.0,0.0,0.0,0.0,0.0,0.0,0.0,0.0,0.0,0.0,0.0,0.0,0.0,0.0,0.0,0.0,0.0,0.0,0.0,0.0,0.0,0.0,0.0,0.0,0.0,0.0,0.0,0.0,0.0,0.0,0.0,0.0,0.0,0.0,0.0,0.0,-2.5342,-2.4038,-2.2775,-2.135,-2.0674,-2.0374,-2.0374,0.0,-2.0508,-2.0508,-2.0675,-2.0815,-2.0815,-2.0975,-2.1109,-2.1109,-2.1109,0.0,0.0,0.0,0.0,0.0,0.0,0.0,0.0,0.0,0.0,0.0,0.0,0.0,-2.1109,-2.1109,-2.1109,-2.1109,-2.1109,-2.0919,-2.0609,-2.0482,-2.0157,-1.9577,-1.9514,-1.9328,-1.9078,-1.9078,-1.9078,0.0,0.0,0.0,0.0,-1.9328,-1.9328,-1.9078,-1.9078,-1.9078,-1.9078,-1.9078,-1.9078,-1.9078,0.0,0.0,0.0,0.0,0.0,0.0,0.0,0.0,0.0,0.0,0.0,0.0,0.0,0.0,0.0,0.0,0.0,0.0,0.0,0.0,0.0,0.0,0.0,0.0,0.0,0.0,0.0,0.0,0.0,0.0,0.0,0.0,0.0,0.0,0.0,0.0,0.0,0.0,0.0,0.0,0.0,0.0,0.0,0.0,0.0,0.0,0.0,0.0,0.0,0.0,0.0,0.0,0.0,0.0,0.0,0.0,0.0,0.0,0.0,-2.4954,-2.3885,-2.1915,-2.1069,0.0,0.0,0.0,-2.0173,-2.0173,-2.0381,-2.0541,-2.0655,-2.0822,-2.0982,-2.1089,0.0,0.0,0.0,0.0,0.0,0.0,0.0,0.0,0.0,0.0,0.0,0.0,0.0,0.0,-2.1109,-2.1109,-2.1109,-2.1109,-2.1109,-2.0982,-2.0792,-2.0672,-2.0412,-1.9966,-1.9705,-1.9514,-1.9264,-1.9142,-1.92,0.0,0.0,0.0,0.0,-1.9711,-1.9647,-1.9462,-1.9328,-1.9392,-1.9462,-1.9328,-1.9264,-1.9264,0.0,0.0,0.0,0.0,0.0,0.0,0.0,0.0,0.0,0.0,0.0,0.0,0.0,0.0,0.0,0.0,0.0,0.0,0.0,0.0,0.0,0.0,0.0,0.0,0.0,0.0,0.0,0.0,-3.5558,0.0,0.0,0.0,0.0,0.0,0.0,0.0,0.0,0.0,0.0,0.0,0.0,0.0,0.0,0.0,0.0,0.0,0.0,0.0,0.0,0.0,0.0,0.0,0.0,0.0,0.0,0.0,0.0,0.0,0.0,0.0,0.0,0.0,0.0,0.0,0.0,0.0,0.0,-2.0113,-2.014,-2.0321,-2.0595,-2.0681,-2.0795,0.0,0.0,0.0,0.0,0.0,0.0,0.0,0.0,0.0,0.0,0.0,0.0,0.0,0.0,0.0,-2.1109,-2.1109,-2.1109,-2.1109,-2.1109,-2.1109,-2.1109,-2.0792,-2.0609,-2.0609,-1.9966,-1.9641,-1.9577,-1.9264,-1.9328,0.0,0.0,0.0,0.0,-2.0106,-2.0106,-2.0043,-1.9775,-1.9839,-2.0043,-1.9775,-1.9641,-1.9641,0.0,0.0,0.0,0.0,0.0,0.0,0.0,0.0,0.0,0.0,0.0,0.0,0.0,0.0,0.0,0.0,0.0,0.0,0.0,0.0,0.0,0.0,0.0,0.0,0.0,0.0,0.0,0.0,0.0,0.0,0.0,0.0,0.0,0.0,0.0,0.0,0.0,0.0,0.0,0.0,0.0,0.0,0.0,0.0,0.0,0.0,-3.4787,-3.3415,0.0,0.0,0.0,0.0,0.0,0.0,0.0,0.0,-2.8291,0.0,0.0,0.0,0.0,0.0,0.0,0.0,0.0,0.0,0.0,0.0,0.0,0.0,0.0,0.0,0.0,0.0,0.0,0.0,0.0,0.0,0.0,0.0,0.0,0.0,0.0,0.0,0.0,0.0,0.0,-2.1109,-2.1109,-2.1109,-2.1109,-2.1109,-2.1109,-2.1109,-2.1109,-2.1046,-2.0856,-2.0609,-2.0418,-2.0094,-1.9577,-1.9514,-1.9514,0.0,0.0,0.0,-2.0106,-2.0361,-2.0361,-2.0106,-2.0043,-2.0043,-2.0106,-2.0043,-1.9973,-1.9973,0.0,0.0,0.0,0.0,0.0,0.0,0.0,0.0,0.0,0.0,0.0,0.0,0.0,0.0,0.0,0.0,0.0,0.0,0.0,0.0,0.0,0.0,0.0,0.0,0.0,0.0,0.0,0.0,0.0,0.0,0.0,0.0,0.0,0.0,0.0,0.0,0.0,0.0,0.0,0.0,0.0,0.0,0.0,0.0,0.0,0.0,-3.544,-3.4227,0.0,-3.1542,-3.0182,-2.8953,0.0,0.0,0.0,0.0,-2.8291,-2.8184,-2.7539,-2.6916,0.0,0.0,0.0,0.0,0.0,0.0,0.0,0.0,0.0,0.0,0.0,0.0,0.0,0.0,0.0,0.0,0.0,0.0,0.0,0.0,0.0,0.0,0.0,0.0,0.0,0.0,0.0,-2.1109,-2.1109,-2.1109,-2.1109,-2.1109,-2.1109,-2.1109,-2.1109,-2.1109,-2.0982,-2.0862,-2.0672,-2.0418,-2.0024,-1.9903,-1.9903,0.0,0.0,0.0,-2.0545,-2.0736,-2.0736,-2.0545,-2.0418,-2.0418,-2.0545,-2.0361,-2.0361,-2.0361,0.0,0.0,0.0,0.0,0.0,0.0,0.0,0.0,0.0,0.0,0.0,0.0,0.0,0.0,0.0,0.0,0.0,0.0,0.0,0.0,0.0,0.0,0.0,0.0,0.0,0.0,0.0,0.0,0.0,0.0,0.0,0.0,0.0,0.0,0.0,0.0,0.0,0.0,0.0,0.0,0.0,0.0,0.0,0.0,0.0,0.0,0.0,0.0,0.0,-3.2476,-3.1103,-2.9723,-2.8654,0.0,0.0,0.0,0.0,0.0,-2.7539,-2.7377,-2.6708,-2.376,-2.2974,0.0,0.0,0.0,0.0,0.0,0.0,0.0,0.0,0.0,0.0,0.0,0.0,0.0,0.0,0.0,0.0,0.0,0.0,0.0,0.0,0.0,0.0,0.0,0.0,-2.1109,-2.1109,-2.1109,-2.1109,-2.1109,-2.1109,-2.1109,-2.1109,-2.1109,-2.1109,-2.1109,-2.0799,-2.0672,-2.0609,-2.0297,-2.0361,-2.0609,0.0,0.0,-2.1109,-2.1109,-2.1109,-2.1046,-2.0799,-2.0856,-2.1046,-2.0799,-2.0672,-2.0672,0.0,0.0,0.0,0.0,0.0,0.0,0.0,0.0,0.0,0.0,0.0,0.0,0.0,0.0,0.0,0.0,0.0,0.0,0.0,0.0,0.0,0.0,0.0,0.0,0.0,0.0,0.0,0.0,0.0,0.0,0.0,0.0,0.0,0.0,0.0,0.0,0.0,-3.6405,-3.6405,-3.6405,0.0,0.0,0.0,0.0,0.0,0.0,0.0,0.0,0.0,-3.2655,-3.1235,-2.9723,-2.8654,0.0,0.0,0.0,0.0,0.0,-2.7539,-2.7377,-2.6708,-2.376,-2.2974,-2.2361,0.0,0.0,0.0,0.0,0.0,0.0,0.0,0.0,0.0,0.0,0.0,0.0,0.0,0.0,0.0,0.0,0.0,0.0,0.0,0.0,0.0,0.0,0.0,-2.1109,-2.1109,-2.1109,-2.1109,-2.1109,-2.1109,-2.1109,-2.1109,-2.1109,-2.1109,-2.1109,-2.1046,-2.0856,-2.0609,-2.0545,-2.0545,-2.0609,0.0,-2.0792,-2.1109,-2.1109,-2.1109,-2.1109,-2.1046,-2.1046,-2.1109,-2.1046,-2.1046,-2.1046,0.0,0.0,0.0,0.0,0.0,0.0,0.0,0.0,0.0,0.0,0.0,0.0,0.0,0.0,0.0,0.0,0.0,0.0,0.0,0.0,0.0,0.0,0.0,0.0,0.0,0.0,0.0,0.0,0.0,0.0,0.0,0.0,0.0,0.0,0.0,0.0,0.0,-3.6405,-3.6405,-3.6405,0.0,0.0,0.0,0.0,0.0,0.0,0.0,0.0,0.0,0.0,-3.1644,-3.0546,-2.8804,0.0,0.0,0.0,0.0,0.0,-2.7539,-2.7377,-2.6708,-2.376,-2.2974,-2.2361,-1.9938,-1.9424,0.0,0.0,0.0,0.0,0.0,0.0,0.0,0.0,0.0,0.0,0.0,0.0,0.0,0.0,0.0,0.0,0.0,0.0,0.0,0.0,0.0,0.0,-2.1109,-2.1109,-2.1109,-2.1109,-2.1109,-2.1109,-2.1109,-2.1109,-2.1109,-2.1109,-2.1109,-2.1046,-2.0856,-2.0856,-2.0856,-2.0856,0.0,-2.0982,-2.1109,-2.1109,-2.1109,-2.1109,-2.1109,-2.1109,-2.1109,-2.1109,-2.1109,-2.1109,0.0,0.0,0.0,0.0,0.0,0.0,0.0,0.0,0.0,0.0,0.0,0.0,0.0,0.0,0.0,0.0,0.0,0.0,0.0,0.0,0.0,0.0,0.0,0.0,0.0,0.0,0.0,0.0,0.0,0.0,0.0,0.0,0.0,0.0,0.0,0.0,0.0,-3.6405,-3.6405,-3.6405,0.0,0.0,0.0,0.0,0.0,0.0,0.0,0.0,0.0,0.0,0.0,0.0,0.0,0.0,0.0,-2.8291,-2.8291,-2.8184,-2.7539,-2.7377,-2.6708,-2.376,0.0,-2.2361,-1.9938,-1.9424,0.0,0.0,0.0,0.0,0.0,0.0,0.0,0.0,0.0,0.0,0.0,0.0,0.0,0.0,0.0,0.0,0.0,0.0,0.0,0.0,0.0,0.0,-2.1109,-2.1109,-2.1109,-2.1109,-2.1109,-2.1109,-2.1109,-2.1109,-2.1109,-2.1109,-2.1109,-2.1109,-2.1109,-2.1109,-2.1109,-2.1109,-2.1109,-2.1109,-2.1109,-2.1109,-2.1109,-2.1109,-2.1109,-2.1109,-2.1109,-2.1109,-2.1109,-2.1109,0.0,0.0,0.0,0.0,0.0,0.0,0.0,0.0,0.0,0.0,0.0,0.0,0.0,0.0,0.0,0.0,0.0,0.0,0.0,0.0,0.0,0.0,0.0,0.0,0.0,0.0,0.0,0.0,0.0,0.0,0.0,0.0,0.0,0.0,0.0,0.0,0.0,-3.6405,-3.6405,-3.6405,-3.6405,0.0,0.0,0.0,0.0,0.0,0.0,0.0,0.0,0.0,0.0,0.0,0.0,0.0,0.0,-2.8291,-2.8291,-2.8184,-2.7539,-2.7377,-2.6708,-2.376,-2.2974,0.0,-1.9938,-1.9424,0.0,-1.9424,0.0,0.0,0.0,0.0,0.0,0.0,0.0,0.0,0.0,0.0,0.0,0.0,0.0,0.0,0.0,0.0,0.0,0.0,0.0,0.0,-2.1109,-2.1109,-2.1109,-2.1109,-2.1109,-2.1109,-2.1109,-2.1109,-2.1109,-2.1109,-2.1109,-2.1109,-2.1109,-2.1109,-2.1109,-2.1109,-2.1109,-2.1109,-2.1109,-2.1109,-2.1109,-2.1109,-2.1109,-2.1109,-2.1109,-2.1109,-2.1109,-2.1109,0.0,0.0,0.0,0.0,0.0,0.0,0.0,0.0,0.0,0.0,0.0,0.0,0.0,0.0,0.0,0.0,0.0,0.0,0.0,0.0,0.0,0.0,0.0,0.0,0.0,0.0,0.0,0.0,0.0,0.0,0.0,0.0,0.0,0.0,0.0,0.0,0.0,-3.6405,-3.6405,-3.6405,-3.6405,-3.6405,0.0,0.0,0.0,0.0,0.0,0.0,0.0,0.0,-3.1819,0.0,0.0,0.0,0.0,0.0,-2.8291,-2.8184,-2.7539,-2.7377,-2.6871,-2.4659,-2.3544,0.0,0.0,-1.9424,-1.9424,-1.9424,-1.9826,0.0,0.0,0.0,0.0,0.0,0.0,0.0,0.0,0.0,0.0,0.0,0.0,0.0,0.0,0.0,0.0,0.0,0.0,0.0,-2.1109,-2.1109,-2.1109,-2.1109,-2.1109,-2.1109,-2.1109,-2.1109,-2.1109,-2.1109,-2.1109,-2.1109,-2.1109,-2.1109,-2.1109,-2.1109,-2.1109,-2.1109,-2.1109,-2.1109,-2.1109,-2.1109,-2.1109,-2.1109,-2.1109,-2.1109,-2.1109,-2.1109,0.0,0.0,0.0,0.0,0.0,0.0,0.0,0.0,0.0,0.0,0.0,0.0,0.0,0.0,0.0,0.0,0.0,0.0,0.0,0.0,0.0,0.0,0.0,0.0,0.0,0.0,0.0,0.0,0.0,0.0,0.0,0.0,0.0,0.0,0.0,0.0,0.0,0.0,-3.6323,-3.6405,-3.6405,-3.6405,0.0,0.0,0.0,0.0,0.0,0.0,0.0,0.0,0.0,0.0,0.0,0.0,0.0,0.0,-2.8291,-2.8184,-2.7539,-2.7377,-2.6989,0.0,0.0,0.0,-2.0443,-1.9649,-1.9424,-1.9424,0.0,0.0,0.0,0.0,0.0,0.0,0.0,0.0,0.0,0.0,0.0,0.0,0.0,0.0,0.0,0.0,0.0,0.0,0.0,0.0,0.0,-2.1109,-2.1109,-2.1109,-2.1109,-2.1109,-2.1109,-2.1109,-2.1109,-2.1109,-2.1109,-2.1109,-2.1109,-2.1109,-2.1109,-2.1109,-2.1109,-2.1109,-2.1109,-2.1109,-2.1109,-2.1109,-2.1109,-2.1109,-2.1109,-2.1109,-2.1355,-2.1727,0.0,0.0,0.0,0.0,0.0,0.0,0.0,0.0,0.0,0.0,0.0,0.0,0.0,0.0,0.0,0.0,0.0,0.0,0.0,0.0,0.0,0.0,0.0,0.0,0.0,0.0,0.0,0.0,0.0,0.0,0.0,0.0,0.0,0.0,0.0,0.0,0.0,0.0,-3.6146,-3.6405,-3.6405,-3.6405,-3.6405,0.0,0.0,0.0,0.0,0.0,0.0,0.0,-3.2488,-3.1421,0.0,0.0,0.0,-2.8291,-2.8291,-2.8184,-2.7539,-2.7377,0.0,0.0,0.0,0.0,-2.1517,-2.027,-1.9424,-1.943,0.0,0.0,0.0,0.0,0.0,0.0,0.0,0.0,0.0,0.0,0.0,0.0,0.0,0.0,0.0,0.0,0.0,0.0,0.0,0.0,0.0,-2.1109,-2.1109,-2.1109,-2.1109,-2.1109,-2.1109,-2.1109,-2.1109,-2.1109,-2.1109,-2.1109,-2.1109,-2.1109,-2.1109,-2.1109,-2.1109,-2.1109,-2.1109,-2.1109,-2.1109,-2.1109,-2.1109,-2.1109,-2.1172,-2.1172,-2.1971,-2.3139,0.0,0.0,0.0,0.0,0.0,0.0,0.0,0.0,0.0,0.0,0.0,0.0,0.0,0.0,0.0,0.0,0.0,0.0,0.0,0.0,0.0,0.0,0.0,0.0,0.0,0.0,0.0,0.0,0.0,0.0,0.0,0.0,0.0,-3.5716,0.0,0.0,0.0,0.0,-3.5764,-3.5847,-3.5847,-3.5847,-3.5847,0.0,0.0,0.0,0.0,0.0,0.0,0.0,0.0,0.0,0.0,0.0,0.0,-2.8291,-2.8291,-2.8184,-2.7539,0.0,0.0,0.0,0.0,0.0,0.0,-2.0895,0.0,0.0,0.0,0.0,0.0,0.0,0.0,0.0,0.0,0.0,0.0,0.0,0.0,0.0,0.0,0.0,0.0,0.0,0.0,0.0,0.0,0.0,0.0,-2.1109,-2.1109,-2.1109,-2.1109,-2.1109,-2.1109,-2.1109,-2.1109,-2.1109,-2.1109,-2.1109,-2.1109,-2.1109,-2.1109,-2.1109,-2.1109,-2.1109,-2.1109,-2.1109,-2.1664,-2.2522,-2.2522,-2.3084,-2.3822,-2.3822,-2.407,-2.444,0.0,0.0,0.0,0.0,0.0,0.0,0.0,0.0,0.0,0.0,0.0,0.0,0.0,0.0,0.0,0.0,0.0,0.0,0.0,0.0,0.0,0.0,0.0,0.0,0.0,0.0,0.0,0.0,0.0,0.0,0.0,0.0,0.0,-3.5416,0.0,0.0,0.0,0.0,-3.5512,-3.562,-3.562,-3.562,-3.562,0.0,0.0,0.0,0.0,0.0,0.0,0.0,0.0,0.0,-3.0805,0.0,0.0,-2.8291,-2.8291,-2.8184,-2.7539,0.0,0.0,0.0,0.0,0.0,0.0,0.0,0.0,0.0,0.0,0.0,0.0,0.0,0.0,0.0,0.0,0.0,0.0,0.0,0.0,0.0,0.0,0.0,0.0,0.0,0.0,0.0,0.0,0.0,0.0,-2.1109,-2.1109,-2.1109,-2.1109,-2.1355,-2.1908,-2.1908,-2.216,-2.2654,-2.2654,-2.2654,-2.2654,-2.216,-2.216,-2.2654,-2.2654,-2.2654,-2.2654,-2.2654,-2.3146,-2.3876,-2.3876,-2.4309,-2.4994,-2.4994,-2.5362,-2.579,0.0,0.0,0.0,0.0,0.0,0.0,0.0,0.0,0.0,0.0,0.0,0.0,0.0,0.0,0.0,0.0,0.0,0.0,0.0,0.0,0.0,0.0,0.0,0.0,0.0,0.0,0.0,0.0,0.0,0.0,0.0,0.0,-3.5175,-3.5126,0.0,-3.4932,0.0,0.0,-3.532,-3.5524,-3.5524,-3.5524,-3.5524,-3.5524,0.0,0.0,0.0,0.0,0.0,0.0,0.0,0.0,-3.1626,-3.0141,-2.8451,-2.8344,-2.8291,-2.8184,0.0,0.0,0.0,0.0,0.0,0.0,0.0,0.0,0.0,0.0,0.0,0.0,0.0,0.0,0.0,0.0,0.0,0.0,0.0,0.0,0.0,0.0,0.0,0.0,0.0,0.0,0.0,0.0,0.0,0.0,0.0,-2.1235,-2.1292,-2.1292,-2.1418,-2.2034,-2.3256,-2.3263,-2.3876,-2.4994,-2.4994,-2.5056,-2.5117,-2.3876,-2.3876,-2.4994,-2.4994,-2.4994,-2.4994,-2.4994,-2.5056,-2.5178,-2.5178,-2.524,-2.5362,-2.5362,-2.6156,-2.7203,0.0,0.0,0.0,0.0,0.0,0.0,0.0,0.0,0.0,0.0,0.0,0.0,0.0,0.0,0.0,0.0,0.0,0.0,0.0,0.0,0.0,0.0,0.0,0.0,0.0,0.0,0.0,0.0,0.0,0.0,0.0,0.0,0.0,-3.4884,0.0,-3.4835,0.0,-3.4884,-3.4932,-3.4981,-3.4981,-3.4981,-3.4981,-3.4981,-3.4981,0.0,0.0,0.0,0.0,0.0,0.0,0.0,-3.188,-3.065,-2.9418,-2.8548,-2.8291,0.0,0.0,0.0,0.0,0.0,0.0,0.0,0.0,0.0,0.0,0.0,0.0,0.0,0.0,0.0,0.0,0.0,0.0,0.0,0.0,0.0,0.0,0.0,0.0,0.0,0.0,0.0,0.0,0.0,0.0,0.0,-2.1109,-2.209,-2.2647,-2.2647,-2.3636,-2.4317,-2.4556,-2.4556,-2.4748,0.0,-2.4994,-2.5546,-2.652,-2.517,-2.4748,-2.4994,-2.4994,-2.4994,-2.4994,-2.4994,-2.5607,-2.6589,-2.6589,-2.7203,-2.8122,-2.8122,-2.8301,-2.8549,0.0,0.0,0.0,0.0,0.0,0.0,0.0,0.0,0.0,0.0,0.0,0.0,0.0,0.0,0.0,0.0,0.0,0.0,0.0,0.0,0.0,0.0,0.0,0.0,0.0,0.0,0.0,0.0,0.0,0.0,0.0,0.0,0.0,-3.4775,0.0,-3.4775,-3.4775,-3.4775,-3.4775,-3.4775,-3.4775,-3.4775,-3.4775,-3.4775,-3.4775,-3.4775,-3.4775,0.0,0.0,0.0,0.0,0.0,0.0,0.0,-2.9775,-2.9207,-2.8698,0.0,0.0,0.0,0.0,0.0,0.0,0.0,0.0,0.0,0.0,0.0,0.0,0.0,0.0,0.0,0.0,0.0,0.0,0.0,0.0,0.0,0.0,0.0,0.0,0.0,0.0,0.0,0.0,0.0,0.0,-2.1355,-2.2027,-2.2709,-2.338,-2.4008,-2.4625,-2.5301,-2.5973,-2.5973,-2.6277,-2.6892,-2.6892,-2.7263,-2.7933,-2.7263,-2.6892,-2.6892,-2.6892,-2.6892,-2.6892,-2.6892,-2.7323,-2.7942,-2.7942,-2.837,-2.8984,-2.8984,-2.8984,-2.8984,0.0,0.0,0.0,0.0,0.0,0.0,0.0,0.0,0.0,0.0,0.0,0.0,0.0,0.0,0.0,0.0,0.0,0.0,0.0,0.0,0.0,0.0,0.0,0.0,0.0,0.0,0.0,0.0,0.0,0.0,0.0,0.0,0.0,-3.4775,0.0,0.0,-3.4775,-3.4775,-3.4775,-3.4775,-3.4775,-3.4775,-3.4775,-3.4775,-3.4775,-3.4775,0.0,0.0,-3.4775,-3.4775,0.0,0.0,0.0,0.0,-3.038,-3.0026,0.0,0.0,0.0,0.0,0.0,0.0,0.0,0.0,0.0,0.0,0.0,0.0,0.0,0.0,0.0,0.0,0.0,0.0,0.0,0.0,0.0,0.0,0.0,0.0,0.0,0.0,0.0,0.0,0.0,0.0,0.0,-2.1664,-2.3014,-2.3318,-2.4,-2.5301,-2.5546,-2.6216,-2.7323,-2.7323,-2.7873,-2.8984,-2.8984,-2.8984,-2.8984,-2.8984,-2.8984,-2.8984,-2.8984,-2.8984,-2.8984,-2.8984,-2.8984,-2.8984,-2.8984,-2.8984,-2.8984,-2.8984,-2.8984,-2.8984,0.0,0.0,0.0,0.0,0.0,0.0,0.0,0.0,0.0,0.0,0.0,0.0,0.0,0.0,0.0,0.0,0.0,0.0,0.0,0.0,0.0,0.0,0.0,0.0,0.0,0.0,0.0,0.0,0.0,0.0,0.0,0.0,0.0,0.0,0.0,0.0,0.0,0.0,-3.4775,-3.4775,-3.4775,-3.4775,0.0,0.0,0.0,0.0,0.0,0.0,0.0,-3.4775,-3.4677,0.0,0.0,0.0,0.0,0.0,0.0,0.0,0.0,0.0,0.0,0.0,0.0,0.0,0.0,0.0,0.0,0.0,0.0,0.0,0.0,0.0,0.0,0.0,0.0,0.0,0.0,0.0,0.0,0.0,0.0,0.0,0.0,0.0,0.0,0.0,-2.1109,-2.1664,-2.3014,-2.4131,-2.5362,-2.671,-2.7873,-2.8549,-2.8737,-2.8737,-2.8797,-2.8984,-2.8984,-2.8984,-2.8984,-2.8984,-2.8984,-2.8984,-2.8984,-2.8984,-2.8984,-2.8984,-2.8984,-2.8984,-2.8984,-2.8984,-2.8984,-2.8984,-2.8984,-2.8984,0.0,0.0,0.0,0.0,0.0,0.0,0.0,0.0,0.0,0.0,0.0,0.0,0.0,0.0,0.0,0.0,0.0,0.0,0.0,0.0,0.0,0.0,0.0,0.0,0.0,0.0,0.0,0.0,0.0,0.0,0.0,-3.4775,-3.4775,0.0,0.0,0.0,0.0,0.0,0.0,0.0,0.0,0.0,0.0,0.0,0.0,0.0,0.0,0.0,0.0,0.0,0.0,0.0,0.0,0.0,0.0,0.0,0.0,0.0,0.0,0.0,0.0,0.0,0.0,0.0,0.0,0.0,0.0,0.0,0.0,0.0,0.0,0.0,0.0,0.0,0.0,0.0,0.0,0.0,0.0,0.0,0.0,0.0,0.0,0.0,0.0,0.0,-2.2215,-2.3139,-2.517,-2.5851,-2.671,-2.8062,-2.8677,-2.8984,-2.8984,-2.8984,-2.8874,-2.8654,-2.8654,-2.8535,-2.8355,-2.8355,-2.8544,-2.8984,-2.8984,-2.8984,-2.8984,-2.8984,-2.8984,-2.8984,-2.8984,-2.8984,-2.8984,-2.8984,-2.8984,-2.9044,0.0,0.0,0.0,0.0,0.0,0.0,0.0,0.0,0.0,0.0,0.0,0.0,0.0,0.0,0.0,0.0,0.0,0.0,0.0,0.0,0.0,0.0,0.0,0.0,0.0,0.0,0.0,0.0,0.0,0.0,-3.4775,-3.4775,-3.4775,0.0,-3.4775,0.0,0.0,0.0,0.0,0.0,0.0,0.0,0.0,0.0,0.0,0.0,0.0,0.0,0.0,0.0,0.0,0.0,0.0,0.0,0.0,0.0,0.0,0.0,0.0,0.0,0.0,0.0,0.0,0.0,0.0,0.0,0.0,0.0,0.0,0.0,0.0,0.0,0.0,0.0,0.0,0.0,0.0,0.0,0.0,0.0,0.0,0.0,0.0,0.0,0.0,0.0,-2.3574,-2.4556,-2.6892,-2.7013,-2.7624,-2.8984,-2.8984,-2.8984,-2.8984,-2.8883,-2.8636,-2.8242,-2.8242,-2.8067,-2.7822,-2.7822,-2.8152,-2.8682,-2.8783,-2.8838,-2.8838,-2.8938,-2.8984,-2.8984,-2.8984,-2.9044,-2.9153,-2.9153,-2.9153,-2.9272,0.0,0.0,0.0,0.0,0.0,0.0,0.0,0.0,0.0,0.0,0.0,0.0,0.0,0.0,0.0,0.0,0.0,0.0,0.0,0.0,0.0,0.0,0.0,0.0,0.0,0.0,0.0,0.0,0.0,0.0,-3.4775,-3.4775,-3.4775,-3.4775,-3.4775,-3.4775,-3.4775,0.0,0.0,0.0,0.0,0.0,0.0,0.0,0.0,0.0,0.0,0.0,0.0,0.0,0.0,0.0,0.0,0.0,0.0,0.0,0.0,0.0,0.0,0.0,0.0,0.0,0.0,0.0,0.0,0.0,0.0,0.0,0.0,0.0,0.0,0.0,0.0,0.0,0.0,0.0,0.0,0.0,0.0,0.0,0.0,0.0,0.0,0.0,0.0,0.0,-2.4871,-2.5546,-2.6892,-2.7013,-2.7624,-2.8984,-2.8984,-2.8984,-2.8984,-2.8618,-2.8214,-2.7849,-2.7849,-2.784,-2.7822,-2.7822,-2.784,-2.7904,-2.8251,-2.8425,-2.8452,-2.8828,-2.8984,-2.8984,-2.8984,-2.9213,-2.945,-2.945,-2.9627,-2.9863,0.0,0.0,0.0,0.0,0.0,0.0,0.0,0.0,0.0,0.0,0.0,0.0,0.0,0.0,0.0,0.0,0.0,0.0,0.0,0.0,0.0,0.0,0.0,0.0,0.0,0.0,0.0,0.0,0.0,-3.4872,-3.4775,-3.4775,-3.4775,-3.4775,-3.4775,-3.4775,-3.4775,-3.4775,0.0,0.0,0.0,0.0,0.0,0.0,0.0,0.0,0.0,0.0,0.0,0.0,0.0,0.0,0.0,0.0,0.0,0.0,0.0,0.0,0.0,0.0,0.0,0.0,0.0,0.0,0.0,0.0,0.0,0.0,0.0,0.0,0.0,0.0,0.0,0.0,0.0,0.0,0.0,0.0,0.0,0.0,0.0,0.0,0.0,0.0,0.0,0.0,0.0,-2.6892,-2.8182,-2.8301,-2.8489,-2.8984,-2.8984,-2.8865,-2.8608,-2.8462,-2.8058,-2.7389,-2.7389,-2.726,-2.7013,-2.7013,-2.7013,-2.7031,-2.7435,-2.7911,-2.8407,-2.8553,-2.8873,-2.9331,-2.9331,-2.9509,-2.9745,-2.9745,-2.9804,-3.0039,0.0,0.0,0.0,0.0,0.0,0.0,0.0,0.0,0.0,0.0,0.0,0.0,0.0,0.0,0.0,0.0,0.0,0.0,0.0,0.0,0.0,0.0,0.0,0.0,0.0,0.0,0.0,0.0,0.0,0.0,0.0,-3.4775,-3.4775,-3.4775,-3.4775,-3.4775,0.0,0.0,0.0,-3.4775,0.0,0.0,-3.4775,0.0,0.0,0.0,0.0,0.0,0.0,0.0,0.0,0.0,0.0,0.0,0.0,0.0,0.0,0.0,0.0,0.0,0.0,0.0,0.0,0.0,0.0,0.0,0.0,0.0,0.0,0.0,0.0,0.0,0.0,0.0,0.0,0.0,0.0,0.0,0.0,0.0,0.0,0.0,0.0,0.0,0.0,0.0,0.0,0.0,-2.8925,-2.8984,-2.8984,-2.8984,-2.8984,-2.8728,-2.8187,-2.8187,-2.7774,-2.6976,-2.6976,-2.6839,-2.6591,-2.6691,-2.6736,-2.6755,-2.7497,-2.7977,-2.8254,-2.8885,-2.9515,-3.0119,-3.0626,-3.1033,-3.1275,-3.1275,-3.1121,-3.1014,0.0,0.0,0.0,0.0,0.0,0.0,0.0,0.0,0.0,0.0,0.0,0.0,0.0,0.0,0.0,0.0,0.0,0.0,0.0,0.0,0.0,0.0,0.0,0.0,0.0,0.0,0.0,0.0,0.0,0.0,0.0,0.0,-3.4775,0.0,-3.4775,-3.4775,-3.4775,0.0,-3.4775,-3.4775,0.0,-3.4775,-3.4775,0.0,0.0,0.0,-3.4775,-3.4775,0.0,0.0,0.0,0.0,0.0,0.0,0.0,0.0,0.0,0.0,0.0,0.0,0.0,0.0,0.0,0.0,0.0,0.0,0.0,0.0,0.0,0.0,0.0,0.0,0.0,0.0,0.0,0.0,0.0,0.0,0.0,0.0,0.0,0.0,0.0,0.0,0.0,0.0,-2.8984,-2.8984,-2.8984,-2.8984,-2.8984,-2.8984,-2.8984,-2.859,-2.7831,-2.7822,-2.7427,-2.6591,-2.6591,-2.6646,-2.6646,-2.689,-2.7043,-2.7152,-2.8528,-2.8686,-2.8068,-2.9894,-3.0876,-3.1446,-3.2933,-3.3733,-3.4024,-3.4024,-3.3494,-3.2903,0.0,0.0,0.0,0.0,0.0,0.0,0.0,0.0,0.0,0.0,0.0,0.0,0.0,0.0,0.0,0.0,0.0,0.0,0.0,0.0,0.0,0.0,0.0,0.0,0.0,0.0,0.0,0.0,0.0,0.0,0.0,0.0,0.0,0.0,-3.4775,-3.4775,-3.4775,-3.4775,0.0,0.0,-3.4775,-3.4775,0.0,0.0,0.0,0.0,0.0,-3.4775,-3.4775,0.0,-3.4775,-3.4775,0.0,0.0,0.0,0.0,0.0,0.0,-3.4775,0.0,0.0,0.0,0.0,0.0,0.0,0.0,0.0,0.0,0.0,0.0,0.0,0.0,0.0,0.0,0.0,0.0,0.0,0.0,0.0,0.0,0.0,0.0,0.0,0.0,0.0,0.0,-2.8984,-2.8984,-2.8984,-2.8984,-2.8984,-2.8984,-2.8984,-2.859,-2.7831,-2.7822,-2.7474,-2.689,-2.689,-2.6999,-2.7171,-2.7269,-2.7736,-2.8581,-2.9317,-3.0127,-3.0963,-3.147,-3.2266,-3.3272,-3.3677,-3.4035,-3.4269,-3.4269,-3.4168,-3.4123,0.0,0.0,0.0,0.0,0.0,0.0,0.0,0.0,0.0,0.0,0.0,0.0,0.0,0.0,0.0,0.0,0.0,0.0,0.0,0.0,0.0,0.0,0.0,0.0,0.0,0.0,0.0,0.0,0.0,0.0,0.0,0.0,0.0,0.0,0.0,0.0,0.0,0.0,0.0,0.0,-3.4775,0.0,0.0,-3.4775,-3.4775,0.0,0.0,0.0,-3.4775,-3.4775,-3.4775,0.0,0.0,0.0,0.0,0.0,0.0,0.0,0.0,0.0,0.0,0.0,0.0,0.0,-3.0691,-3.0141,-2.9681,0.0,0.0,0.0,0.0,0.0,0.0,0.0,0.0,0.0,0.0,0.0,0.0,0.0,0.0,0.0,0.0,-2.8707,-2.9128,-2.9362,-2.94,-2.94,-2.94,-2.94,-2.94,-2.94,-2.94,-2.9074,-2.8414,-2.8414,-2.8117,-2.7469,-2.7469,-2.7691,-2.8101,-2.8252,-2.9023,-3.0317,-3.1201,-3.2328,-3.3579,-3.407,-3.4421,-3.4792,-3.5409,-3.5761,-3.5881,-3.5881,-3.5553,-3.5333,0.0,0.0,0.0,0.0,0.0,0.0,0.0,0.0,0.0,0.0,0.0,0.0,0.0,0.0,0.0,0.0,0.0,0.0,0.0,0.0,0.0,0.0,0.0,0.0,0.0,0.0,0.0,0.0,0.0,0.0,0.0,0.0,0.0,0.0,0.0,0.0,0.0,0.0,0.0,-3.4775,-3.4775,-3.4775,0.0,0.0,-3.4775,0.0,-3.4775,-3.4775,-3.4775,-3.4775,-3.4775,0.0,0.0,0.0,0.0,0.0,-3.4775,0.0,0.0,0.0,0.0,0.0,0.0,0.0,-3.1982,-3.1677,-3.1575,0.0,0.0,0.0,0.0,0.0,0.0,0.0,0.0,0.0,0.0,0.0,0.0,0.0,0.0,0.0,-2.8625,-2.907,-2.9429,-2.9893,-2.9922,-2.9922,-2.9922,-2.9922,-2.9922,-2.9922,-2.9922,-2.9713,-2.9278,-2.9278,-2.8946,-2.8187,-2.8344,-2.8725,-2.9391,-2.9741,-3.0748,-3.2309,-3.3622,-3.4791,-3.5834,-3.6875,-3.6779,-3.612,-3.7471,-3.7986,-3.7986,-3.7986,-3.7322,-3.6557,0.0,0.0,0.0,0.0,0.0,0.0,0.0,0.0,0.0,0.0,0.0,0.0,0.0,0.0,0.0,0.0,0.0,0.0,0.0,0.0,0.0,0.0,0.0,0.0,0.0,0.0,0.0,0.0,0.0,0.0,0.0,0.0,0.0,0.0,0.0,0.0,0.0,0.0,0.0,-3.4775,-3.4775,0.0,-3.4775,-3.4775,-3.4775,-3.4775,-3.4775,-3.4775,-3.4775,0.0,-3.4775,-3.4775,0.0,0.0,0.0,0.0,0.0,0.0,0.0,0.0,0.0,0.0,0.0,0.0,-3.2951,-3.2235,-3.1575,0.0,0.0,0.0,0.0,0.0,0.0,0.0,0.0,0.0,0.0,0.0,0.0,0.0,0.0,0.0,-2.8652,-2.8974,-2.9346,-2.9865,-2.9922,-2.9922,-2.9922,-2.9922,-2.9922,-2.9922,-2.9922,-2.9713,-2.9278,-2.9278,-2.9146,-2.8895,-2.9913,-3.0567,-3.0965,-3.203,-3.3135,-3.4255,-3.498,-3.5923,-3.6956,-3.7596,-3.7719,-3.7578,-3.7868,-3.7986,-3.7986,-3.7986,-3.7868,-3.7655,0.0,0.0,0.0,0.0,0.0,0.0,0.0,0.0,0.0,0.0,0.0,0.0,0.0,0.0,0.0,0.0,0.0,0.0,0.0,0.0,0.0,0.0,0.0,0.0,0.0,0.0,0.0,0.0,0.0,0.0,0.0,0.0,0.0,0.0,0.0,0.0,0.0,0.0,-3.4775,-3.4775,-3.4775,0.0,-3.4775,-3.4775,-3.4775,-3.4775,-3.4775,-3.4775,-3.4775,-3.4775,-3.4775,0.0,0.0,-3.4775,-3.4775,0.0,-3.4775,-3.4775,0.0,0.0,0.0,-3.4775,0.0,0.0,0.0,-3.356,-3.3201,0.0,0.0,0.0,0.0,0.0,0.0,0.0,0.0,0.0,0.0,0.0,0.0,0.0,0.0,0.0,-2.9092,-2.929,-2.9648,-3.0344,-3.0411,-3.0411,-3.0411,-3.0411,-3.0411,-3.0411,-3.0411,-3.0305,-3.0074,-3.0074,-2.9978,-2.9657,-3.0853,-3.1715,-3.2244,-3.3431,-3.4738,-3.6008,-3.6267,-3.6854,-3.7601,-3.7878,-3.7986,-3.7986,-3.7986,-3.7986,-3.7986,-3.7986,-3.7986,-3.7986,0.0,0.0,0.0,0.0,0.0,0.0,0.0,0.0,0.0,0.0,0.0,0.0,0.0,0.0,0.0,0.0,0.0,0.0,0.0,0.0,0.0,0.0,0.0,-3.5668,0.0,0.0,0.0,0.0,0.0,0.0,0.0,0.0,0.0,0.0,0.0,0.0,0.0,0.0,0.0,-3.4775,0.0,-3.4775,-3.4775,-3.4775,-3.4775,-3.4775,-3.4775,-3.4775,-3.4775,-3.4775,0.0,-3.4775,-3.4775,-3.4775,0.0,0.0,0.0,0.0,0.0,0.0,0.0,0.0,0.0,-3.4775,0.0,0.0,0.0,0.0,0.0,0.0,0.0,0.0,0.0,0.0,0.0,0.0,0.0,0.0,0.0,0.0,0.0,0.0,0.0,-2.9885,-3.0117,-3.084,-3.0889,-3.0889,-3.0889,-3.0889,-3.0889,-3.0889,-3.0889,-3.0889,-3.0889,-3.0889,-3.0819,-3.0722,-3.1871,-3.2884,-3.3643,-3.4886,-3.6126,-3.7336,-3.7336,-3.7589,-3.7986,-3.7986,-3.7986,-3.7986,-3.7986,-3.7986,-3.7986,-3.7986,-3.7986,-3.7986,0.0,0.0,0.0,0.0,0.0,0.0,0.0,0.0,0.0,0.0,0.0,0.0,0.0,0.0,0.0,0.0,0.0,0.0,-3.562,0.0,0.0,0.0,0.0,0.0,-3.5271,0.0,0.0,0.0,0.0,0.0,0.0,0.0,0.0,0.0,-3.4775,0.0,0.0,0.0,-3.4775,0.0,-3.4775,-3.4775,0.0,-3.4775,-3.4775,-3.4775,-3.4775,-3.4775,-3.4775,0.0,-3.4775,-3.4775,0.0,-3.4775,0.0,0.0,0.0,0.0,0.0,0.0,0.0,0.0,-3.4775,0.0,0.0,0.0,-3.4775,0.0,0.0,0.0,0.0,0.0,0.0,0.0,0.0,0.0,0.0,0.0,0.0,0.0,0.0,0.0,0.0,-3.088,-3.0781,-3.0889,-3.0889,-3.0889,-3.0889,-3.0889,-3.0889,-3.0889,-3.0889,-3.0889,-3.0889,-3.0889,-3.1431,-3.2431,-3.3588,-3.4726,-3.5897,-3.7092,-3.7724,-3.789,-3.789,-3.7926,-3.7986,-3.7986,-3.7986,-3.7986,-3.7986,-3.7986,-3.7986,-3.7986,-3.7986,-3.7986,0.0,0.0,0.0,0.0,0.0,0.0,0.0,0.0,0.0,0.0,0.0,0.0,0.0,0.0,0.0,0.0,0.0,-3.5126,0.0,0.0,0.0,0.0,0.0,0.0,0.0,0.0,0.0,0.0,-3.4775,0.0,0.0,0.0,0.0,0.0,-3.4775,0.0,-3.4775,0.0,0.0,0.0,0.0,0.0,0.0,-3.4775,-3.4775,-3.4775,-3.4775,-3.4775,-3.4775,0.0,-3.4775,0.0,0.0,0.0,0.0,0.0,0.0,0.0,0.0,0.0,0.0,0.0,0.0,0.0,-3.4775,0.0,-3.4775,0.0,0.0,0.0,0.0,0.0,0.0,0.0,0.0,0.0,0.0,0.0,0.0,0.0,0.0,0.0,0.0,0.0,0.0,0.0,-3.1566,-3.1624,-3.0947,-3.0889,-3.0889,-3.0889,-3.0889,-3.0889,-3.0889,-3.1566,-3.218,-3.2742,-3.4569,-3.5729,-3.6231,-3.7441,-3.7986,-3.7986,-3.7986,-3.7986,-3.7986,-3.7986,-3.7986,-3.7986,-3.7986,-3.7986,-3.7986,-3.7986,-3.7986,-3.7986,0.0,0.0,0.0,0.0,0.0,0.0,0.0,0.0,0.0,0.0,0.0,0.0,-3.4823,-3.4775,0.0,0.0,0.0,-3.4775,0.0,0.0,-3.4872,0.0,0.0,0.0,0.0,0.0,0.0,0.0,0.0,0.0,0.0,0.0,0.0,0.0,0.0,-3.4775,-3.4775,0.0,0.0,-3.4775,-3.4775,-3.4775,-3.4775,-3.4775,-3.4775,-3.4775,-3.4775,-3.4775,-3.4775,-3.4775,-3.4775,0.0,-3.4775,0.0,0.0,0.0,0.0,0.0,-3.4775,0.0,0.0,0.0,0.0,0.0,0.0,0.0,0.0,0.0,0.0,0.0,0.0,0.0,0.0,0.0,0.0,0.0,0.0,0.0,0.0,0.0,0.0,0.0,0.0,0.0,0.0,-3.1508,-3.218,-3.218,-3.0947,-3.0889,-3.0889,-3.0889,-3.0889,-3.0889,-3.0889,-3.2123,-3.2856,-3.3176,-3.5234,-3.6394,-3.6719,-3.7601,-3.7986,-3.7986,-3.7986,-3.7986,-3.7986,-3.7986,-3.7986,-3.7986,-3.7986,-3.7986,-3.7986,-3.7986,-3.7986,-3.7986,-3.5223,-3.5428,0.0,0.0,0.0,0.0,0.0,0.0,0.0,0.0,0.0,0.0,0.0,0.0,0.0,0.0,0.0,-3.4775,-3.4775,0.0,-3.4775,0.0,0.0,-3.4775,0.0,0.0,0.0,0.0,0.0,0.0,0.0,0.0,0.0,0.0,0.0,-3.4775,-3.4775,-3.4775,-3.4775,-3.4775,-3.4775,-3.4775,-3.4775,0.0,-3.4775,-3.4775,-3.4775,0.0,0.0,-3.4775,-3.4775,0.0,0.0,0.0,0.0,0.0,0.0,0.0,0.0,0.0,0.0,-3.4775,0.0,0.0,0.0,0.0,-3.4775,0.0,0.0,0.0,0.0,0.0,0.0,0.0,0.0,0.0,0.0,0.0,0.0,0.0,0.0,0.0,0.0,0.0,0.0,-3.2742,-3.2685,-3.218,-3.0947,-3.0889,-3.0889,-3.0889,-3.0889,-3.0889,-3.0889,-3.2123,-3.3233,-3.4336,-3.5619,-3.6839,-3.7921,-3.7974,-3.7986,-3.7986,-3.7986,-3.7986,-3.7986,-3.7986,-3.7986,-3.7986,-3.7986,-3.7986,-3.7986,-3.7986,-3.7986,-3.7986,0.0,0.0,0.0,0.0,0.0,0.0,0.0,-3.4775,0.0,0.0,0.0,0.0,0.0,0.0,-3.4775,0.0,0.0,-3.4775,-3.4775,-3.4775,0.0,0.0,0.0,-3.4775,0.0,0.0,0.0,0.0,0.0,0.0,0.0,0.0,0.0,0.0,0.0,-3.4775,0.0,0.0,0.0,0.0,0.0,-3.4775,-3.4775,0.0,0.0,-3.4775,-3.4775,-3.4775,0.0,-3.4775,-3.4775,-3.4775,-3.4775,-3.4775,-3.4775,-3.4775,-3.4775,0.0,0.0,0.0,-3.4775,-3.4775,0.0,0.0,0.0,0.0,0.0,0.0,0.0,0.0,0.0,0.0,0.0,0.0,0.0,0.0,0.0,0.0,0.0,0.0,0.0,0.0,0.0,0.0,0.0,-3.3899,-3.4547,-3.4492,-3.3279,-3.3222,-3.3222,-3.3222,-3.3222,-3.3222,-3.3222,-3.4402,-3.5179,-3.5619,-3.6827,-3.7601,-3.7986,-3.7986,-3.7986,-3.7986,-3.7986,-3.7986,-3.7986,-3.7986,-3.7986,-3.8039,-3.8198,-3.825,-3.825,-3.825,-3.825,-3.8303,-3.4775,0.0,0.0,0.0,0.0,0.0,0.0,0.0,0.0,0.0,-3.4775,0.0,-3.4775,0.0,-3.4775,0.0,-3.4775,-3.4775,-3.4775,-3.4775,0.0,-3.4775,-3.4775,0.0,0.0,0.0,0.0,0.0,0.0,-3.4775,0.0,0.0,0.0,0.0,0.0,0.0,0.0,0.0,-3.4775,0.0,0.0,-3.4775,0.0,0.0,-3.4775,-3.4775,0.0,-3.4775,-3.4775,-3.4775,-3.4775,-3.4775,-3.4775,-3.4775,-3.4775,-3.4775,-3.4775,-3.4775,-3.4775,-3.4775,0.0,-3.4775,-3.4775,0.0,-3.4775,0.0,0.0,0.0,0.0,0.0,0.0,0.0,0.0,0.0,0.0,0.0,0.0,0.0,0.0,0.0,0.0,0.0,0.0,0.0,-3.6437,-3.5124,-3.5772,-3.5651,0.0,0.0,-3.4391,-3.4391,-3.4391,-3.4391,-3.4391,-3.5619,-3.6177,-3.6231,-3.7441,-3.7986,-3.7986,-3.7986,-3.7986,-3.7986,-3.7986,-3.7986,-3.7986,-3.7986,-3.7986,-3.8039,-3.8303,-3.8409,-3.8409,-3.8526,-3.8514,-3.8566,0.0,0.0,0.0,0.0,-3.4775,0.0,0.0,0.0,-3.4775,0.0,-3.4775,-3.4775,-3.4775,-3.4775,-3.4775,-3.4775,-3.4775,0.0,-3.4775,-3.4775,0.0,0.0,-3.4775,-3.4775,-3.4775,0.0,0.0,0.0,0.0,0.0,0.0,0.0,0.0,0.0,-3.4775,0.0,-3.4775,-3.4775,-3.4775,-3.4775,-3.4775,-3.4775,-3.4775,-3.4775,-3.4775,-3.4775,-3.4775,-3.4775,-3.4775,-3.4775,-3.4775,-3.4775,-3.4775,-3.4775,-3.4775,-3.4775,-3.4775,-3.4775,-3.4775,-3.4775,-3.4775,-3.4775,0.0,0.0,0.0,0.0,-3.4775,0.0,0.0,0.0,0.0,0.0,0.0,0.0,0.0,0.0,0.0,0.0,0.0,0.0,0.0,0.0,0.0,-3.8409,-3.7814,-3.6449,-3.6297,-3.5783,0.0,0.0,-3.4558,-3.4558,-3.4558,-3.4558,-3.4558,-3.5729,-3.6297,-3.6286,-3.7441,-3.7986,-3.7986,-3.7986,-3.7986,-3.7986,-3.7986,-3.7986,-3.7986,-3.7986,-3.8039,-3.8039,-3.8303,-3.8461,-3.8461,-3.8736,-3.8841,-3.8841,-3.4775,-3.4775,-3.4775,0.0,-3.4775,-3.4775,0.0,0.0,0.0,0.0,-3.4775,-3.4775,-3.4775,-3.4775,-3.4775,-3.4775,-3.4775,0.0,0.0,0.0,0.0,-3.4775,-3.4775,-3.4775,-3.4775,-3.4775,0.0,-3.4775,0.0,0.0,-3.4775,0.0,0.0,0.0,0.0,0.0,-3.4775,-3.4775,-3.4775,-3.4775,-3.4775,-3.4775,0.0,0.0,-3.4775,-3.4775,-3.4775,-3.4775,-3.4775,-3.4775,-3.4775,-3.4775,-3.4775,-3.4775,-3.4775,-3.4775,-3.4775,-3.4775,-3.4775,-3.4775,-3.4775,-3.4775,-3.4775,-3.4775,0.0,0.0,0.0,0.0,0.0,0.0,0.0,0.0,0.0,0.0,0.0,0.0,0.0,0.0,0.0,0.0,0.0,0.0,0.0,-3.8841,-3.8514,-3.8133,-3.7921,-3.7696,0.0,0.0,0.0,-3.7096,-3.7096,-3.7096,-3.7096,-3.7376,-3.7548,-3.7548,-3.7868,-3.7986,-3.7986,-3.7986,-3.7986,-3.7986,-3.7986,-3.7986,-3.7986,-3.7986,-3.8145,-3.8303,-3.8579,-3.8945,-3.9374,-3.9218,-3.9322,-3.9478,-3.4775,0.0,0.0,-3.4775,0.0,0.0,-3.4775,0.0,0.0,-3.4775,-3.4775,0.0,-3.4775,-3.4775,-3.4775,-3.4775,-3.4775,0.0,-3.4775,0.0,0.0,-3.4775,-3.4775,-3.4775,-3.4775,-3.4775,0.0,-3.4775,0.0,0.0,-3.4775,0.0,0.0,0.0,0.0,-3.4775,0.0,-3.4775,-3.4775,-3.4775,-3.4775,0.0,0.0,-3.4775,-3.4775,-3.4775,-3.4775,-3.4775,-3.4775,-3.4775,-3.4775,-3.4775,-3.4775,-3.4775,-3.4775,-3.4775,-3.4775,-3.4775,-3.4775,-3.4775,-3.4775,-3.4775,-3.4775,-3.4775,-3.4775,-3.4775,-3.4775,0.0,0.0,0.0,0.0,0.0,0.0,0.0,0.0,0.0,0.0,0.0,0.0,0.0,0.0,0.0,0.0,-3.9206,-3.8945,-3.8788,-3.8684,0.0,0.0,0.0,0.0,-3.7986,-3.7986,-3.7986,-3.7986,-3.7986,-3.7986,-3.7986,-3.7986,-3.7986,-3.7986,-3.7986,-3.7986,-3.7986,-3.7986,-3.7986,-3.8039,-3.8145,-3.825,-3.8461,-3.8841,-3.9322,-3.9685,-3.953,-3.9581,-3.9697,0.0,0.0,0.0,0.0,0.0,0.0,0.0,-3.4775,0.0,-3.4775,0.0,-3.4775,-3.4775,-3.4775,-3.4775,-3.4775,0.0,-3.4775,-3.4775,-3.4775,-3.4775,-3.4775,-3.4775,-3.4775,-3.4775,-3.4775,0.0,0.0,0.0,0.0,0.0,0.0,0.0,0.0,0.0,0.0,0.0,-3.4775,-3.4775,0.0,-3.4775,-3.4775,-3.4775,-3.4775,-3.4775,-3.4775,-3.4775,-3.4775,-3.4775,-3.4775,-3.4775,-3.4775,-3.4775,-3.4775,-3.4775,-3.4775,-3.4775,-3.4775,-3.4775,-3.4775,-3.4775,-3.4775,-3.4775,-3.4775,-3.4775,-3.4775,-3.4775,-3.4775,-3.5029,-3.5418,0.0,0.0,0.0,0.0,0.0,0.0,0.0,0.0,0.0,0.0,0.0,0.0,0.0,0.0,0.0,0.0,0.0,0.0,0.0,0.0,0.0,-3.8039,-3.7986,-3.7986,-3.7986,0.0,-3.7986,-3.7986,-3.7986,-3.7986,-3.7986,-3.7986,-3.7986,-3.7986,-3.7986,-3.7986,-3.8039,-3.825,-3.8409,-3.8526,-3.9102,-3.9478,-3.9697,-3.9697,-3.9697,-3.9697,0.0,0.0,0.0,0.0,0.0,-3.4775,-3.4775,-3.4775,-3.4775,-3.4775,-3.4775,-3.4775,-3.4775,-3.4775,-3.4775,-3.4775,-3.4775,0.0,0.0,0.0,0.0,-3.4775,-3.4775,-3.4775,-3.4775,-3.4775,-3.4775,0.0,-3.4775,-3.4775,0.0,0.0,0.0,0.0,0.0,0.0,-3.4775,-3.4775,0.0,-3.4775,-3.4775,-3.4775,-3.4775,-3.4775,-3.4775,-3.4775,-3.4775,-3.4775,-3.4775,-3.4775,-3.4775,-3.4775,-3.4775,-3.4775,-3.4775,-3.4775,-3.4775,-3.4775,-3.4775,-3.4775,-3.4775,-3.4775,-3.4775,-3.4775,-3.4775,-3.4775,-3.4775,-3.4775,-3.5172,-3.5608,-3.5952,0.0,0.0,0.0,0.0,0.0,0.0,0.0,0.0,0.0,0.0,0.0,0.0,0.0,0.0,0.0,0.0,0.0,0.0,0.0,0.0,0.0,-3.7986,0.0,0.0,0.0,-3.7986,-3.7986,-3.7986,-3.7986,-3.7986,-3.7986,-3.7986,-3.7986,-3.7986,-3.7986,-3.7986,-3.8039,-3.8303,-3.8788,-3.9154,-3.9478,-3.9697,-3.9697,-3.9697,-3.9697,0.0,0.0,0.0,0.0,0.0,0.0,0.0,-3.4775,0.0,-3.4775,-3.4775,-3.4775,-3.4775,-3.4775,-3.4775,-3.4775,-3.4775,-3.4775,-3.4775,-3.4775,-3.4775,-3.4775,-3.4775,0.0,-3.4775,-3.4775,-3.4775,-3.4775,-3.4775,-3.4775,0.0,0.0,0.0,0.0,0.0,-3.4775,0.0,0.0,0.0,-3.4775,-3.4775,-3.4775,-3.4775,-3.4775,-3.4775,-3.4775,-3.4775,-3.4775,-3.4775,-3.4775,-3.4775,-3.4775,-3.4775,-3.4775,-3.4775,-3.4775,-3.4775,-3.4775,-3.4775,-3.4775,-3.4775,-3.4775,-3.4775,-3.4775,-3.4775,-3.4775,-3.4859,-3.5184,-3.5437,-3.5835,-3.6692,-3.7702,0.0,0.0,0.0,0.0,0.0,0.0,0.0,0.0,0.0,0.0,0.0,0.0,0.0,0.0,0.0,0.0,0.0,0.0,0.0,0.0,0.0,0.0,0.0,0.0,0.0,-3.7986,-3.7986,-3.7986,-3.7986,-3.7986,-3.7986,-3.7986,-3.7986,-3.7986,-3.8027,-3.8303,-3.8684,-3.9102,-3.9374,-3.9594,-3.9697,-3.9697,-3.9697,-3.9697,0.0,-3.4775,0.0,0.0,-3.4775,0.0,-3.4775,-3.4775,-3.4775,-3.4775,-3.4775,-3.4775,-3.4775,-3.4775,-3.4775,-3.4775,-3.4775,-3.4775,-3.4775,-3.4775,-3.4775,-3.4775,-3.4775,-3.4775,-3.4775,-3.4775,-3.4775,0.0,-3.4775,-3.4775,0.0,0.0,0.0,0.0,0.0,0.0,0.0,0.0,-3.4775,-3.4775,-3.4775,-3.4775,-3.4775,-3.4775,-3.4775,-3.4775,-3.4775,-3.4775,-3.4775,-3.4775,-3.4775,-3.4775,-3.4775,-3.4775,-3.4775,-3.4775,-3.4775,-3.4775,-3.4775,-3.4775,-3.4775,-3.4775,-3.4775,-3.4811,-3.4919,-3.4943,-3.5148,-3.5677,-3.5869,-3.6293,-3.7451,-3.8181,0.0,0.0,0.0,0.0,0.0,0.0,0.0,0.0,0.0,0.0,0.0,0.0,0.0,0.0,0.0,-3.9426,-3.8841,-3.8788,-3.8566,0.0,0.0,-3.7986,-3.7986,0.0,-3.7986,-3.7986,-3.7986,-3.7986,-3.7986,-3.7986,-3.7986,-3.7986,-3.7986,-3.8039,-3.8145,-3.8579,-3.8998,-3.931,-3.953,-3.9645,-3.9697,-3.9697,-3.9697,-3.9697,0.0,0.0,0.0,0.0,0.0,0.0,-3.4775,-3.4775,-3.4775,-3.4775,-3.4775,-3.4775,-3.4775,-3.4775,-3.4775,-3.4775,-3.4775,-3.4775,-3.4775,-3.4775,-3.4775,-3.4775,-3.4775,-3.4775,-3.4775,-3.4775,-3.4775,0.0,0.0,-3.4775,-3.4775,0.0,0.0,0.0,0.0,0.0,0.0,-3.4775,-3.4775,-3.4775,-3.4775,-3.4775,-3.4775,-3.4775,-3.4775,-3.4775,-3.4775,-3.4775,-3.4775,-3.4775,-3.4775,-3.4775,-3.4775,-3.4775,-3.4775,-3.4775,-3.4775,-3.4775,-3.4775,-3.4775,-3.4775,-3.4775,-3.4775,-3.4907,-3.5437,-3.5545,-3.5701,-3.6218,-3.6711,-3.7228,-3.7858,-3.8003,-3.8145,0.0,0.0,0.0,0.0,0.0,0.0,0.0,0.0,0.0,0.0,0.0,0.0,0.0,0.0,-3.9426,-3.8841,-3.8788,-3.8566,-3.8039,0.0,-3.7986,-3.7986,-3.7986,-3.7986,-3.7986,-3.7986,-3.7986,-3.7986,-3.7986,-3.7986,-3.7986,-3.7986,-3.8145,-3.8409,-3.8684,-3.8998,-3.931,-3.9322,-3.9478,-3.9697,-3.9697,-3.9697,-3.9697,0.0,0.0,0.0,0.0,0.0,0.0,0.0,-3.4775,-3.4775,-3.4775,-3.4775,-3.4775,-3.4775,-3.4775,-3.4775,-3.4775,-3.4775,-3.4775,-3.4775,-3.4775,-3.4775,-3.4775,-3.4775,-3.4775,-3.4775,-3.4775,-3.4775,0.0,0.0,-3.4775,-3.4775,-3.4775,0.0,0.0,0.0,-3.4775,-3.4775,-3.4775,-3.4775,-3.4775,-3.4775,-3.4775,-3.4775,-3.4775,-3.4775,-3.4775,-3.4775,-3.4775,-3.4775,-3.4775,-3.4775,-3.4775,-3.4775,-3.4775,-3.4775,-3.4775,-3.4775,-3.4775,-3.4775,-3.4775,-3.4775,-3.4775,-3.5015,-3.5352,-3.5569,-3.5857,-3.6242,-3.6771,-3.73,-3.7733,-3.7938,-3.8145,-3.8303,0.0,0.0,0.0,0.0,0.0,0.0,0.0,0.0,0.0,0.0,0.0,0.0,0.0,0.0,-3.927,-3.8841,-3.8631,0.0,-3.8039,0.0,-3.7986,-3.7986,-3.7986,-3.7986,-3.7986,-3.7986,-3.7986,-3.7986,-3.7986,-3.7986,-3.8039,-3.8198,-3.8303,-3.8461,-3.8893,-3.9154,-3.9322,-3.9478,-3.9594,-3.9697,-3.9697,-3.9898,-4.0187,-3.4775,0.0,-3.4775,0.0,-3.4775,-3.4775,-3.4677,-3.4726,-3.4775,-3.4677,-3.4726,-3.4775,-3.4775,-3.4775,-3.4775,-3.4775,-3.4775,-3.4775,-3.4775,-3.4775,-3.4775,-3.4775,-3.4775,0.0,-3.4775,-3.4775,-3.4775,-3.4775,-3.4775,0.0,-3.4775,0.0,0.0,0.0,-3.4775,-3.4775,-3.4775,-3.4775,-3.4775,-3.4775,-3.4775,-3.4775,-3.4775,-3.4775,-3.4775,-3.4775,-3.4775,-3.4775,-3.4775,-3.4775,-3.4775,-3.4775,-3.4775,-3.4775,-3.4775,-3.4775,-3.4775,-3.4775,-3.4775,-3.4775,-3.4823,-3.5016,-3.534,-3.5701,-3.6014,-3.6362,-3.6783,-3.7312,-3.7721,-3.7986,-3.7986,-3.8145,-3.8303,-3.8303,0.0,0.0,0.0,0.0,0.0,0.0,0.0,-3.9478,-3.9581,0.0,0.0,0.0,0.0,0.0,0.0,0.0,0.0,0.0,0.0,0.0,0.0,-3.7986,-3.7986,-3.7986,-3.7986,-3.7986,-3.7986,-3.7986,-3.7986,-3.8039,-3.8356,-3.8514,-3.8579,-3.9166,-3.9426,-3.9426,-3.9645,-3.9697,-3.971,-3.9873,-4.0174,-4.0538,-3.4775,-3.4775,-3.4775,-3.4775,-3.4775,-3.4726,-3.4433,-3.4628,-3.4677,-3.4433,-3.4628,-3.4775,-3.4775,-3.4775,-3.4775,-3.4775,-3.4775,-3.4775,-3.4775,-3.4775,-3.4775,0.0,0.0,-3.4775,-3.4775,-3.4775,-3.4775,-3.4775,0.0,0.0,-3.4775,0.0,-3.4775,-3.4775,-3.4775,-3.4775,-3.4775,-3.4775,-3.4775,-3.4775,-3.4775,-3.4775,-3.4775,-3.4775,-3.4775,-3.4775,-3.4775,-3.4775,-3.4775,-3.4775,-3.4775,-3.4775,-3.4775,-3.4775,-3.4775,-3.4775,-3.4775,-3.4775,-3.4775,-3.4775,-3.4907,-3.5473,-3.5617,-3.5893,-3.694,-3.718,-3.7336,-3.7866,-3.7974,-3.7986,-3.7986,-3.7986,-3.7986,-3.7986,0.0,0.0,0.0,0.0,0.0,0.0,-3.9697,-3.9581,-3.9322,0.0,0.0,0.0,0.0,0.0,0.0,0.0,0.0,-3.8039,-3.7986,0.0,-3.7986,-3.7986,-3.7986,-3.7986,-3.7986,-3.7986,-3.7986,-3.7986,-3.7986,-3.8039,-3.8579,-3.8788,-3.8841,-3.9426,-3.9697,-3.9697,-3.9697,-3.9697,-3.976,-4.03,-4.0513,-4.0588,-3.4775,-3.4628,-3.4531,-3.4531,-3.4531,-3.4482,-3.4433,-3.4628,-3.4775,-3.4677,-3.4726,-3.4775,-3.4775,-3.4775,-3.4775,0.0,-3.4775,-3.4775,0.0,-3.4775,-3.4775,-3.4775,-3.4775,-3.4775,-3.4775,-3.4775,-3.4775,-3.4775,0.0,0.0,0.0,-3.4775,-3.4775,-3.4775,-3.4775,-3.4775,-3.4775,-3.4775,-3.4775,-3.4775,-3.4775,-3.4775,-3.4775,-3.4775,-3.4775,-3.4775,-3.4775,-3.4775,-3.4775,-3.4775,-3.4775,-3.4775,-3.4775,-3.4775,-3.4775,-3.4775,-3.4775,-3.4775,-3.4775,-3.5088,-3.54,-3.5581,-3.6158,-3.6783,-3.712,-3.7469,-3.7781,-3.795,-3.7986,-3.7986,-3.7986,-3.7986,-3.7986,-3.7986,-3.825,0.0,0.0,0.0,0.0,0.0,0.0,-3.8841,0.0,-3.8619,0.0,0.0,0.0,0.0,0.0,0.0,0.0,0.0,-3.7986,0.0,-3.7986,-3.7986,-3.7986,-3.7986,-3.7986,-3.7986,-3.7986,-3.7986,-3.8092,-3.8303,-3.8631,-3.8945,-3.9166,-3.9542,-3.9697,-3.9697,-3.9697,-3.9923,-4.0275,-4.045,-4.099,-4.1656,-3.4775,-3.458,-3.4384,-3.4384,-3.4384,-3.4384,-3.4298,-3.4592,-3.4775,-3.4677,-3.4738,-3.4775,-3.4775,-3.4775,0.0,-3.4775,-3.4775,-3.4775,-3.4775,-3.4775,-3.4775,-3.4775,-3.4775,-3.4775,-3.4775,-3.4775,0.0,-3.4775,-3.4775,-3.4775,-3.4775,-3.4775,-3.4775,-3.4775,-3.4775,-3.4775,-3.4775,-3.4775,-3.4775,-3.4775,-3.4775,-3.4775,-3.4775,-3.4775,-3.4775,-3.4775,-3.4775,-3.4775,-3.4775,-3.4775,-3.4775,-3.4775,-3.4775,-3.4775,-3.4775,-3.4775,-3.4775,-3.4823,-3.5076,-3.5364,-3.5713,-3.611,-3.6699,-3.724,-3.7445,-3.7745,-3.7986,-3.7986,-3.7986,-3.7986,-3.7986,-3.7986,-3.7986,-3.7986,-3.8145,-3.8303,-3.8409,0.0,0.0,0.0,0.0,0.0,0.0,-3.8356,0.0,0.0,0.0,0.0,0.0,0.0,0.0,-3.7986,-3.7986,0.0,-3.7986,-3.7986,-3.7986,-3.7986,-3.7986,-3.7986,-3.7986,-3.7986,-3.8145,-3.8409,-3.8684,-3.8998,-3.931,-3.9581,-3.9697,-3.9722,-3.9923,-4.0212,-4.0563,-4.0978,-4.1568,-4.2238,-3.4775,-3.458,-3.4384,0.0,-3.4384,0.0,-3.4162,-3.4494,-3.4726,-3.4482,-3.464,-3.4775,-3.4775,-3.4775,-3.4775,-3.4775,0.0,0.0,0.0,-3.4775,-3.4775,-3.4775,-3.4775,-3.4775,-3.4775,-3.4775,-3.4775,-3.4775,-3.4775,-3.4775,-3.4775,-3.4775,-3.4775,-3.4775,-3.4775,-3.4775,-3.4775,-3.4775,-3.4775,-3.4775,-3.4775,-3.4775,-3.4775,-3.4775,-3.4775,-3.4775,-3.4775,-3.4775,-3.4775,-3.4775,-3.4775,-3.4775,-3.4775,-3.4859,-3.4823,-3.4787,-3.4859,-3.4943,-3.5485,-3.5665,-3.5966,-3.6952,-3.7216,-3.7372,-3.7878,-3.7986,-3.7986,-3.7986,-3.7986,-3.7986,-3.7986,-3.7986,-3.7986,-3.7986,-3.7986,-3.8092,-3.8356,0.0,0.0,0.0,0.0,0.0,0.0,-3.8356,-3.825,0.0,0.0,0.0,0.0,0.0,-3.7986,-3.7986,-3.7986,-3.7986,-3.7986,-3.7986,-3.7986,-3.7986,-3.7986,-3.7986,-3.7986,-3.7986,-3.8145,-3.8409,-3.8684,-3.8945,-3.927,-3.953,-3.9658,-3.9746,-4.026,-4.0511,-4.0699,-4.1781,-4.2238,-4.2338,0.0,0.0,-3.4384,-3.4384,-3.4384,-3.4384,-3.4347,-3.4592,-3.4787,-3.4726,-3.4775,-3.4775,-3.4775,-3.4775,-3.4775,-3.4775,-3.4775,-3.4775,-3.4775,-3.4775,-3.4775,-3.4775,-3.4775,-3.4775,-3.4775,-3.4775,-3.4775,-3.4775,-3.4775,-3.4775,-3.4775,-3.4775,-3.4775,-3.4775,-3.4775,-3.4775,-3.4775,-3.4775,-3.4775,-3.4775,-3.4775,-3.4775,-3.4775,-3.4775,-3.4775,-3.4775,-3.4775,-3.4775,-3.4775,-3.4775,-3.4775,-3.4775,-3.4775,-3.51,-3.5352,-3.4895,-3.5112,-3.5461,-3.5581,-3.6206,-3.6879,-3.7132,-3.7493,-3.7829,-3.795,-3.7986,-3.7986,-3.7986,-3.7986,-3.7986,-3.7986,-3.7986,-3.7986,-3.7986,-3.7986,-3.8027,-3.8092,-3.8092,0.0,0.0,-3.8198,-3.8145,-3.8092,-3.8092,-3.8092,0.0,0.0,0.0,0.0,-3.7986,-3.7986,-3.7986,-3.7986,-3.7986,-3.7986,-3.7986,-3.7986,-3.7986,-3.7986,-3.7986,-3.7986,-3.7986,-3.8145,-3.8409,-3.8473,-3.8684,-3.8945,-3.9258,-3.9506,-3.9692,-4.0252,-4.0868,-4.1467,-4.2003,-4.2476,-4.2798,-3.4775,-3.458,-3.4384,-3.4384,-3.4384,-3.4384,-3.4384,-3.4628,-3.4775,-3.4775,-3.4775,-3.4775,-3.4775,-3.4775,-3.4775,-3.4775,-3.4775,-3.4775,-3.4775,-3.4775,-3.4775,-3.4775,-3.4775,-3.4775,-3.4775,-3.4775,-3.4775,-3.4775,-3.4775,-3.4775,-3.4775,-3.4775,-3.4775,-3.4775,-3.4775,-3.4775,-3.4775,-3.4775,-3.4775,-3.4775,-3.4775,-3.4775,-3.4775,-3.4775,-3.4775,-3.4775,-3.4775,-3.4775,-3.4775,-3.4775,-3.4775,-3.4823,-3.5112,-3.5388,-3.5605,-3.5557,-3.5749,-3.6026,-3.6266,-3.6759,-3.7252,-3.7493,-3.7769,-3.7986,-3.7986,-3.7986,-3.7986,-3.7986,-3.7986,-3.7986,-3.7986,-3.7986,-3.7986,-3.7986,-3.7986,-3.7986,-3.7986,-3.7986,0.0,-3.7986,-3.7986,-3.7986,-3.7986,-3.7986,-3.7986,-3.7986,-3.7986,0.0,-3.7986,-3.7986,-3.7986,-3.7986,-3.7986,-3.7986,-3.7986,-3.7986,-3.7986,-3.7986,-3.7986,-3.7986,-3.7986,-3.7986,-3.8145,-3.8409,-3.8409,-3.8579,-3.8865,-3.9426,-3.9646,-3.9701,-4.0852,-4.1455,-4.1785,-4.2323,-4.2778,-4.2974,-3.4775,-3.4628,-3.4482,-3.4482,-3.4482,-3.4482,-3.4482,-3.4628,-3.4775,-3.4775,-3.4775,-3.4775,-3.4775,-3.4775,-3.4775,-3.4775,-3.4775,-3.4775,-3.4775,-3.4775,-3.4775,-3.4775,-3.4775,-3.4775,-3.4775,-3.4775,-3.4775,-3.4775,-3.4775,-3.4775,-3.4775,-3.4775,-3.4775,-3.4775,-3.4775,-3.4775,-3.4775,-3.4775,-3.4775,-3.4775,-3.4775,-3.4775,-3.4775,-3.4775,-3.4775,-3.4775,-3.4775,-3.4775,-3.4799,-3.4871,-3.4895,-3.4991,-3.5569,-3.5797,-3.5942,-3.6386,-3.6579,-3.6723,-3.7096,-3.7252,-3.7421,-3.7878,-3.7986,-3.7986,-3.7986,-3.7986,-3.7986,-3.7986,-3.7986,-3.7986,-3.7986,-3.7986,-3.7986,-3.7986,-3.7986,-3.7986,-3.7986,0.0,-3.7986,-3.7986,-3.7986,-3.7986,-3.7986,-3.7986,-3.7986,-3.7986,-3.7986,-3.7986,-3.7986,-3.7986,-3.7986,-3.7986,-3.7986,-3.7986,-3.7986,-3.7986,-3.7986,-3.7986,-3.7986,-3.7986,-3.7986,-3.7986,-3.8145,-3.8356,-3.8356,-3.851,-3.8843,-3.968,-3.9911,-3.9876,-4.1563,-4.2043,-4.1836,-4.2687,-4.2974,-4.2974,-3.4775,-3.4787,-3.4738,-3.4738,-3.4738,-3.4738,-3.4738,-3.4775,-3.4775,-3.4775,-3.4775,-3.4775,-3.4775,-3.4775,-3.4775,-3.4775,-3.4775,-3.4775,-3.4775,-3.4775,-3.4775,-3.4775,-3.4775,-3.4775,-3.4775,-3.4775,-3.4775,-3.4775,-3.4775,-3.4775,-3.4775,-3.4775,-3.4775,-3.4775,-3.4775,-3.4775,-3.4775,-3.4775,-3.4775,-3.4775,-3.4775,-3.4775,-3.4775,-3.4775,-3.4775,-3.4775,-3.4775,-3.4775,-3.4847,-3.534,-3.5497,-3.5581,-3.611,-3.6591,-3.6964,-3.7048,-3.7385,-3.7661,-3.7288,-3.7517,-3.7878,-3.7962,-3.7986,-3.7986,-3.7986,-3.7986,-3.7986,-3.7986,-3.7986,-3.7986,-3.7986,-3.7986,-3.7986,-3.7986,-3.7986,-3.7986,-3.7986,0.0,-3.7986,-3.7986,-3.7986,-3.7986,-3.7986,-3.7986,-3.7986,-3.7986,-3.7986,-3.7986,-3.7986,-3.7986,-3.7986,-3.7986,-3.7986,-3.7986,-3.7986,-3.7986,-3.7986,-3.7986,-3.7986,-3.7986,-3.7986,-3.7986,-3.8027,-3.8092,-3.8092,-3.8357,-3.8857,-3.9492,-3.9946,-4.0386,-4.1698,-4.2114,-4.21,-4.2781,-4.2974,-4.2974,-3.4775,-3.4775,-3.4775,-3.4775,-3.4775,-3.4775,-3.4775,-3.4775,-3.4775,-3.4775,-3.4775,-3.4775,-3.4775,-3.4775,-3.4775,-3.4775,-3.4775,-3.4775,-3.4775,-3.4775,-3.4775,-3.4775,-3.4775,-3.4775,-3.4775,-3.4775,-3.4775,-3.4775,-3.4775,-3.4775,-3.4775,-3.4775,-3.4775,-3.4775,-3.4775,-3.4775,-3.4775,-3.4775,-3.4775,-3.4775,-3.4775,-3.4775,-3.4775,-3.4775,-3.4775,-3.4823,-3.5148,-3.5256,-3.5328,-3.5857,-3.6038,-3.6134,-3.6663,-3.7,-3.7252,-3.7529,-3.7793,-3.7926,-3.7685,-3.7793,-3.7986,-3.7986,-3.7986,-3.7986,-3.7986,-3.7986,-3.7986,-3.7986,-3.7986,-3.7986,-3.7986,-3.7986,-3.7986,-3.7986,-3.7986,0.0,0.0,-3.7986,-3.7986,-3.7986,-3.7986,-3.7986,-3.7986,-3.7986,-3.7986,-3.7986,-3.7986,-3.7986,-3.7986,-3.7986,-3.7986,-3.7986,-3.7986,-3.7986,-3.7986,-3.7986,-3.7986,-3.7986,-3.7986,-3.7986,-3.7986,-3.7986,-3.8154,-3.8431,-3.8431,-3.8743,-3.926,-3.9977,-4.0335,-4.0527,-4.1874,-4.2258,-4.2155,-4.2762,-4.2974,-4.2974,-3.4775,-3.4775,-3.4775,-3.4775,-3.4775,-3.4775,-3.4775,-3.4775,-3.4775,-3.4775,-3.4775,-3.4775,-3.4775,-3.4775,-3.4775,-3.4775,-3.4775,-3.4775,-3.4775,-3.4775,-3.4775,-3.4775,-3.4775,-3.4775,-3.4775,-3.4775,-3.4775,-3.4775,-3.4775,-3.4775,-3.4775,-3.4775,-3.4775,-3.4775,-3.4775,-3.4775,-3.4775,-3.4775,-3.4775,-3.4775,-3.4775,-3.4775,-3.4799,-3.4968,-3.5016,-3.5088,-3.5605,-3.5797,-3.5881,-3.6411,-3.6591,-3.6675,-3.7216,-3.7372,-3.7457,-3.7866,-3.7986,-3.7986,-3.7986,-3.7986,-3.7986,-3.7986,-3.7986,-3.7986,-3.7986,-3.7986,-3.7986,-3.7986,-3.7986,-3.7986,-3.7986,-3.7986,-3.7986,-3.7986,0.0,0.0,0.0,-3.7986,-3.7986,-3.7986,-3.7986,-3.7986,-3.7986,-3.7986,-3.7986,-3.7986,-3.7986,-3.7986,-3.7986,-3.7986,-3.7986,-3.7986,-3.7986,-3.7986,-3.7986,-3.7986,-3.7986,-3.7986,-3.7986,-3.7986,-3.7986,-3.8118,-3.8407,-3.8827,-3.8948,-3.9296,-3.9813,-4.0534,-4.0777,-4.0777,-4.2014,-4.2369,-4.2268,-4.2806,-4.2974,-4.2974,-3.4775,-3.4775,-3.4775,-3.4775,-3.4775,-3.4775,-3.4775,-3.4775,-3.4775,-3.4775,-3.4775,-3.4775,-3.4775,-3.4775,-3.4775,-3.4775,-3.4775,-3.4775,-3.4775,-3.4775,-3.4775,-3.4775,-3.4775,-3.4775,-3.4775,-3.4775,-3.4775,-3.4775,-3.4775,-3.4775,-3.4775,-3.4775,-3.4775,-3.4775,-3.4775,-3.4775,-3.4775,-3.4775,-3.4775,-3.4775,-3.4775,-3.4775,-3.4835,-3.5376,-3.5557,-3.5629,-3.6158,-3.635,-3.6423,-3.6952,-3.7132,-3.7228,-3.7757,-3.7926,-3.7938,-3.7974,-3.7986,-3.7986,-3.7986,-3.7986,-3.7986,-3.7986,-3.7986,-3.7986,-3.7986,-3.7986,-3.7986,-3.7986,-3.7986,-3.7986,-3.7986,-3.7986,-3.7986,-3.7986,0.0,0.0,-3.7986,-3.7986,-3.7986,-3.7986,-3.7986,-3.7986,-3.7986,-3.7986,-3.7986,-3.7986,-3.7986,-3.7986,-3.7986,-3.7986,-3.7986,-3.7986,-3.7986,-3.7986,-3.7986,-3.7986,-3.7986,-3.7986,-3.7986,-3.7986,-3.7998,-3.8515,-3.8779,-3.8839,-3.9345,-3.985,-4.0331,-4.068,-4.1096,-4.1602,-4.2219,-4.2469,-4.2525,-4.2862,-4.2974,-4.2974,-3.4775,-3.4775,-3.4775,-3.4775,-3.4775,-3.4775,-3.4775,-3.4775,-3.4775,-3.4775,-3.4775,-3.4775,-3.4775,-3.4775,-3.4775,-3.4775,-3.4775,-3.4775,-3.4775,-3.4775,-3.4775,-3.4775,-3.4775,-3.4775,-3.4775,-3.4775,-3.4775,-3.4775,-3.4775,-3.4775,-3.4775,-3.4775,-3.4775,-3.4775,-3.4775,-3.4775,-3.4775,-3.4775,-3.4775,-3.4775,-3.4775,-3.4979,-3.534,-3.5533,-3.5821,-3.6182,-3.6699,-3.6892,-3.6976,-3.7505,-3.7685,-3.7709,-3.7926,-3.7986,-3.7986,-3.7986,-3.7986,-3.7986,-3.7986,-3.7986,-3.7986,-3.7986,-3.7986,-3.7986,-3.7986,-3.7986,-3.7986,-3.7986,-3.7986,-3.7986,-3.7986,-3.7986,-3.7986,-3.7986,0.0,-3.7986,-3.7986,-3.7986,-3.7986,-3.7986,-3.7986,-3.7986,-3.7986,-3.7986,-3.7986,-3.7986,-3.7986,-3.7986,-3.7986,-3.7986,-3.7986,-3.7986,-3.7986,-3.7986,-3.7986,-3.7986,-3.7986,-3.7986,-3.7986,-3.8166,-3.8503,-3.8719,-3.9176,-3.9801,-4.0006,-4.0391,-4.0884,-4.0986,-4.1265,-4.1663,-4.2086,-4.2369,-4.2525,-4.2862,-4.2974,-4.2974,-3.4775,-3.4775,-3.4775,-3.4775,-3.4775,-3.4775,-3.4775,-3.4775,-3.4775,-3.4775,-3.4775,-3.4775,-3.4775,-3.4775,-3.4775,-3.4775,-3.4775,-3.4775,-3.4775,-3.4775,-3.4775,-3.4775,-3.4775,-3.4775,-3.4775,-3.4775,-3.4775,-3.4775,-3.4775,-3.4775,-3.4775,-3.4775,-3.4775,-3.4775,-3.4775,-3.4775,-3.4775,-3.4775,-3.4919,-3.5076,-3.5076,-3.5388,-3.5881,-3.605,-3.6338,-3.6723,-3.7252,-3.7433,-3.7493,-3.7853,-3.7986,-3.7986,-3.7986,-3.7986,-3.7986,-3.7986,-3.7986,-3.7986,-3.7986,-3.7986,-3.7986,-3.7986,-3.7986,-3.7986,-3.7986,-3.7986,-3.7986,-3.7986,-3.7986,-3.7986,-3.7986,-3.7986,-3.7986,-3.7986,-3.7986,-3.7986,-3.7986,-3.7986,-3.7986,-3.7986,-3.7986,-3.7986,-3.7986,-3.7986,-3.7986,-3.7986,-3.7986,-3.7986,-3.7986,-3.7986,-3.7986,-3.7986,-3.7986,-3.7986,-3.7986,-3.7986,-3.7986,-3.7986,-3.8154,-3.8443,-3.8827,-3.9164,-3.9705,-4.0403,-4.0571,-4.0848,-4.1184,-4.1184,-4.1344,-4.1606,-4.1984,-4.2256,-4.2525,-4.2862,-4.2974,-4.2974,-3.4775,-3.4775,-3.4775,-3.4775,-3.4775,-3.4775,-3.4775,-3.4775,-3.4775,-3.4775,-3.4775,-3.4775,-3.4775,-3.4775,-3.4775,-3.4775,-3.4775,-3.4775,-3.4775,-3.4775,-3.4775,-3.4775,-3.4775,-3.4775,-3.4775,-3.4775,-3.4775,-3.4775,-3.4775,-3.4775,-3.4775,-3.4775,-3.4775,-3.4775,-3.4775,-3.4775,-3.4787,-3.4787,-3.5136,-3.5629,-3.5629,-3.5942,-3.6471,-3.7,-3.7192,-3.7264,-3.7793,-3.7986,-3.7986,-3.7986,-3.7986,-3.7986,-3.7986,-3.7986,-3.7986,-3.7986,-3.7986,-3.7986,-3.7986,-3.7986,-3.7986,-3.7986,-3.7986,-3.7986,-3.7986,-3.7986,-3.7986,-3.7986,-3.7986,-3.7986,-3.7986,-3.7986,-3.7986,-3.7986,-3.7986,-3.7986,-3.7986,-3.7986,-3.7986,-3.7986,-3.7986,-3.7986,-3.7986,-3.7986,-3.7986,-3.7986,-3.7986,-3.7986,-3.7986,-3.7986,-3.7986,-3.7986,-3.7986,-3.7986,-3.7986,-3.7986,-3.7986,-3.7998,-3.8551,-3.8827,-3.8864,-3.991,-4.0391,-4.0427,-4.0956,-4.1184,-4.1184,-4.1184,-4.1344,-4.1606,-4.1984,-4.2256,-4.2525,-4.2862,-4.2974,-4.2974,-3.4775,-3.4775,-3.4775,-3.4775,-3.4775,-3.4775,-3.4775,-3.4775,-3.4775,-3.4775,-3.4775,-3.4775,-3.4775,-3.4775,-3.4775,-3.4775,-3.4775,-3.4775,-3.4775,-3.4775,-3.4775,-3.4775,-3.4775,-3.4775,-3.4775,-3.4775,-3.4775,-3.4775,-3.4775,-3.4775,-3.4775,-3.4775,-3.4775,-3.4775,-3.4775,-3.504,-3.5376,-3.5376,-3.5689,-3.617,-3.617,-3.6483,-3.6976,-3.7132,-3.7421,-3.7769,-3.7926,-3.7986,-3.7986,-3.7986,-3.7986,-3.7986,-3.7986,-3.7986,-3.7986,-3.7986,-3.7986,-3.7986,-3.7986,-3.7986,-3.7986,-3.7986,-3.7986,-3.7986,-3.7986,-3.7986,-3.7986,-3.7986,-3.7986,-3.7986,-3.7986,-3.7986,-3.7986,-3.7986,-3.7986,-3.7986,-3.7986,-3.7986,-3.7986,-3.7986,-3.7986,-3.7986,-3.7986,-3.7986,-3.7986,-3.7986,-3.7986,-3.7986,-3.7986,-3.7986,-3.7986,-3.7986,-3.7986,-3.7986,-3.7986,-3.7986,-3.8178,-3.8563,-3.8731,-3.92,-3.9934,-4.0246,-4.0595,-4.0956,-4.1112,-4.1184,-4.1184,-4.1184,-4.1344,-4.1606,-4.1984,-4.2256,-4.2525,-4.2862,-4.2974,-4.2974,-3.4775,-3.4775,-3.4775,-3.4775,-3.4775,-3.4775,-3.4775,-3.4775,-3.4775,-3.4775,-3.4775,-3.4775,-3.4775,-3.4775,-3.4775,-3.4775,-3.4775,-3.4775,-3.4775,-3.4775,-3.4775,-3.4775,-3.4775,-3.4775,-3.4775,-3.4775,-3.4775,-3.4775,-3.4775,-3.4775,-3.4775,-3.4775,-3.4895,-3.5148,-3.5148,-3.5437,-3.593,-3.593,-3.623,-3.6723,-3.6723,-3.7036,-3.7505,-3.7505,-3.7709,-3.7986,-3.7986,-3.7986,-3.7986,-3.7986,-3.7986,-3.7986,-3.7986,-3.7986,-3.7986,-3.7986,-3.7986,-3.7986,-3.7986,-3.7986,-3.7986,-3.7986,-3.7986,-3.7986,-3.7986,-3.7986,-3.7986,-3.7986,-3.7986,-3.7986,-3.7986,-3.7986,-3.7986,-3.7986,-3.7986,-3.7986,-3.7986,-3.7986,-3.7986,-3.7986,-3.7986,-3.7986,-3.7986,-3.7986,-3.7986,-3.7986,-3.7986,-3.7986,-3.7986,-3.7986,-3.7986,-3.7986,-3.7986,-3.8082,-3.831,-3.831,-3.8479,-3.8827,-3.9248,-3.9777,-4.0403,-4.0607,-4.0884,-4.1184,-4.1184,-4.1184,-4.1184,-4.1184,-4.1287,-4.1504,-4.1928,-4.2211,-4.2425,-4.2818,-4.2918,-4.2806,-3.4775,-3.4775,-3.4775,-3.4775,-3.4775,-3.4775,-3.4775,-3.4775,-3.4775,-3.4775,-3.4775,-3.4775,-3.4775,-3.4775,-3.4775,-3.4775,-3.4775,-3.4775,-3.4775,-3.4775,-3.4775,-3.4775,-3.4823,-3.4895,-3.4907,-3.4847,-3.4823,-3.4823,-3.4932,-3.4944,-3.4895,-3.4944,-3.5232,-3.5689,-3.5689,-3.5978,-3.6522,-3.6471,-3.6783,-3.7264,-3.7264,-3.7553,-3.7986,-3.7986,-3.7986,-3.7986,-3.7986,-3.7986,-3.7986,-3.7986,-3.7986,-3.7986,-3.7986,-3.7986,-3.7986,-3.7986,-3.7986,-3.7986,-3.7986,-3.7986,-3.7986,-3.7986,-3.7986,-3.7986,-3.7986,-3.7986,-3.7986,-3.7986,-3.7986,-3.7986,-3.7986,-3.7986,-3.7986,-3.7986,-3.7986,-3.7986,-3.7986,-3.7986,-3.8039,-3.8039,-3.8039,-3.8039,-3.8039,-3.8039,-3.7986,-3.7986,-3.7986,-3.7986,-3.7986,-3.7986,-3.7998,-3.8058,-3.8058,-3.8322,-3.8888,-3.8936,-3.896,-3.8972,-3.9934,-4.0427,-4.0487,-4.0968,-4.1184,-4.1184,-4.1184,-4.1184,-4.1184,-4.1184,-4.1184,-4.1242,-4.1871,-4.211,-4.2155,-4.2762,-4.2806,-4.2525,-3.4775,-3.4775,-3.4775,-3.4775,-3.4775,-3.4775,-3.4775,-3.4775,-3.4775,-3.4775,-3.4775,-3.4775,-3.4775,-3.4775,-3.4775,-3.4775,-3.4775,-3.4775,-3.4775,-3.4775,-3.4775,-3.4775,-3.522,-3.556,-3.583,-3.5345,-3.5126,-3.5126,-3.5734,-3.5954,-3.5757,-3.6181,-3.6436,-3.6545,-3.6331,-3.6633,-3.7333,-3.7127,-3.7324,-3.7805,-3.7805,-3.7878,-3.7986,-3.7986,-3.7986,-3.7986,-3.7986,-3.7986,-3.7986,-3.7986,-3.7986,-3.7986,-3.7986,-3.7986,-3.7986,-3.7986,-3.7986,-3.7986,-3.7986,-3.7986,-3.7986,-3.7986,-3.7986,-3.7986,-3.7986,-3.7986,-3.7986,-3.7986,-3.7986,-3.7986,-3.7986,-3.7986,-3.7986,-3.7986,-3.7986,-3.7986,-3.7986,-3.7986,-3.8092,-3.8303,-3.8303,-3.8303,-3.8303,-3.8145,-3.7986,-3.7986,-3.7986,-3.7986,-3.7986,-3.7986,-3.8178,-3.8623,-3.8635,-3.8888,-3.9429,-3.9838,-4.0054,-4.0054,-4.0282,-4.0619,-4.1016,-4.1136,-4.1184,-4.1184,-4.1184,-4.1184,-4.1184,-4.1184,-4.1184,-4.1242,-4.1871,-4.211,-4.2155,-4.2762,-4.2974,-4.2806,-3.4775,-3.4775,-3.4775,-3.4775,-3.4775,-3.4775,-3.4775,-3.4775,-3.4775,-3.4775,-3.4775,-3.4775,-3.4775,-3.4775,-3.4775,-3.4775,-3.4775,-3.4775,-3.4775,-3.5162,-3.5404,-3.5416,-3.6061,-3.6502,-3.6676,-3.6468,-3.6321,-3.6174,-3.6616,-3.6651,-3.6402,-3.6833,-3.7101,-3.7193,-3.704,-3.7342,-3.7943,-3.7682,-3.7733,-3.7986,-3.7986,-3.7986,-3.7986,-3.7986,-3.7986,-3.7986,-3.7986,-3.7986,-3.7986,-3.7986,-3.7986,-3.7986,-3.7986,-3.7986,-3.7986,-3.7986,-3.7986,-3.7986,-3.7986,-3.7986,-3.7986,-3.7986,-3.7986,-3.7986,-3.7986,-3.7986,-3.7986,-3.7986,-3.7986,-3.7986,-3.7986,-3.7986,-3.7986,-3.7986,-3.7986,-3.7986,-3.7986,-3.7986,-3.8092,-3.8356,-3.8303,-3.8198,-3.8198,-3.8092,-3.7986,-3.7986,-3.7986,-3.7986,-3.7986,-3.8238,-3.8515,-3.8815,-3.9068,-3.9453,-3.9982,-4.0258,-4.0523,-4.0775,-4.0775,-4.092,-4.1184,-4.1184,-4.1184,-4.1184,-4.1184,-4.1184,-4.1184,-4.1184,-4.1184,-4.1242,-4.1871,-4.211,-4.2155,-4.2594,-4.2581,-4.2287,-3.4775,-3.4775,-3.4775,-3.4775,-3.4775,-3.4775,-3.4775,-3.4775,-3.4775,-3.4775,-3.4775,-3.4775,-3.4775,-3.4823,-3.492,-3.509,-3.5223,-3.5332,-3.5332,-3.6027,-3.6444,-3.6283,-3.7033,-3.7567,-3.7742,-3.8017,-3.7879,-3.7369,-3.7517,-3.7404,-3.7101,-3.7452,-3.7735,-3.7907,-3.7804,-3.7995,-3.8461,-3.8198,-3.8092,-3.8092,-3.8092,-3.8092,-3.8092,-3.8039,-3.7986,-3.7986,-3.7986,-3.7986,-3.7986,-3.7986,-3.7986,-3.7986,-3.7986,-3.7986,-3.7986,-3.7986,-3.7986,-3.7986,-3.7986,-3.7986,-3.7986,-3.7986,-3.7986,-3.7986,-3.7986,-3.7986,-3.7986,-3.7986,-3.7986,-3.7986,-3.7986,-3.7986,-3.7986,-3.7986,-3.7986,-3.7986,-3.7986,-3.7986,-3.8145,-3.8409,-3.825,-3.8145,-3.8092,-3.8039,-3.7986,-3.7986,-3.807,-3.813,-3.813,-3.8659,-3.8996,-3.908,-3.9513,-3.9994,-4.0523,-4.0535,-4.0751,-4.1184,-4.1184,-4.1184,-4.1184,-4.1184,-4.1184,-4.1184,-4.1184,-4.1184,-4.1184,-4.1184,-4.1184,-4.1242,-4.1814,-4.2041,-4.2041,-4.23,-4.2073,-4.1606,-3.4775,-3.4775,-3.4775,-3.4775,-3.4775,-3.4775,-3.4775,-3.4775,-3.4775,-3.4775,-3.4775,-3.4775,-3.4775,-3.503,-3.5475,-3.6317,-3.7102,-3.7537,-3.7502,-3.8095,-3.8023,-3.717,-3.7712,-3.8529,-3.9589,-4.0127,-3.9447,-3.7543,-3.8304,-3.8529,-3.8212,-3.8759,-3.9032,-3.9055,-3.8509,-3.8453,-3.8736,-3.8473,-3.8356,-3.8356,-3.8356,-3.8356,-3.8303,-3.8092,-3.7986,-3.7986,-3.7986,-3.7986,-3.7986,-3.7986,-3.7986,-3.7986,-3.7986,-3.7986,-3.7986,-3.7986,-3.7986,-3.7986,-3.7986,-3.7986,-3.7986,-3.7986,-3.7986,-3.7986,-3.7986,-3.7986,-3.7986,-3.7986,-3.7986,-3.7986,-3.7986,-3.7986,-3.7986,-3.7986,-3.7986,-3.7986,-3.7986,-3.7986,-3.8198,-3.8684,-3.8736,-3.8579,-3.8356,-3.8145,-3.7986,-3.7986,-3.8431,-3.8707,-3.8707,-3.9212,-3.9705,-4.0162,-4.0246,-4.0547,-4.1076,-4.1076,-4.1112,-4.1184,-4.1184,-4.1184,-4.1184,-4.1184,-4.1184,-4.1184,-4.1184,-4.1184,-4.1184,-4.1184,-4.1184,-4.1242,-4.1561,-4.1663,-4.172,-4.2029,-4.1915,-4.1663,-3.4775,-3.4775,-3.4775,-3.4775,-3.4775,-3.4775,-3.4775,-3.4775,-3.4823,-3.4981,-3.503,-3.5078,-3.5223,-3.6131,-3.6915,-3.7364,-3.8005,-3.8434,-3.8386,-3.8547,-3.8678,-3.8815,-3.9473,-4.0356,-4.1564,-4.1803,-4.1439,-4.0497,-4.029,-4.0018,-3.9753,-3.9585,-3.9762,-4.0071,-3.9285,-3.9285,-3.9866,-3.8973,-3.8631,-3.8631,-3.8461,-3.8409,-3.8356,-3.8092,-3.7986,-3.7986,-3.7986,-3.7986,-3.7986,-3.7986,-3.7986,-3.7986,-3.7986,-3.7986,-3.7986,-3.7986,-3.7986,-3.7986,-3.7986,-3.7986,-3.7986,-3.7986,-3.7986,-3.7986,-3.7986,-3.7986,-3.7986,-3.7986,-3.7986,-3.7986,-3.7986,-3.7986,-3.7986,-3.7986,-3.7986,-3.7986,-3.7986,-3.7986,-3.8145,-3.8514,-3.8736,-3.8684,-3.8409,-3.857,-3.8591,-3.8443,-3.8948,-3.926,-3.926,-3.9765,-4.015,-4.0391,-4.0679,-4.0944,-4.1184,-4.1184,-4.1184,-4.1184,-4.1184,-4.1184,-4.1184,-4.1184,-4.1184,-4.1184,-4.1184,-4.1184,-4.1184,-4.1184,-4.1184,-4.1242,-4.1492,-4.1606,-4.1606,-4.1789,-4.172,-4.1606]},{"header":{"parameterUnit":"m.s-1","parameterCategory":1,"la1":30.6,"la2":28.766,"lo1":-90.7593,"lo2":-88.6598,"dx":0.0162,"dy":0.0183,"nx":116,"ny":114,"refTime":"2023-02-04T06:00:00:Z","depth":0,"parameterNumber":3,"parameterNumberName":"V-component_of_WINDS"},"data":[0.0,0.0,0.0,0.0,0.0,0.0,0.0,0.0,0.0,0.0,0.0,0.0,0.0,0.0,0.0,0.0,0.0,0.0,0.0,0.0,0.0,0.0,0.0,0.0,0.0,0.0,0.0,0.0,0.0,0.0,0.0,0.0,0.0,0.0,0.0,0.0,0.0,0.0,0.0,0.0,0.0,0.0,0.0,0.0,0.0,0.0,0.0,0.0,0.0,0.0,0.0,0.0,0.0,0.0,0.0,0.0,0.0,0.0,0.0,0.0,0.0,0.0,0.0,0.0,0.0,0.0,0.0,0.0,0.0,0.0,0.0,0.0,0.0,0.0,0.0,0.0,0.0,0.0,0.0,0.0,0.0,0.0,0.0,0.0,0.0,0.0,0.0,0.0,0.0,0.0,0.0,0.0,0.0,0.0,0.0,0.0,0.0,0.0,0.0,0.0,0.0,0.0,0.0,0.0,0.0,0.0,0.0,0.0,0.0,0.0,0.0,0.0,0.0,0.0,0.0,0.0,0.0,0.0,0.0,0.0,0.0,0.0,0.0,0.0,0.0,0.0,0.0,0.0,0.0,0.0,0.0,0.0,0.0,0.0,0.0,0.0,0.0,0.0,0.0,0.0,0.0,0.0,0.0,0.0,0.0,0.0,0.0,0.0,0.0,0.0,0.0,0.0,0.0,0.0,0.0,0.0,0.0,0.0,0.0,0.0,0.0,0.0,0.0,0.0,0.0,0.0,0.0,0.0,0.0,0.0,0.0,0.0,0.0,0.0,0.0,0.0,0.0,0.0,0.0,0.0,0.0,0.0,0.0,0.0,0.0,0.0,0.0,0.0,0.0,0.0,0.0,0.0,0.0,0.0,0.0,0.0,0.0,0.0,0.0,0.0,0.0,0.0,0.0,0.0,0.0,0.0,0.0,0.0,0.0,0.0,0.0,0.0,0.0,0.0,0.0,0.0,0.0,0.0,0.0,0.0,0.0,0.0,0.0,0.0,0.0,0.0,0.0,0.0,0.0,0.0,0.0,0.0,0.0,0.0,0.0,0.0,0.0,0.0,0.0,0.0,0.0,0.0,0.0,0.0,0.0,0.0,0.0,0.0,0.0,0.0,0.0,0.0,0.0,0.0,0.0,0.0,0.0,0.0,0.0,0.0,0.0,0.0,0.0,0.0,0.0,0.0,0.0,0.0,0.0,0.0,0.0,0.0,0.0,0.0,0.0,0.0,0.0,0.0,0.0,0.0,0.0,0.0,0.0,0.0,0.0,0.0,0.0,0.0,0.0,0.0,0.0,0.0,0.0,0.0,0.0,0.0,0.0,0.0,0.0,0.0,0.0,0.0,0.0,0.0,0.0,0.0,0.0,0.0,0.0,0.0,0.0,0.0,0.0,0.0,0.0,0.0,0.0,0.0,0.0,0.0,0.0,0.0,0.0,0.0,0.0,0.0,0.0,0.0,0.0,0.0,0.0,0.0,0.0,0.0,0.0,0.0,0.0,0.0,0.0,0.0,0.0,0.0,0.0,0.0,0.0,0.0,0.0,0.0,0.0,0.0,0.0,0.0,0.0,0.0,0.0,0.0,0.0,0.0,0.0,0.0,0.0,0.0,0.0,0.0,0.0,0.0,0.0,0.0,0.0,0.0,0.0,0.0,0.0,0.0,0.0,0.0,0.0,0.0,0.0,0.0,0.0,0.0,0.0,0.0,0.0,0.0,0.0,0.0,0.0,0.0,0.0,0.0,0.0,0.0,0.0,0.0,0.0,0.0,0.0,0.0,0.0,0.0,0.0,0.0,0.0,0.0,0.0,0.0,0.0,0.0,0.0,0.0,0.0,0.0,0.0,0.0,0.0,0.0,0.0,0.0,0.0,0.0,0.0,0.0,0.0,0.0,0.0,0.0,0.0,0.0,0.0,0.0,0.0,0.0,0.0,0.0,0.0,0.0,0.0,0.0,0.0,0.0,0.0,0.0,0.0,0.0,0.0,0.0,0.0,0.0,0.0,0.0,0.0,0.0,0.0,0.0,0.0,0.0,0.0,0.0,0.0,0.0,0.0,0.0,0.0,0.0,0.0,0.0,0.0,0.0,0.0,0.0,0.0,0.0,0.0,0.0,0.0,0.0,0.0,0.0,0.0,0.0,0.0,0.0,0.0,0.0,0.0,0.0,0.0,0.0,0.0,0.0,0.0,0.0,0.0,0.0,0.0,0.0,0.0,0.0,0.0,0.0,0.0,0.0,0.0,0.0,0.0,0.0,0.0,0.0,0.0,0.0,0.0,0.0,0.0,0.0,0.0,0.0,0.0,0.0,0.0,0.0,0.0,0.0,0.0,0.0,0.0,0.0,0.0,0.0,0.0,0.0,0.0,0.0,0.0,0.0,0.0,0.0,0.0,0.0,0.0,0.0,0.0,0.0,0.0,0.0,0.0,0.0,0.0,0.0,0.0,0.0,0.0,0.0,0.0,0.0,0.0,0.0,0.0,0.0,0.0,0.0,0.0,0.0,0.0,0.0,0.0,0.0,0.0,0.0,0.0,0.0,0.0,0.0,0.0,0.0,0.0,0.0,0.0,0.0,0.0,0.0,0.0,0.0,0.0,0.0,0.0,0.0,0.0,0.0,0.0,0.0,0.0,0.0,0.0,0.0,0.0,0.0,0.0,0.0,0.0,0.0,0.0,0.0,0.0,0.0,0.0,0.0,0.0,0.0,0.0,0.0,0.0,0.0,0.0,0.0,0.0,0.0,0.0,0.0,0.0,0.0,0.0,0.0,0.0,0.0,0.0,0.0,0.0,0.0,0.0,0.0,0.0,0.0,0.0,0.0,0.0,0.0,0.0,0.0,0.0,0.0,0.0,0.0,0.0,0.0,0.0,0.0,0.0,0.0,0.0,0.0,0.0,0.0,0.0,0.0,0.0,0.0,0.0,0.0,0.0,0.0,0.0,0.0,0.0,0.0,0.0,0.0,0.0,0.0,0.0,0.0,0.0,0.0,0.0,0.0,0.0,0.0,0.0,0.0,0.0,0.0,0.0,0.0,0.0,0.0,0.0,0.0,0.0,0.0,0.0,0.0,0.0,0.0,0.0,0.0,0.0,0.0,0.0,0.0,0.0,0.0,0.0,0.0,0.0,0.0,0.0,0.0,0.0,0.0,0.0,0.0,0.0,0.0,0.0,0.0,0.0,0.0,0.0,0.0,0.0,0.0,0.0,0.0,0.0,0.0,0.0,0.0,0.0,0.0,0.0,0.0,0.0,0.0,0.0,0.0,0.0,0.0,0.0,0.0,0.0,0.0,0.0,0.0,0.0,0.0,0.0,0.0,0.0,0.0,0.0,0.0,0.0,0.0,0.0,0.0,0.0,0.0,0.0,0.0,0.0,0.0,0.0,0.0,0.0,0.0,0.0,0.0,0.0,0.0,0.0,0.0,0.0,0.0,0.0,0.0,0.0,0.0,0.0,0.0,0.0,0.0,0.0,0.0,0.0,0.0,0.0,0.0,0.0,0.0,0.0,0.0,0.0,0.0,0.0,0.0,0.0,0.0,0.0,0.0,0.0,0.0,0.0,0.0,0.0,0.0,0.0,0.0,0.0,0.0,0.0,0.0,0.0,0.0,0.0,0.0,0.0,0.0,0.0,0.0,0.0,0.0,0.0,0.0,0.0,0.0,0.0,0.0,0.0,0.0,0.0,0.0,0.0,0.0,0.0,0.0,0.0,0.0,0.0,0.0,0.0,0.0,0.0,0.0,0.0,0.0,0.0,0.0,0.0,0.0,0.0,0.0,0.0,0.0,0.0,0.0,0.0,0.0,0.0,0.0,0.0,0.0,0.0,0.0,0.0,0.0,0.0,0.0,0.0,0.0,0.0,0.0,0.0,0.0,0.0,0.0,0.0,0.0,0.0,0.0,0.0,0.0,0.0,0.0,0.0,0.0,0.0,0.0,0.0,0.0,0.0,0.0,0.0,0.0,0.0,0.0,0.0,0.0,0.0,0.0,0.0,0.0,0.0,0.0,0.0,0.0,0.0,0.0,0.0,0.0,0.0,0.0,0.0,0.0,0.0,0.0,0.0,0.0,0.0,0.0,0.0,0.0,0.0,0.0,0.0,0.0,0.0,0.0,0.0,0.0,0.0,0.0,0.0,0.0,0.0,0.0,0.0,0.0,0.0,0.0,0.0,0.0,0.0,0.0,0.0,0.0,0.0,0.0,0.0,0.0,0.0,0.0,0.0,0.0,0.0,0.0,0.0,0.0,0.0,0.0,0.0,0.0,0.0,0.0,0.0,0.0,0.0,0.0,0.0,0.0,0.0,0.0,0.0,0.0,0.0,0.0,0.0,0.0,0.0,0.0,0.0,0.0,0.0,0.0,0.0,0.0,0.0,0.0,0.0,0.0,0.0,0.0,0.0,0.0,0.0,0.0,0.0,0.0,0.0,0.0,0.0,0.0,0.0,0.0,0.0,0.0,0.0,0.0,0.0,0.0,0.0,0.0,0.0,0.0,0.0,0.0,0.0,0.0,0.0,0.0,0.0,0.0,0.0,0.0,0.0,0.0,0.0,0.0,0.0,0.0,0.0,0.0,0.0,0.0,0.0,0.0,0.0,0.0,0.0,0.0,0.0,0.0,0.0,0.0,0.0,0.0,0.0,0.0,0.0,0.0,0.0,0.0,0.0,0.0,0.0,0.0,0.0,0.0,0.0,0.0,0.0,0.0,0.0,0.0,0.0,0.0,0.0,0.0,0.0,0.0,0.0,0.0,0.0,0.0,0.0,0.0,0.0,0.0,0.0,0.0,0.0,0.0,0.0,0.0,0.0,0.0,0.0,0.0,0.0,0.0,0.0,0.0,0.0,0.0,0.0,0.0,0.0,0.0,0.0,0.0,0.0,0.0,0.0,0.0,0.0,0.0,0.0,0.0,0.0,0.0,0.0,0.0,0.0,0.0,0.0,0.0,0.0,0.0,0.0,0.0,0.0,0.0,0.0,0.0,0.0,0.0,0.0,0.0,0.0,0.0,0.0,0.0,0.0,0.0,0.0,0.0,0.0,0.0,0.0,0.0,0.0,0.0,0.0,0.0,0.0,0.0,0.0,0.0,0.0,0.0,0.0,0.0,0.0,0.0,0.0,0.0,0.0,0.0,0.0,0.0,0.0,0.0,0.0,0.0,0.0,0.0,0.0,0.0,0.0,0.0,0.0,0.0,0.0,0.0,0.0,0.0,0.0,0.0,0.0,0.0,0.0,0.0,0.0,0.0,0.0,0.0,0.0,0.0,0.0,0.0,0.0,0.0,0.0,0.0,0.0,0.0,0.0,0.0,0.0,0.0,0.0,0.0,0.0,0.0,0.0,0.0,0.0,0.0,0.0,0.0,0.0,0.0,0.0,0.0,0.0,0.0,0.0,0.0,0.0,0.0,0.0,0.0,0.0,0.0,0.0,0.0,0.0,0.0,0.0,0.0,0.0,0.0,0.0,0.0,0.0,0.0,0.0,0.0,0.0,0.0,0.0,0.0,0.0,0.0,0.0,0.0,0.0,0.0,0.0,0.0,0.0,0.0,0.0,0.0,0.0,0.0,0.0,0.0,0.0,0.0,0.0,0.0,0.0,0.0,0.0,0.0,0.0,0.0,0.0,0.0,0.0,0.0,0.0,0.0,0.0,0.0,0.0,0.0,0.0,0.0,0.0,0.0,0.0,0.0,0.0,0.0,0.0,0.0,0.0,0.0,0.0,0.0,0.0,0.0,0.0,0.0,0.0,0.0,0.0,0.0,0.0,0.0,0.0,0.0,0.0,0.0,0.0,0.0,0.0,0.0,0.0,0.0,0.0,0.0,0.0,0.0,0.0,0.0,0.0,0.0,0.0,0.0,0.0,0.0,0.0,0.0,0.0,0.0,0.0,0.0,0.0,0.0,0.0,0.0,0.0,0.0,0.0,0.0,0.0,0.0,0.0,0.0,0.0,0.0,0.0,0.0,0.0,0.0,0.0,0.0,0.0,0.0,0.0,0.0,0.0,0.0,0.0,0.0,0.0,0.0,0.0,0.0,0.0,0.0,0.0,0.0,0.0,0.0,0.0,0.0,0.0,0.0,0.0,0.0,0.0,0.0,0.0,0.0,0.0,0.0,4.9001,0.0,0.0,0.0,0.0,0.0,0.0,0.0,0.0,0.0,0.0,0.0,0.0,0.0,0.0,0.0,0.0,0.0,0.0,0.0,0.0,0.0,0.0,0.0,0.0,0.0,0.0,0.0,0.0,0.0,0.0,0.0,0.0,0.0,0.0,0.0,0.0,0.0,0.0,0.0,0.0,3.5572,3.5504,3.5504,3.5504,3.5504,0.0,0.0,0.0,0.0,0.0,0.0,0.0,0.0,0.0,0.0,0.0,0.0,0.0,0.0,0.0,0.0,0.0,0.0,0.0,0.0,0.0,0.0,0.0,0.0,0.0,0.0,0.0,0.0,0.0,0.0,0.0,0.0,0.0,0.0,0.0,0.0,0.0,0.0,0.0,0.0,0.0,0.0,0.0,0.0,0.0,0.0,0.0,0.0,0.0,0.0,0.0,0.0,0.0,0.0,0.0,0.0,0.0,0.0,0.0,0.0,0.0,0.0,0.0,0.0,0.0,0.0,0.0,0.0,0.0,0.0,0.0,4.9094,0.0,0.0,0.0,0.0,0.0,0.0,0.0,0.0,0.0,0.0,0.0,0.0,0.0,0.0,0.0,0.0,0.0,0.0,0.0,0.0,0.0,0.0,0.0,0.0,0.0,0.0,0.0,0.0,0.0,0.0,0.0,0.0,0.0,0.0,0.0,0.0,0.0,0.0,0.0,0.0,3.5733,3.5733,3.5683,3.5522,0.0,0.0,0.0,0.0,0.0,0.0,0.0,0.0,0.0,0.0,0.0,0.0,0.0,0.0,0.0,0.0,0.0,0.0,0.0,0.0,0.0,0.0,0.0,0.0,0.0,0.0,0.0,0.0,0.0,0.0,0.0,0.0,0.0,0.0,0.0,0.0,0.0,0.0,0.0,0.0,0.0,0.0,0.0,0.0,0.0,0.0,0.0,0.0,0.0,0.0,0.0,0.0,0.0,0.0,0.0,0.0,0.0,0.0,0.0,0.0,0.0,0.0,0.0,0.0,4.9634,4.9791,4.9791,4.9791,4.9791,4.9762,4.9627,4.9509,4.9376,4.9376,0.0,0.0,0.0,0.0,0.0,0.0,0.0,0.0,0.0,0.0,0.0,0.0,0.0,0.0,0.0,0.0,0.0,0.0,0.0,0.0,0.0,0.0,0.0,0.0,0.0,0.0,0.0,0.0,0.0,0.0,0.0,0.0,0.0,0.0,0.0,0.0,0.0,3.7235,3.6723,3.6723,3.6321,3.5671,3.5554,0.0,0.0,0.0,0.0,0.0,0.0,0.0,0.0,0.0,0.0,0.0,0.0,0.0,0.0,0.0,0.0,0.0,0.0,0.0,0.0,0.0,0.0,0.0,0.0,0.0,0.0,0.0,0.0,0.0,0.0,0.0,0.0,0.0,0.0,0.0,0.0,0.0,0.0,0.0,0.0,0.0,0.0,0.0,4.4776,4.4776,0.0,0.0,0.0,0.0,0.0,0.0,0.0,0.0,0.0,0.0,0.0,0.0,0.0,4.6632,4.7597,4.8249,4.8974,4.9802,5.055,5.0894,5.0894,5.0894,5.0894,5.0876,5.0973,0.0,5.0153,5.0153,0.0,0.0,0.0,0.0,0.0,0.0,0.0,0.0,0.0,0.0,0.0,0.0,0.0,0.0,0.0,0.0,0.0,0.0,0.0,0.0,0.0,0.0,0.0,0.0,0.0,0.0,0.0,0.0,0.0,0.0,0.0,0.0,0.0,0.0,0.0,0.0,3.7835,3.7677,3.7413,3.7413,3.7235,3.6874,3.6829,3.6368,3.5621,3.5621,0.0,0.0,0.0,0.0,0.0,0.0,0.0,0.0,0.0,0.0,0.0,0.0,0.0,0.0,0.0,0.0,0.0,0.0,0.0,0.0,0.0,0.0,0.0,0.0,0.0,0.0,0.0,0.0,0.0,0.0,0.0,0.0,0.0,0.0,0.0,0.0,0.0,0.0,0.0,4.5416,4.5657,4.5699,4.59,4.6049,0.0,0.0,0.0,0.0,0.0,0.0,0.0,0.0,0.0,4.6847,4.6571,4.6897,4.7973,4.859,4.9274,5.0021,5.0947,5.1388,5.1388,5.1388,5.1388,5.1414,5.1764,5.1764,5.1447,5.1043,5.0929,5.0999,0.0,0.0,0.0,0.0,5.0831,5.0999,0.0,0.0,0.0,0.0,0.0,0.0,0.0,0.0,0.0,0.0,0.0,0.0,0.0,0.0,0.0,3.6723,0.0,0.0,0.0,0.0,0.0,0.0,0.0,0.0,0.0,0.0,0.0,3.8536,3.8458,3.829,3.8165,3.8165,3.8035,3.7863,3.7892,3.7308,3.6259,3.6259,3.6321,0.0,0.0,0.0,0.0,0.0,0.0,0.0,0.0,0.0,0.0,0.0,0.0,0.0,0.0,0.0,0.0,0.0,0.0,0.0,0.0,0.0,0.0,0.0,0.0,0.0,0.0,0.0,0.0,0.0,0.0,0.0,0.0,0.0,0.0,0.0,0.0,0.0,0.0,4.6123,4.6412,4.6472,4.6607,4.6676,0.0,0.0,0.0,0.0,0.0,0.0,4.6892,4.6892,4.7066,4.747,4.7088,4.7443,4.862,4.9189,4.984,5.0605,5.1551,5.2012,5.2012,5.2012,5.2012,5.2036,5.2431,5.2608,5.2563,5.1843,5.1665,5.1775,5.1472,5.1465,5.1601,5.1601,5.1694,5.1793,0.0,0.0,0.0,0.0,0.0,0.0,0.0,0.0,0.0,0.0,0.0,0.0,0.0,0.0,3.7358,3.7358,3.7911,3.825,0.0,0.0,0.0,0.0,0.0,0.0,0.0,0.0,0.0,3.9978,3.9995,3.9696,3.9109,3.9109,3.8723,3.8003,3.8177,3.8051,3.769,3.769,3.7706,3.7706,0.0,0.0,0.0,0.0,0.0,0.0,0.0,0.0,0.0,0.0,0.0,0.0,0.0,0.0,0.0,0.0,0.0,0.0,0.0,0.0,0.0,0.0,0.0,0.0,0.0,0.0,0.0,0.0,0.0,0.0,0.0,0.0,0.0,0.0,0.0,0.0,0.0,0.0,0.0,4.6665,4.7129,0.0,0.0,0.0,0.0,4.811,4.817,4.821,4.821,4.821,4.821,4.823,4.821,4.8633,4.9515,5.032,5.1106,5.1914,5.2718,5.3121,5.3121,5.3121,5.3121,5.3121,5.3143,5.3164,5.3121,5.2563,5.2361,5.2315,5.1793,5.1576,5.1601,5.1601,5.1939,5.2291,0.0,0.0,0.0,0.0,0.0,0.0,0.0,0.0,0.0,0.0,0.0,0.0,0.0,3.7268,3.7549,3.7953,3.8518,3.8892,3.8892,0.0,0.0,0.0,0.0,0.0,0.0,0.0,4.0096,4.0096,4.0096,3.9995,3.9773,3.9773,3.9627,3.9342,3.9428,3.9401,3.9226,3.8302,3.7991,3.8137,3.8386,3.8596,0.0,0.0,0.0,0.0,0.0,0.0,0.0,0.0,0.0,0.0,0.0,0.0,0.0,0.0,0.0,0.0,0.0,0.0,0.0,0.0,0.0,0.0,0.0,0.0,0.0,0.0,0.0,0.0,0.0,0.0,0.0,0.0,0.0,0.0,0.0,0.0,0.0,4.7733,4.7913,0.0,4.8012,4.8189,4.8267,4.8267,4.8287,4.8306,4.8306,4.882,4.9132,4.9132,4.9646,5.0068,5.0362,5.1169,5.172,5.1995,5.2821,5.3185,5.3185,5.3185,5.3185,5.3185,5.3185,5.3185,5.3185,5.2977,5.2912,5.289,5.2717,5.2631,5.2631,5.2631,5.2761,5.289,0.0,0.0,0.0,0.0,0.0,0.0,0.0,0.0,0.0,0.0,0.0,3.6723,3.7328,3.7578,3.794,3.8546,3.9162,3.9497,3.9497,0.0,0.0,0.0,4.0096,0.0,0.0,4.0096,4.0096,4.0096,4.0096,4.0096,4.0096,4.0096,4.0096,4.0096,4.0096,4.0096,4.0045,3.9113,3.8789,3.893,3.9183,3.9385,3.9566,0.0,0.0,0.0,0.0,0.0,0.0,0.0,0.0,0.0,0.0,0.0,0.0,0.0,0.0,0.0,0.0,0.0,0.0,0.0,0.0,0.0,0.0,0.0,0.0,0.0,0.0,0.0,0.0,0.0,0.0,0.0,0.0,0.0,0.0,0.0,4.8247,4.8287,4.8306,4.8306,4.8306,4.8306,4.8416,4.8728,4.8728,4.8857,4.9132,4.9682,4.9994,4.9994,5.0508,5.093,5.1206,5.1761,5.2146,5.2417,5.2973,5.323,5.323,5.3206,5.3206,5.323,5.3206,5.3185,5.3185,5.3185,5.3185,5.3185,5.3185,5.3185,5.3185,5.3185,5.3185,5.3185,0.0,0.0,0.0,0.0,0.0,0.0,0.0,0.0,0.0,0.0,3.6523,3.6754,3.7358,3.7953,3.8574,3.9179,3.9773,4.0096,4.0096,4.0096,0.0,0.0,0.0,0.0,4.0096,4.0096,4.0096,4.0096,4.0096,4.0096,4.0096,4.0096,4.0096,4.0096,4.0096,4.0096,4.0096,4.0096,4.0096,4.0096,4.0096,4.0096,4.0096,0.0,0.0,0.0,0.0,0.0,0.0,0.0,0.0,0.0,0.0,0.0,0.0,0.0,0.0,0.0,0.0,0.0,0.0,0.0,0.0,0.0,0.0,0.0,0.0,0.0,0.0,0.0,0.0,0.0,0.0,0.0,0.0,0.0,4.8434,4.8306,4.8324,4.8343,4.8343,4.8361,4.8379,4.8379,4.8728,4.9574,4.9647,4.9996,5.0765,5.082,5.0839,5.0839,5.0857,5.1242,5.2013,5.2099,5.2504,5.3206,5.3256,5.3318,5.33,5.323,5.3251,5.33,5.323,5.3206,5.3206,5.3206,5.3206,5.3206,5.3206,5.3185,5.3185,5.3185,5.3206,5.3206,0.0,0.0,0.0,0.0,0.0,0.0,0.0,0.0,0.0,0.0,3.6861,3.7371,3.7982,3.8601,3.9206,3.9799,3.9995,4.0096,4.0096,0.0,0.0,0.0,0.0,0.0,4.0096,4.0096,4.0096,4.0096,4.0096,4.0096,4.0096,4.0096,4.0096,4.0096,4.0096,4.0096,4.0096,4.0096,4.0096,4.0096,4.0096,4.0096,4.0163,0.0,0.0,0.0,0.0,0.0,0.0,0.0,0.0,0.0,0.0,0.0,0.0,0.0,0.0,0.0,0.0,0.0,0.0,0.0,0.0,0.0,0.0,0.0,0.0,0.0,0.0,0.0,0.0,0.0,0.0,0.0,0.0,5.0618,4.86,4.8306,4.8526,4.9169,4.9187,4.9426,5.005,5.0105,5.0215,5.0453,5.0472,5.0563,5.0802,5.1353,5.1665,5.1665,5.2252,5.2656,5.2876,5.2943,5.3077,5.3256,5.338,5.3459,5.344,5.3418,5.3439,5.344,5.3418,5.3418,5.3418,5.3418,5.3418,5.3398,5.3269,5.3185,5.3185,5.3185,5.323,5.3295,0.0,0.0,0.0,0.0,0.0,0.0,0.0,0.0,0.0,0.0,3.7185,3.7637,3.8222,3.8821,3.9444,4.0045,4.0096,4.0096,4.0096,0.0,0.0,0.0,0.0,4.0096,4.0096,4.0096,4.0096,4.0096,4.0096,4.0096,4.0096,4.0096,4.0096,4.0096,4.0096,4.0096,4.0096,4.0096,4.0096,4.0096,4.0096,4.0299,4.0595,4.1035,4.139,4.1813,4.297,4.3392,4.3511,4.4344,0.0,0.0,0.0,0.0,0.0,0.0,0.0,0.0,0.0,0.0,0.0,0.0,0.0,0.0,0.0,0.0,0.0,0.0,0.0,0.0,0.0,0.0,0.0,0.0,5.1995,5.1371,4.9609,4.9352,4.9536,5.0031,5.0068,5.0233,5.0747,5.0802,5.0949,5.1279,5.1298,5.1444,5.1793,5.2252,5.2509,5.2509,5.2968,5.3227,5.3251,5.3336,5.338,5.338,5.3519,5.3578,5.3578,5.3519,5.3519,5.3578,5.3519,5.3499,5.3499,5.3499,5.3499,0.0,0.0,0.0,0.0,0.0,5.3336,5.34,0.0,0.0,0.0,0.0,0.0,0.0,0.0,0.0,0.0,0.0,0.0,3.7798,3.8266,3.8898,3.9518,3.9944,4.0045,4.0096,0.0,0.0,0.0,4.0096,4.0096,4.0096,4.0096,4.0096,4.0096,4.0096,4.0096,4.0096,4.0096,4.0096,4.0096,4.0096,4.0096,4.0096,4.0096,4.0096,4.0146,4.0231,4.0231,4.0612,4.1221,4.1288,4.1779,4.2523,4.3284,4.3527,4.3656,4.435,0.0,0.0,0.0,0.0,0.0,0.0,0.0,0.0,0.0,0.0,0.0,0.0,0.0,0.0,0.0,0.0,0.0,0.0,0.0,0.0,0.0,0.0,0.0,0.0,5.2142,5.1885,5.1169,5.1077,5.1041,5.0949,5.0949,5.0967,5.1059,5.1077,5.1371,5.2068,5.2142,5.2454,5.317,0.0,0.0,0.0,0.0,5.323,5.33,5.342,5.3556,5.3649,5.3785,5.39,5.3991,5.3875,5.3875,5.3991,5.3875,5.3817,5.3817,5.3817,5.3761,5.3669,5.3538,5.3499,5.3499,5.3519,5.3519,5.3519,0.0,0.0,0.0,0.0,0.0,0.0,0.0,0.0,0.0,3.8275,3.8716,3.8839,3.8423,3.9353,3.9835,3.9415,3.9825,4.0096,0.0,0.0,4.0096,4.0096,4.0096,4.0096,4.0096,4.0096,4.0096,4.0096,4.0096,4.0096,4.0096,4.0096,4.0096,4.0096,4.0096,4.0096,4.0096,4.0096,4.0426,4.0984,4.0984,4.1068,4.1271,4.1863,4.2557,4.3301,4.4079,4.4378,4.4384,4.4564,4.4615,4.4615,4.4615,0.0,0.0,0.0,0.0,0.0,0.0,0.0,0.0,0.0,0.0,0.0,0.0,0.0,0.0,0.0,0.0,0.0,0.0,0.0,0.0,5.3004,5.2968,5.2913,5.2766,5.2726,5.2509,5.1848,5.1756,5.2013,5.2674,5.2726,5.2803,5.2968,5.2968,5.3041,5.3185,5.3185,5.3185,5.3185,5.3185,5.323,5.33,5.342,5.3872,5.4618,0.0,0.0,5.5798,5.5759,5.5759,5.5798,5.5759,5.5759,5.5759,5.5759,5.5351,5.4626,5.382,5.3499,5.3519,5.3636,5.3656,5.3675,0.0,0.0,0.0,0.0,0.0,0.0,0.0,0.0,0.0,0.0,3.9167,3.9282,3.8935,3.9998,4.0475,3.9747,3.994,0.0,0.0,4.0096,4.0096,4.0096,4.0096,4.0096,4.0096,4.0096,4.0096,4.0096,4.0096,4.0096,4.0096,4.0096,4.0096,4.013,4.0476,4.0646,4.0663,4.1035,4.1407,4.1745,4.1745,4.1982,4.2354,4.2709,4.3335,4.4045,4.4479,4.4615,4.4598,4.4682,4.4654,4.4626,4.4748,4.5079,4.5511,0.0,0.0,0.0,0.0,0.0,0.0,0.0,0.0,0.0,0.0,0.0,0.0,0.0,0.0,5.3185,0.0,0.0,5.3185,5.3185,5.3185,5.3185,5.3185,5.3185,5.3059,5.2656,5.2601,5.2766,5.317,5.3185,5.3185,5.3185,5.3185,5.3185,5.3185,5.3185,5.3185,5.3185,5.323,5.3479,5.399,5.4129,5.4675,5.5609,5.5612,5.5893,5.6302,5.6302,5.6302,5.6302,5.6302,5.6302,5.6302,5.6302,5.6042,5.5595,5.5087,5.438,5.3658,5.3735,5.3754,5.3754,0.0,0.0,0.0,0.0,0.0,0.0,0.0,0.0,0.0,0.0,3.9517,3.9533,3.9423,4.043,4.0931,0.0,0.0,0.0,0.0,4.0536,4.0536,4.0536,4.0536,4.0536,4.0536,4.0536,4.0536,4.0536,4.0536,4.0536,4.0536,4.0536,4.0536,4.0553,4.1153,4.1407,4.1457,4.2049,4.2371,4.2506,4.2506,4.2963,4.3639,4.3639,4.4045,4.4615,4.4615,4.4615,4.4654,4.4748,4.4765,4.472,4.5042,4.539,4.585,4.6619,4.7186,0.0,0.0,0.0,0.0,0.0,0.0,0.0,0.0,0.0,5.3185,5.3185,5.3185,5.3185,5.3185,5.3185,5.3185,5.3185,5.3185,5.3185,5.3185,5.3185,5.3185,5.3185,5.3185,5.3185,5.3185,5.3185,5.3185,5.3185,5.3185,5.3185,5.3185,5.3185,5.3206,5.3227,5.3421,5.3933,5.4741,5.5007,5.5608,5.6525,5.6525,5.6617,5.6766,5.6766,5.6766,5.6766,5.6766,5.6766,5.6747,5.6599,5.6525,5.6525,5.6357,5.5466,5.4277,5.411,5.4035,5.4017,0.0,0.0,0.0,0.0,0.0,0.0,0.0,0.0,0.0,0.0,0.0,0.0,0.0,0.0,0.0,0.0,0.0,0.0,4.2033,4.2033,4.2033,4.2033,4.2033,4.2033,4.2033,4.2033,4.2033,4.2033,4.2033,4.2033,4.2033,4.2033,4.2033,4.2049,4.2134,4.2168,4.2168,4.2252,4.2675,4.3274,4.3274,4.3758,4.4479,4.4479,4.453,4.4615,4.4615,4.4682,4.4776,4.4776,4.4886,4.5015,4.5477,4.5975,4.6507,4.7146,0.0,4.813,4.8286,4.8857,4.9463,4.9463,5.0675,5.1867,0.0,0.0,5.3185,5.3185,5.3185,5.3185,5.3185,5.3185,5.3185,5.3185,5.3185,5.3185,5.3185,5.3185,5.3185,5.3185,5.3185,5.3185,5.3185,5.3185,5.3185,5.3185,5.3185,5.3185,5.3185,5.3185,5.323,5.3277,5.4054,5.4582,5.4879,5.5603,5.6442,5.7379,5.7379,5.7751,5.8438,5.8438,5.8438,5.8438,5.8438,5.8438,5.8382,5.7658,5.7379,5.7286,5.658,5.619,5.593,5.515,5.4871,5.476,0.0,0.0,0.0,0.0,0.0,0.0,0.0,0.0,0.0,0.0,0.0,0.0,0.0,0.0,0.0,0.0,0.0,0.0,4.1694,4.1721,4.1902,4.2286,4.2286,4.2286,4.2286,4.2286,4.2286,4.2286,4.2286,4.2286,4.2286,4.2286,4.2286,4.2303,4.276,4.2946,4.298,4.3436,4.3809,4.4096,4.4096,4.4282,4.4615,4.4615,4.4615,4.4598,4.4682,4.4765,0.0,0.0,4.5186,4.5468,4.5877,4.6478,4.708,4.7424,4.8241,0.0,4.9608,5.0013,5.0288,0.0,5.1151,5.1995,5.1995,5.2619,5.3185,5.3185,5.3185,5.3185,5.3185,5.3185,5.3353,0.0,5.3904,5.4069,5.4528,5.4601,5.4601,5.4601,5.4601,5.4234,5.3277,5.3185,5.3185,5.3185,5.3185,5.3185,5.3185,5.3647,5.3907,5.3931,5.4849,5.5639,5.624,5.67,5.7357,5.8215,5.8215,5.8382,5.8716,5.8716,5.8716,5.8716,5.8716,5.8716,5.8679,5.8345,5.8215,5.8159,5.7843,5.7713,5.7546,5.6246,5.5763,5.5707,0.0,0.0,0.0,0.0,0.0,0.0,0.0,0.0,0.0,0.0,0.0,0.0,0.0,0.0,0.0,0.0,0.0,0.0,0.0,4.1634,4.1939,4.2606,4.2633,4.2732,4.2912,4.2912,4.2912,4.2912,4.2912,4.2912,4.2912,4.2912,4.2912,4.2973,4.3487,4.3741,4.3775,4.4333,4.4615,4.4615,4.4615,4.4615,4.4615,4.4615,4.4615,4.4626,4.4765,4.4831,0.0,0.0,4.5485,4.591,4.6291,4.689,4.7563,4.8008,4.9005,5.005,5.0637,0.0,0.0,5.1132,5.1738,5.2325,5.2325,5.2784,5.3185,5.3185,5.339,5.3537,5.3537,5.372,5.4051,5.4638,5.473,5.4932,5.5522,5.5614,5.5614,5.5614,5.5614,5.5133,5.3977,5.3867,5.3867,5.3867,5.3867,5.3867,5.3867,5.4418,5.4751,5.4773,5.5739,5.6565,5.7217,5.7629,5.8122,5.8716,5.8716,5.8716,5.8716,5.8716,5.8716,5.8716,5.8716,5.8716,5.8716,5.8716,5.8716,5.8716,5.8716,5.8716,5.8568,5.7398,5.6822,5.6599,0.0,0.0,0.0,0.0,0.0,0.0,0.0,0.0,0.0,0.0,0.0,0.0,0.0,0.0,0.0,0.0,0.0,0.0,0.0,4.2456,4.2766,4.3446,4.3475,4.3802,4.4502,4.453,4.453,4.453,4.453,4.453,4.453,4.453,4.453,4.453,4.4564,4.4564,4.4581,4.4598,4.4615,4.4615,4.4615,4.4615,4.4615,4.4615,4.4615,4.4626,4.4765,0.0,0.0,0.0,4.5632,4.6284,4.6724,4.7204,0.0,4.916,5.0123,0.0,0.0,0.0,5.1958,5.1958,5.2564,5.317,5.317,5.3167,5.3185,5.3185,5.383,5.4363,5.4363,5.4987,5.5559,5.5556,5.5556,5.5578,5.5614,5.5614,5.5614,5.5614,5.5614,5.5596,0.0,5.5519,5.5519,5.5519,5.5519,5.5519,5.5519,5.5559,5.5621,5.5745,5.6667,5.7199,5.7286,5.8208,5.8679,5.8716,5.8716,5.8716,5.8716,5.8716,5.8716,5.8716,5.8716,5.8716,5.8716,5.8716,5.8716,5.8716,5.8716,5.8716,5.8698,5.8661,5.8141,5.736,0.0,0.0,0.0,0.0,0.0,0.0,0.0,0.0,0.0,0.0,0.0,0.0,0.0,0.0,0.0,0.0,0.0,0.0,0.0,4.1575,4.1917,4.28,4.2769,4.3075,4.3839,4.3869,4.4105,4.4615,4.4615,4.4615,4.4615,4.4615,4.4615,4.4615,4.4615,4.4338,4.3869,4.3869,4.3869,4.3869,4.3869,4.4179,4.4615,4.4615,4.4615,4.4626,0.0,0.0,0.0,0.0,0.0,0.0,4.6863,0.0,0.0,5.0763,0.0,0.0,0.0,0.0,5.2803,5.2803,5.3004,5.3185,5.3185,5.3185,5.3353,5.3904,5.4216,5.4564,5.5097,5.5409,5.5757,5.6308,5.64,5.6583,5.7116,5.7189,5.7189,5.7189,5.7189,0.0,0.0,0.0,0.0,5.5614,5.5614,5.5614,5.5614,5.6106,5.6422,5.6463,5.7453,5.8008,5.8033,5.8482,5.8716,5.8716,5.8716,5.8716,5.8716,5.8716,5.8716,5.8716,5.8716,5.8716,5.8716,5.8716,5.8716,5.8716,5.8716,5.8716,5.8716,5.8716,5.8531,5.8271,0.0,0.0,0.0,0.0,0.0,0.0,0.0,0.0,0.0,0.0,0.0,0.0,0.0,0.0,0.0,0.0,0.0,0.0,0.0,0.0,4.1142,4.2013,4.2013,4.2363,4.3136,4.3136,4.3363,4.3856,4.3856,4.3856,4.3856,4.3856,4.3856,4.3856,4.3856,4.3604,4.3136,4.3136,4.33,4.3514,4.3492,4.3948,4.4594,4.4615,4.4615,0.0,0.0,0.0,0.0,0.0,0.0,0.0,0.0,0.0,0.0,0.0,0.0,0.0,0.0,5.3185,5.3185,5.3185,5.3185,5.3277,5.3573,5.3628,5.3867,5.4656,5.506,5.5427,5.5923,5.6253,5.662,5.7152,5.7226,5.7409,5.7923,5.7997,5.7997,5.7997,5.7997,5.7997,0.0,0.0,0.0,5.6455,5.6455,5.6455,5.6455,5.695,5.7226,5.7226,5.7984,5.8393,5.8393,5.859,5.8716,5.8716,5.8716,5.8716,5.8716,5.8716,5.8716,5.8716,5.8716,5.8716,5.8716,5.8716,5.8716,5.8716,5.8716,5.8716,5.8716,5.8716,5.8716,5.8716,0.0,0.0,0.0,0.0,0.0,0.0,0.0,0.0,0.0,0.0,0.0,0.0,0.0,0.0,0.0,0.0,0.0,0.0,0.0,0.0,0.0,4.1209,4.136,4.1739,4.2426,4.241,4.2458,4.2489,4.2489,4.2489,4.252,4.252,4.252,4.252,4.252,4.2489,4.2458,4.2458,4.2862,4.3492,4.3462,4.3883,4.4553,4.4596,0.0,0.0,0.0,0.0,0.0,0.0,0.0,0.0,0.0,0.0,0.0,0.0,0.0,5.3185,5.3185,5.3185,5.3185,5.3185,5.3222,5.3463,5.4234,5.4436,5.4693,5.5482,5.6271,5.6822,0.0,0.0,5.7997,5.7997,5.7997,5.7997,5.7997,5.7997,5.7997,0.0,0.0,0.0,0.0,0.0,0.0,5.7997,0.0,5.7997,5.7997,5.7997,5.7997,5.7997,5.8264,5.8393,5.8393,5.859,5.8716,5.8716,5.8716,5.8716,5.8716,5.8716,5.8716,5.8716,5.8716,5.8716,5.8716,5.8716,5.8716,5.8716,5.8716,5.8716,5.8716,5.8716,5.8716,5.8716,0.0,0.0,0.0,0.0,0.0,0.0,0.0,0.0,0.0,0.0,0.0,0.0,0.0,0.0,0.0,0.0,0.0,0.0,0.0,0.0,0.0,0.0,0.0,0.0,0.0,0.0,0.0,4.2363,4.2363,4.2395,4.252,4.252,4.252,4.252,4.252,4.2205,4.1739,4.1739,4.185,4.2074,0.0,4.316,4.3853,0.0,0.0,0.0,0.0,0.0,0.0,0.0,0.0,0.0,0.0,0.0,5.1848,0.0,0.0,5.3185,5.3185,5.3185,5.3185,5.3185,5.3665,5.4161,5.4344,5.4858,5.5519,5.6326,5.6657,5.6987,0.0,0.0,0.0,5.7997,5.7997,0.0,5.7997,5.7997,0.0,5.7997,0.0,5.7997,5.7997,5.7997,0.0,0.0,5.7997,5.7997,5.7997,5.7997,5.7997,5.7997,5.8264,5.8393,5.8393,5.859,5.8716,5.8716,5.8716,5.8716,5.8716,5.8716,5.8716,5.8716,5.8716,5.8716,5.8716,5.8716,5.8716,5.8716,5.8716,5.8716,5.8716,5.8716,5.8716,5.8716,0.0,0.0,0.0,0.0,0.0,0.0,0.0,0.0,0.0,0.0,0.0,0.0,0.0,0.0,0.0,0.0,0.0,0.0,0.0,0.0,0.0,0.0,0.0,0.0,0.0,0.0,0.0,0.0,0.0,0.0,4.1411,4.1477,4.1492,4.1426,4.1492,4.1276,4.082,4.082,0.0,0.0,0.0,0.0,0.0,0.0,0.0,0.0,0.0,0.0,0.0,0.0,0.0,4.804,4.9383,5.0805,5.216,5.2968,0.0,5.3185,5.3185,5.3185,5.3277,5.3647,5.4069,5.4583,5.5299,5.5794,5.6345,5.7171,5.7336,0.0,0.0,0.0,0.0,0.0,0.0,0.0,5.7997,5.7997,5.7997,0.0,5.7997,0.0,5.7997,5.7997,5.7997,0.0,5.7997,5.7997,5.7997,5.7997,5.7997,5.7997,5.8264,5.8437,5.8526,5.8654,5.8716,5.8716,5.8716,5.8716,5.8716,5.8716,5.8716,5.8716,0.0,5.8716,5.8716,5.8716,5.8716,5.8716,5.8716,5.8716,5.8716,5.8716,5.8716,5.8716,0.0,0.0,0.0,0.0,0.0,0.0,0.0,0.0,0.0,0.0,0.0,0.0,0.0,0.0,0.0,0.0,0.0,0.0,0.0,0.0,0.0,0.0,0.0,0.0,0.0,0.0,0.0,0.0,0.0,0.0,0.0,0.0,0.0,0.0,0.0,0.0,0.0,0.0,0.0,0.0,0.0,0.0,0.0,0.0,0.0,0.0,0.0,0.0,0.0,0.0,4.7272,4.8083,4.938,5.082,5.2166,5.2944,5.3185,5.3185,5.3185,5.3277,5.3537,5.4234,5.4564,5.5078,5.6492,5.6895,5.7171,5.785,0.0,5.7997,5.7997,5.7997,5.7997,5.7997,0.0,5.7997,5.7997,5.7997,5.7997,5.7997,5.7997,5.7997,5.7997,5.7997,5.7997,5.7997,5.7997,5.7997,5.7997,5.7997,5.7997,5.802,5.8264,5.8502,5.8656,5.8677,5.8716,5.8716,5.8716,5.8716,5.8716,5.8716,5.8716,5.8716,5.8716,0.0,5.8716,5.8716,5.8716,5.8716,5.8716,5.8716,5.8716,5.8716,5.8716,5.8716,0.0,0.0,0.0,0.0,0.0,0.0,0.0,0.0,0.0,0.0,0.0,0.0,0.0,0.0,0.0,0.0,0.0,0.0,0.0,0.0,0.0,0.0,0.0,0.0,0.0,0.0,0.0,0.0,0.0,0.0,0.0,0.0,0.0,0.0,0.0,0.0,0.0,0.0,0.0,0.0,0.0,0.0,0.0,0.0,0.0,0.0,0.0,0.0,0.0,0.0,4.766,4.8817,4.956,5.0844,5.22,5.2839,5.3103,5.3185,5.3185,5.3702,5.4234,5.4363,5.5409,5.6473,5.6748,5.7317,0.0,0.0,0.0,5.7997,5.7997,5.7997,0.0,5.7997,0.0,0.0,0.0,0.0,5.7997,0.0,0.0,0.0,0.0,0.0,0.0,0.0,0.0,5.7997,5.7997,5.7997,5.8042,5.8174,5.8327,5.844,5.8532,5.8635,5.8716,5.8716,5.8716,5.8716,5.8716,5.8716,5.8716,5.8716,5.8716,0.0,5.8716,5.8716,5.8716,5.8716,5.8716,5.8716,5.8716,5.8716,5.8716,5.8716,0.0,0.0,0.0,0.0,0.0,0.0,0.0,0.0,0.0,0.0,0.0,0.0,0.0,0.0,0.0,0.0,0.0,0.0,0.0,0.0,0.0,0.0,0.0,0.0,0.0,0.0,0.0,0.0,0.0,0.0,0.0,0.0,0.0,0.0,0.0,0.0,0.0,0.0,0.0,0.0,0.0,0.0,0.0,0.0,0.0,0.0,0.0,0.0,0.0,0.0,4.8392,4.9004,4.9259,5.0602,5.2159,5.2445,5.2853,5.3185,5.3185,5.3794,5.4491,5.4913,5.5923,5.6914,5.7336,0.0,0.0,0.0,5.7997,5.7997,5.7997,0.0,0.0,0.0,0.0,0.0,0.0,0.0,0.0,0.0,0.0,0.0,0.0,0.0,0.0,0.0,0.0,5.7997,5.7997,5.7997,5.8065,5.8197,5.8327,5.844,5.8511,5.8635,5.8716,5.8716,5.8716,5.8716,5.8716,5.8716,5.8716,5.8716,5.8716,0.0,5.8716,5.8716,5.8716,5.8716,5.8716,5.8716,5.8716,5.8716,5.8716,5.8716,0.0,0.0,0.0,0.0,0.0,0.0,0.0,0.0,0.0,0.0,0.0,0.0,0.0,0.0,0.0,0.0,0.0,0.0,0.0,0.0,0.0,0.0,0.0,0.0,0.0,0.0,0.0,0.0,0.0,0.0,0.0,0.0,0.0,0.0,0.0,0.0,0.0,0.0,0.0,0.0,0.0,0.0,0.0,0.0,0.0,0.0,0.0,0.0,0.0,0.0,4.9001,4.9006,4.893,5.0198,5.1692,5.185,5.2417,5.2959,5.3017,5.3818,5.4803,5.5427,5.6326,5.7226,5.785,5.7997,0.0,0.0,5.7997,5.7997,5.7997,0.0,0.0,0.0,0.0,0.0,0.0,0.0,0.0,0.0,0.0,0.0,0.0,0.0,0.0,0.0,0.0,0.0,5.7997,5.7997,5.8042,5.8152,5.8305,5.8396,5.8486,5.8593,5.8656,5.8716,5.8716,5.8716,5.8716,5.8716,5.8716,5.8716,5.8716,0.0,0.0,5.8716,5.8716,5.8716,5.8716,5.8716,5.8716,5.8716,5.8716,5.8716,0.0,0.0,0.0,0.0,0.0,0.0,0.0,0.0,0.0,0.0,0.0,0.0,0.0,0.0,0.0,0.0,0.0,0.0,0.0,0.0,0.0,0.0,0.0,0.0,0.0,0.0,0.0,0.0,0.0,0.0,0.0,0.0,0.0,0.0,0.0,0.0,0.0,0.0,0.0,0.0,0.0,0.0,0.0,0.0,0.0,0.0,0.0,0.0,0.0,0.0,0.0,4.8984,4.8992,4.9524,5.0324,5.107,0.0,0.0,5.2412,5.394,5.55,5.5596,5.6748,5.7905,5.7978,0.0,0.0,5.7997,5.7997,5.7997,5.7997,5.7997,0.0,0.0,0.0,5.7997,0.0,0.0,0.0,0.0,0.0,0.0,0.0,0.0,0.0,0.0,0.0,0.0,5.7997,5.7997,5.7997,5.802,5.8152,5.8264,5.8415,5.8486,5.8574,5.8716,5.8716,5.8716,5.8716,5.8716,5.8716,5.8716,5.8716,0.0,0.0,5.8716,5.8716,5.8716,5.8716,5.8716,5.8716,5.8716,5.8716,5.8716,0.0,0.0,0.0,0.0,0.0,0.0,0.0,0.0,0.0,0.0,0.0,0.0,0.0,0.0,0.0,0.0,0.0,0.0,0.0,0.0,0.0,0.0,0.0,0.0,0.0,0.0,0.0,0.0,0.0,0.0,0.0,0.0,0.0,0.0,0.0,0.0,0.0,0.0,0.0,0.0,0.0,0.0,0.0,0.0,0.0,0.0,0.0,0.0,0.0,0.0,0.0,0.0,4.9001,4.9182,0.0,0.0,5.1025,5.171,5.2125,5.3647,5.5199,5.5507,5.6804,5.7997,5.7997,0.0,0.0,5.7997,5.7997,5.7997,5.7997,5.7997,5.7997,0.0,0.0,0.0,0.0,0.0,0.0,0.0,0.0,0.0,0.0,0.0,0.0,0.0,0.0,0.0,5.7997,5.7997,5.7997,5.7997,5.8129,5.8264,5.8393,5.8465,5.8553,5.8716,5.8716,5.8716,5.8716,5.8716,5.8716,5.8716,5.8716,0.0,0.0,5.8716,5.8716,5.8716,5.8716,5.8716,5.8716,5.8716,5.8716,5.8716,0.0,0.0,0.0,0.0,0.0,0.0,0.0,0.0,0.0,0.0,0.0,0.0,0.0,0.0,0.0,0.0,0.0,0.0,0.0,0.0,0.0,0.0,0.0,0.0,0.0,0.0,0.0,0.0,0.0,0.0,0.0,0.0,0.0,0.0,0.0,0.0,0.0,0.0,0.0,0.0,0.0,0.0,0.0,0.0,0.0,0.0,0.0,0.0,0.0,0.0,0.0,0.0,0.0,0.0,0.0,0.0,5.0369,5.113,5.171,5.3123,5.4584,5.5096,5.6455,5.7648,0.0,0.0,5.7997,5.7997,5.7997,5.7997,5.7997,5.7997,5.7997,5.7997,0.0,5.7997,0.0,0.0,0.0,0.0,0.0,0.0,0.0,0.0,0.0,0.0,0.0,0.0,5.7997,5.7997,5.7997,5.7997,5.8088,5.8197,5.8349,5.844,5.8529,5.8635,5.8677,5.8716,5.8716,5.8716,5.8716,5.8716,5.8716,0.0,0.0,5.8716,5.8716,5.8716,5.8716,5.8716,5.8716,5.8716,5.8716,5.8716,0.0,0.0,0.0,0.0,0.0,0.0,0.0,0.0,0.0,0.0,0.0,0.0,0.0,0.0,0.0,0.0,0.0,0.0,0.0,0.0,0.0,0.0,0.0,0.0,0.0,0.0,0.0,0.0,0.0,0.0,0.0,0.0,0.0,0.0,0.0,0.0,0.0,0.0,0.0,0.0,0.0,0.0,0.0,0.0,0.0,0.0,0.0,0.0,0.0,0.0,0.0,0.0,0.0,0.0,0.0,0.0,4.9727,5.047,5.113,5.2436,5.3743,5.429,5.5629,5.6822,0.0,0.0,5.7997,5.7997,5.7997,5.7997,5.7997,5.7997,5.7997,5.7997,5.7997,0.0,0.0,0.0,0.0,0.0,0.0,0.0,0.0,0.0,0.0,0.0,0.0,0.0,5.7997,5.7997,5.7997,5.7997,5.7997,5.8065,5.8197,5.8349,5.844,5.8511,5.8635,5.8716,5.8716,5.8716,5.8716,0.0,0.0,0.0,0.0,5.8716,5.8716,5.8716,5.8716,5.8716,5.8716,5.8716,5.8716,5.8716,0.0,0.0,0.0,0.0,0.0,0.0,0.0,0.0,0.0,0.0,0.0,0.0,0.0,0.0,0.0,0.0,0.0,0.0,0.0,0.0,0.0,0.0,0.0,0.0,0.0,0.0,0.0,0.0,0.0,0.0,0.0,0.0,0.0,0.0,0.0,0.0,0.0,0.0,0.0,0.0,0.0,0.0,0.0,0.0,0.0,0.0,0.0,0.0,0.0,0.0,0.0,0.0,0.0,0.0,0.0,0.0,0.0,0.0,5.0415,5.1696,5.301,5.3684,5.493,5.5978,5.5978,0.0,5.6345,5.6345,5.6804,5.7189,5.7189,5.7629,5.7997,5.7997,5.7997,0.0,0.0,0.0,0.0,0.0,0.0,0.0,0.0,0.0,0.0,0.0,0.0,0.0,5.7997,5.7997,5.7997,5.7997,5.7997,5.8065,5.8197,5.8242,5.8334,5.8511,5.8532,5.8614,5.8716,5.8716,5.8716,0.0,0.0,0.0,0.0,5.8614,5.8614,5.8716,5.8716,5.8716,5.8716,5.8716,5.8716,5.8716,0.0,0.0,0.0,0.0,0.0,0.0,0.0,0.0,0.0,0.0,0.0,0.0,0.0,0.0,0.0,0.0,0.0,0.0,0.0,0.0,0.0,0.0,0.0,0.0,0.0,0.0,0.0,0.0,0.0,0.0,0.0,0.0,0.0,0.0,0.0,0.0,0.0,0.0,0.0,0.0,0.0,0.0,0.0,0.0,0.0,0.0,0.0,0.0,0.0,0.0,0.0,0.0,0.0,0.0,0.0,0.0,0.0,0.0,0.0,5.1021,5.196,5.2906,5.4004,0.0,0.0,0.0,5.5614,5.5614,5.5996,5.6436,5.6748,5.7207,5.7648,5.7941,0.0,0.0,0.0,0.0,0.0,0.0,0.0,0.0,0.0,0.0,0.0,0.0,0.0,0.0,5.7997,5.7997,5.7997,5.7997,5.7997,5.8042,5.8111,5.8174,5.8246,5.84,5.8468,5.8532,5.8635,5.8696,5.8656,0.0,0.0,0.0,0.0,5.8486,5.8508,5.859,5.8614,5.8593,5.859,5.8614,5.8635,5.8635,0.0,0.0,0.0,0.0,0.0,0.0,0.0,0.0,0.0,0.0,0.0,0.0,0.0,0.0,0.0,0.0,0.0,0.0,0.0,0.0,0.0,0.0,0.0,0.0,0.0,0.0,0.0,0.0,4.247,0.0,0.0,0.0,0.0,0.0,0.0,0.0,0.0,0.0,0.0,0.0,0.0,0.0,0.0,0.0,0.0,0.0,0.0,0.0,0.0,0.0,0.0,0.0,0.0,0.0,0.0,0.0,0.0,0.0,0.0,0.0,0.0,0.0,0.0,0.0,0.0,0.0,0.0,5.5449,5.5522,5.5831,5.6583,5.6822,5.7134,0.0,0.0,0.0,0.0,0.0,0.0,0.0,0.0,0.0,0.0,0.0,0.0,0.0,0.0,0.0,5.7997,5.7997,5.7997,5.7997,5.7997,5.7997,5.7997,5.8111,5.8197,5.8197,5.84,5.8489,5.8511,5.8635,5.8614,0.0,0.0,0.0,0.0,5.8393,5.8393,5.8415,5.8465,5.8443,5.8415,5.8465,5.8489,5.8489,0.0,0.0,0.0,0.0,0.0,0.0,0.0,0.0,0.0,0.0,0.0,0.0,0.0,0.0,0.0,0.0,0.0,0.0,0.0,0.0,0.0,0.0,0.0,0.0,0.0,0.0,0.0,0.0,0.0,0.0,0.0,0.0,0.0,0.0,0.0,0.0,0.0,0.0,0.0,0.0,0.0,0.0,0.0,0.0,0.0,0.0,4.4526,4.5468,0.0,0.0,0.0,0.0,0.0,0.0,0.0,0.0,4.9001,0.0,0.0,0.0,0.0,0.0,0.0,0.0,0.0,0.0,0.0,0.0,0.0,0.0,0.0,0.0,0.0,0.0,0.0,0.0,0.0,0.0,0.0,0.0,0.0,0.0,0.0,0.0,0.0,0.0,0.0,5.7997,5.7997,5.7997,5.7997,5.7997,5.7997,5.7997,5.7997,5.802,5.8088,5.8197,5.8264,5.8356,5.8511,5.8532,5.8532,0.0,0.0,0.0,5.8393,5.8305,5.8305,5.8393,5.8415,5.8415,5.8393,5.8415,5.8418,5.8418,0.0,0.0,0.0,0.0,0.0,0.0,0.0,0.0,0.0,0.0,0.0,0.0,0.0,0.0,0.0,0.0,0.0,0.0,0.0,0.0,0.0,0.0,0.0,0.0,0.0,0.0,0.0,0.0,0.0,0.0,0.0,0.0,0.0,0.0,0.0,0.0,0.0,0.0,0.0,0.0,0.0,0.0,0.0,0.0,0.0,0.0,4.4058,4.4909,0.0,4.6763,4.7721,4.8545,0.0,0.0,0.0,0.0,4.9001,4.9063,4.9428,4.9703,0.0,0.0,0.0,0.0,0.0,0.0,0.0,0.0,0.0,0.0,0.0,0.0,0.0,0.0,0.0,0.0,0.0,0.0,0.0,0.0,0.0,0.0,0.0,0.0,0.0,0.0,0.0,5.7997,5.7997,5.7997,5.7997,5.7997,5.7997,5.7997,5.7997,5.7997,5.8042,5.8106,5.8174,5.8264,5.8359,5.8422,5.8422,0.0,0.0,0.0,5.8219,5.8152,5.8152,5.8219,5.8264,5.8264,5.8219,5.8305,5.8305,5.8305,0.0,0.0,0.0,0.0,0.0,0.0,0.0,0.0,0.0,0.0,0.0,0.0,0.0,0.0,0.0,0.0,0.0,0.0,0.0,0.0,0.0,0.0,0.0,0.0,0.0,0.0,0.0,0.0,0.0,0.0,0.0,0.0,0.0,0.0,0.0,0.0,0.0,0.0,0.0,0.0,0.0,0.0,0.0,0.0,0.0,0.0,0.0,0.0,0.0,4.6166,4.7103,4.8032,4.8767,0.0,0.0,0.0,0.0,0.0,4.9428,4.9518,4.9837,5.1244,5.1601,0.0,0.0,0.0,0.0,0.0,0.0,0.0,0.0,0.0,0.0,0.0,0.0,0.0,0.0,0.0,0.0,0.0,0.0,0.0,0.0,0.0,0.0,0.0,0.0,5.7997,5.7997,5.7997,5.7997,5.7997,5.7997,5.7997,5.7997,5.7997,5.7997,5.7997,5.8129,5.8174,5.8197,5.8327,5.8305,5.8197,0.0,0.0,5.7997,5.7997,5.7997,5.802,5.8129,5.8088,5.802,5.8129,5.8174,5.8174,0.0,0.0,0.0,0.0,0.0,0.0,0.0,0.0,0.0,0.0,0.0,0.0,0.0,0.0,0.0,0.0,0.0,0.0,0.0,0.0,0.0,0.0,0.0,0.0,0.0,0.0,0.0,0.0,0.0,0.0,0.0,0.0,0.0,0.0,0.0,0.0,0.0,4.329,4.329,4.329,0.0,0.0,0.0,0.0,0.0,0.0,0.0,0.0,0.0,4.5992,4.6968,4.8032,4.8767,0.0,0.0,0.0,0.0,0.0,4.9428,4.9518,4.9837,5.1244,5.1601,5.1891,0.0,0.0,0.0,0.0,0.0,0.0,0.0,0.0,0.0,0.0,0.0,0.0,0.0,0.0,0.0,0.0,0.0,0.0,0.0,0.0,0.0,0.0,0.0,5.7997,5.7997,5.7997,5.7997,5.7997,5.7997,5.7997,5.7997,5.7997,5.7997,5.7997,5.802,5.8088,5.8197,5.8219,5.8219,5.8197,0.0,5.8111,5.7997,5.7997,5.7997,5.7997,5.802,5.802,5.7997,5.802,5.802,5.802,0.0,0.0,0.0,0.0,0.0,0.0,0.0,0.0,0.0,0.0,0.0,0.0,0.0,0.0,0.0,0.0,0.0,0.0,0.0,0.0,0.0,0.0,0.0,0.0,0.0,0.0,0.0,0.0,0.0,0.0,0.0,0.0,0.0,0.0,0.0,0.0,0.0,4.329,4.329,4.329,0.0,0.0,0.0,0.0,0.0,0.0,0.0,0.0,0.0,0.0,4.6694,4.7489,4.8656,0.0,0.0,0.0,0.0,0.0,4.9428,4.9518,4.9837,5.1244,5.1601,5.1891,5.2974,5.3185,0.0,0.0,0.0,0.0,0.0,0.0,0.0,0.0,0.0,0.0,0.0,0.0,0.0,0.0,0.0,0.0,0.0,0.0,0.0,0.0,0.0,0.0,5.7997,5.7997,5.7997,5.7997,5.7997,5.7997,5.7997,5.7997,5.7997,5.7997,5.7997,5.802,5.8088,5.8088,5.8088,5.8088,0.0,5.8042,5.7997,5.7997,5.7997,5.7997,5.7997,5.7997,5.7997,5.7997,5.7997,5.7997,0.0,0.0,0.0,0.0,0.0,0.0,0.0,0.0,0.0,0.0,0.0,0.0,0.0,0.0,0.0,0.0,0.0,0.0,0.0,0.0,0.0,0.0,0.0,0.0,0.0,0.0,0.0,0.0,0.0,0.0,0.0,0.0,0.0,0.0,0.0,0.0,0.0,4.329,4.329,4.329,0.0,0.0,0.0,0.0,0.0,0.0,0.0,0.0,0.0,0.0,0.0,0.0,0.0,0.0,0.0,4.9001,4.9001,4.9063,4.9428,4.9518,4.9837,5.1244,0.0,5.1891,5.2974,5.3185,0.0,0.0,0.0,0.0,0.0,0.0,0.0,0.0,0.0,0.0,0.0,0.0,0.0,0.0,0.0,0.0,0.0,0.0,0.0,0.0,0.0,0.0,5.7997,5.7997,5.7997,5.7997,5.7997,5.7997,5.7997,5.7997,5.7997,5.7997,5.7997,5.7997,5.7997,5.7997,5.7997,5.7997,5.7997,5.7997,5.7997,5.7997,5.7997,5.7997,5.7997,5.7997,5.7997,5.7997,5.7997,5.7997,0.0,0.0,0.0,0.0,0.0,0.0,0.0,0.0,0.0,0.0,0.0,0.0,0.0,0.0,0.0,0.0,0.0,0.0,0.0,0.0,0.0,0.0,0.0,0.0,0.0,0.0,0.0,0.0,0.0,0.0,0.0,0.0,0.0,0.0,0.0,0.0,0.0,4.329,4.329,4.329,4.329,0.0,0.0,0.0,0.0,0.0,0.0,0.0,0.0,0.0,0.0,0.0,0.0,0.0,0.0,4.9001,4.9001,4.9063,4.9428,4.9518,4.9837,5.1244,5.1601,0.0,5.2974,5.3185,0.0,5.3185,0.0,0.0,0.0,0.0,0.0,0.0,0.0,0.0,0.0,0.0,0.0,0.0,0.0,0.0,0.0,0.0,0.0,0.0,0.0,0.0,5.7997,5.7997,5.7997,5.7997,5.7997,5.7997,5.7997,5.7997,5.7997,5.7997,5.7997,5.7997,5.7997,5.7997,5.7997,5.7997,5.7997,5.7997,5.7997,5.7997,5.7997,5.7997,5.7997,5.7997,5.7997,5.7997,5.7997,5.7997,0.0,0.0,0.0,0.0,0.0,0.0,0.0,0.0,0.0,0.0,0.0,0.0,0.0,0.0,0.0,0.0,0.0,0.0,0.0,0.0,0.0,0.0,0.0,0.0,0.0,0.0,0.0,0.0,0.0,0.0,0.0,0.0,0.0,0.0,0.0,0.0,0.0,4.329,4.329,4.329,4.329,4.329,0.0,0.0,0.0,0.0,0.0,0.0,0.0,0.0,4.6622,0.0,0.0,0.0,0.0,0.0,4.9001,4.9063,4.9428,4.9518,4.975,5.0839,5.1365,0.0,0.0,5.3185,5.3185,5.3185,5.4473,0.0,0.0,0.0,0.0,0.0,0.0,0.0,0.0,0.0,0.0,0.0,0.0,0.0,0.0,0.0,0.0,0.0,0.0,0.0,5.7997,5.7997,5.7997,5.7997,5.7997,5.7997,5.7997,5.7997,5.7997,5.7997,5.7997,5.7997,5.7997,5.7997,5.7997,5.7997,5.7997,5.7997,5.7997,5.7997,5.7997,5.7997,5.7997,5.7997,5.7997,5.7997,5.7997,5.7997,0.0,0.0,0.0,0.0,0.0,0.0,0.0,0.0,0.0,0.0,0.0,0.0,0.0,0.0,0.0,0.0,0.0,0.0,0.0,0.0,0.0,0.0,0.0,0.0,0.0,0.0,0.0,0.0,0.0,0.0,0.0,0.0,0.0,0.0,0.0,0.0,0.0,0.0,4.3384,4.329,4.329,4.329,0.0,0.0,0.0,0.0,0.0,0.0,0.0,0.0,0.0,0.0,0.0,0.0,0.0,0.0,4.9001,4.9063,4.9428,4.9518,4.9708,0.0,0.0,0.0,5.2739,5.3082,5.3185,5.3185,0.0,0.0,0.0,0.0,0.0,0.0,0.0,0.0,0.0,0.0,0.0,0.0,0.0,0.0,0.0,0.0,0.0,0.0,0.0,0.0,0.0,5.7997,5.7997,5.7997,5.7997,5.7997,5.7997,5.7997,5.7997,5.7997,5.7997,5.7997,5.7997,5.7997,5.7997,5.7997,5.7997,5.7997,5.7997,5.7997,5.7997,5.7997,5.7997,5.7997,5.7997,5.7997,5.7886,5.7726,0.0,0.0,0.0,0.0,0.0,0.0,0.0,0.0,0.0,0.0,0.0,0.0,0.0,0.0,0.0,0.0,0.0,0.0,0.0,0.0,0.0,0.0,0.0,0.0,0.0,0.0,0.0,0.0,0.0,0.0,0.0,0.0,0.0,0.0,0.0,0.0,0.0,0.0,4.3557,4.329,4.329,4.329,4.329,0.0,0.0,0.0,0.0,0.0,0.0,0.0,4.6182,4.6914,0.0,0.0,0.0,4.9001,4.9001,4.9063,4.9428,4.9518,0.0,0.0,0.0,0.0,5.2268,5.2806,5.3185,5.3203,0.0,0.0,0.0,0.0,0.0,0.0,0.0,0.0,0.0,0.0,0.0,0.0,0.0,0.0,0.0,0.0,0.0,0.0,0.0,0.0,0.0,5.7997,5.7997,5.7997,5.7997,5.7997,5.7997,5.7997,5.7997,5.7997,5.7997,5.7997,5.7997,5.7997,5.7997,5.7997,5.7997,5.7997,5.7997,5.7997,5.7997,5.7997,5.7997,5.7997,5.7973,5.7973,5.7613,5.7091,0.0,0.0,0.0,0.0,0.0,0.0,0.0,0.0,0.0,0.0,0.0,0.0,0.0,0.0,0.0,0.0,0.0,0.0,0.0,0.0,0.0,0.0,0.0,0.0,0.0,0.0,0.0,0.0,0.0,0.0,0.0,0.0,0.0,4.391,0.0,0.0,0.0,0.0,4.3871,4.3778,4.3778,4.3778,4.3778,0.0,0.0,0.0,0.0,0.0,0.0,0.0,0.0,0.0,0.0,0.0,0.0,4.9001,4.9001,4.9063,4.9428,0.0,0.0,0.0,0.0,0.0,0.0,5.254,0.0,0.0,0.0,0.0,0.0,0.0,0.0,0.0,0.0,0.0,0.0,0.0,0.0,0.0,0.0,0.0,0.0,0.0,0.0,0.0,0.0,0.0,0.0,5.7997,5.7997,5.7997,5.7997,5.7997,5.7997,5.7997,5.7997,5.7997,5.7997,5.7997,5.7997,5.7997,5.7997,5.7997,5.7997,5.7997,5.7997,5.7997,5.775,5.7358,5.7358,5.7134,5.6809,5.6809,5.6704,5.6546,0.0,0.0,0.0,0.0,0.0,0.0,0.0,0.0,0.0,0.0,0.0,0.0,0.0,0.0,0.0,0.0,0.0,0.0,0.0,0.0,0.0,0.0,0.0,0.0,0.0,0.0,0.0,0.0,0.0,0.0,0.0,0.0,0.0,4.4127,0.0,0.0,0.0,0.0,4.405,4.3988,4.3988,4.3988,4.3988,0.0,0.0,0.0,0.0,0.0,0.0,0.0,0.0,0.0,4.7322,0.0,0.0,4.9001,4.9001,4.9063,4.9428,0.0,0.0,0.0,0.0,0.0,0.0,0.0,0.0,0.0,0.0,0.0,0.0,0.0,0.0,0.0,0.0,0.0,0.0,0.0,0.0,0.0,0.0,0.0,0.0,0.0,0.0,0.0,0.0,0.0,0.0,5.7997,5.7997,5.7997,5.7997,5.7886,5.7637,5.7637,5.754,5.7327,5.7327,5.7327,5.7327,5.754,5.754,5.7327,5.7327,5.7327,5.7327,5.7327,5.7109,5.6765,5.6765,5.6581,5.6303,5.6303,5.6138,5.5943,0.0,0.0,0.0,0.0,0.0,0.0,0.0,0.0,0.0,0.0,0.0,0.0,0.0,0.0,0.0,0.0,0.0,0.0,0.0,0.0,0.0,0.0,0.0,0.0,0.0,0.0,0.0,0.0,0.0,0.0,0.0,0.0,4.432,4.4358,0.0,4.4511,0.0,0.0,4.4205,4.4065,4.4065,4.4065,4.4065,4.4065,0.0,0.0,0.0,0.0,0.0,0.0,0.0,0.0,4.6777,4.777,4.8909,4.897,4.9001,4.9063,0.0,0.0,0.0,0.0,0.0,0.0,0.0,0.0,0.0,0.0,0.0,0.0,0.0,0.0,0.0,0.0,0.0,0.0,0.0,0.0,0.0,0.0,0.0,0.0,0.0,0.0,0.0,0.0,0.0,0.0,0.0,5.795,5.7909,5.7909,5.7862,5.7589,5.7022,5.704,5.6765,5.6303,5.6303,5.6276,5.6248,5.6765,5.6765,5.6303,5.6303,5.6303,5.6303,5.6303,5.6276,5.6221,5.6221,5.6193,5.6138,5.6138,5.5773,5.5313,0.0,0.0,0.0,0.0,0.0,0.0,0.0,0.0,0.0,0.0,0.0,0.0,0.0,0.0,0.0,0.0,0.0,0.0,0.0,0.0,0.0,0.0,0.0,0.0,0.0,0.0,0.0,0.0,0.0,0.0,0.0,0.0,0.0,4.4549,0.0,4.4587,0.0,4.4549,4.4511,4.4473,4.4473,4.4473,4.4473,4.4473,4.4473,0.0,0.0,0.0,0.0,0.0,0.0,0.0,4.6604,4.7422,4.8242,4.8829,4.9001,0.0,0.0,0.0,0.0,0.0,0.0,0.0,0.0,0.0,0.0,0.0,0.0,0.0,0.0,0.0,0.0,0.0,0.0,0.0,0.0,0.0,0.0,0.0,0.0,0.0,0.0,0.0,0.0,0.0,0.0,0.0,5.7997,5.7546,5.7309,5.7309,5.6887,5.6599,5.6474,5.6474,5.6412,0.0,5.6303,5.6055,5.5601,5.6203,5.6412,5.6303,5.6303,5.6303,5.6303,5.6303,5.6027,5.5589,5.5589,5.5313,5.4896,5.4896,5.4803,5.4697,0.0,0.0,0.0,0.0,0.0,0.0,0.0,0.0,0.0,0.0,0.0,0.0,0.0,0.0,0.0,0.0,0.0,0.0,0.0,0.0,0.0,0.0,0.0,0.0,0.0,0.0,0.0,0.0,0.0,0.0,0.0,0.0,0.0,4.461,0.0,4.461,4.461,4.461,4.461,4.461,4.461,4.461,4.461,4.461,4.461,4.461,4.461,0.0,0.0,0.0,0.0,0.0,0.0,0.0,4.7999,4.837,4.8719,0.0,0.0,0.0,0.0,0.0,0.0,0.0,0.0,0.0,0.0,0.0,0.0,0.0,0.0,0.0,0.0,0.0,0.0,0.0,0.0,0.0,0.0,0.0,0.0,0.0,0.0,0.0,0.0,0.0,0.0,5.7886,5.757,5.7284,5.6971,5.6731,5.6465,5.6166,5.5858,5.5858,5.5716,5.5443,5.5443,5.5284,5.497,5.5284,5.5443,5.5443,5.5443,5.5443,5.5443,5.5443,5.5254,5.4987,5.4987,5.479,5.4512,5.4512,5.4512,5.4512,0.0,0.0,0.0,0.0,0.0,0.0,0.0,0.0,0.0,0.0,0.0,0.0,0.0,0.0,0.0,0.0,0.0,0.0,0.0,0.0,0.0,0.0,0.0,0.0,0.0,0.0,0.0,0.0,0.0,0.0,0.0,0.0,0.0,4.461,0.0,0.0,4.461,4.461,4.461,4.461,4.461,4.461,4.461,4.461,4.461,4.461,0.0,0.0,4.461,4.461,0.0,0.0,0.0,0.0,4.7572,4.7819,0.0,0.0,0.0,0.0,0.0,0.0,0.0,0.0,0.0,0.0,0.0,0.0,0.0,0.0,0.0,0.0,0.0,0.0,0.0,0.0,0.0,0.0,0.0,0.0,0.0,0.0,0.0,0.0,0.0,0.0,0.0,5.775,5.7141,5.6997,5.6713,5.6166,5.6055,5.5744,5.5254,5.5254,5.5,5.4512,5.4512,5.4512,5.4512,5.4512,5.4512,5.4512,5.4512,5.4512,5.4512,5.4512,5.4512,5.4512,5.4512,5.4512,5.4512,5.4512,5.4512,5.4512,0.0,0.0,0.0,0.0,0.0,0.0,0.0,0.0,0.0,0.0,0.0,0.0,0.0,0.0,0.0,0.0,0.0,0.0,0.0,0.0,0.0,0.0,0.0,0.0,0.0,0.0,0.0,0.0,0.0,0.0,0.0,0.0,0.0,0.0,0.0,0.0,0.0,0.0,4.461,4.461,4.461,4.461,0.0,0.0,0.0,0.0,0.0,0.0,0.0,4.461,4.4685,0.0,0.0,0.0,0.0,0.0,0.0,0.0,0.0,0.0,0.0,0.0,0.0,0.0,0.0,0.0,0.0,0.0,0.0,0.0,0.0,0.0,0.0,0.0,0.0,0.0,0.0,0.0,0.0,0.0,0.0,0.0,0.0,0.0,0.0,0.0,5.7997,5.775,5.7141,5.6678,5.6138,5.5531,5.5,5.4697,5.462,5.462,5.4589,5.4512,5.4512,5.4512,5.4512,5.4512,5.4512,5.4512,5.4512,5.4512,5.4512,5.4512,5.4512,5.4512,5.4512,5.4512,5.4512,5.4512,5.4512,5.4512,0.0,0.0,0.0,0.0,0.0,0.0,0.0,0.0,0.0,0.0,0.0,0.0,0.0,0.0,0.0,0.0,0.0,0.0,0.0,0.0,0.0,0.0,0.0,0.0,0.0,0.0,0.0,0.0,0.0,0.0,0.0,4.461,4.461,0.0,0.0,0.0,0.0,0.0,0.0,0.0,0.0,0.0,0.0,0.0,0.0,0.0,0.0,0.0,0.0,0.0,0.0,0.0,0.0,0.0,0.0,0.0,0.0,0.0,0.0,0.0,0.0,0.0,0.0,0.0,0.0,0.0,0.0,0.0,0.0,0.0,0.0,0.0,0.0,0.0,0.0,0.0,0.0,0.0,0.0,0.0,0.0,0.0,0.0,0.0,0.0,0.0,5.7498,5.7091,5.6203,5.5915,5.5531,5.4926,5.4652,5.4512,5.4512,5.4512,5.4305,5.3891,5.3891,5.3667,5.3187,5.3187,5.3684,5.4512,5.4512,5.4512,5.4512,5.4512,5.4512,5.4512,5.4512,5.4512,5.4512,5.4512,5.4512,5.448,0.0,0.0,0.0,0.0,0.0,0.0,0.0,0.0,0.0,0.0,0.0,0.0,0.0,0.0,0.0,0.0,0.0,0.0,0.0,0.0,0.0,0.0,0.0,0.0,0.0,0.0,0.0,0.0,0.0,0.0,4.461,4.461,4.461,0.0,4.461,0.0,0.0,0.0,0.0,0.0,0.0,0.0,0.0,0.0,0.0,0.0,0.0,0.0,0.0,0.0,0.0,0.0,0.0,0.0,0.0,0.0,0.0,0.0,0.0,0.0,0.0,0.0,0.0,0.0,0.0,0.0,0.0,0.0,0.0,0.0,0.0,0.0,0.0,0.0,0.0,0.0,0.0,0.0,0.0,0.0,0.0,0.0,0.0,0.0,0.0,0.0,5.6912,5.6474,5.5443,5.5385,5.5104,5.4512,5.4512,5.4512,5.4512,5.4322,5.3856,5.3115,5.3115,5.2787,5.2188,5.2188,5.2808,5.3942,5.4132,5.4236,5.4236,5.4425,5.4512,5.4512,5.4512,5.448,5.4399,5.4399,5.4399,5.4335,0.0,0.0,0.0,0.0,0.0,0.0,0.0,0.0,0.0,0.0,0.0,0.0,0.0,0.0,0.0,0.0,0.0,0.0,0.0,0.0,0.0,0.0,0.0,0.0,0.0,0.0,0.0,0.0,0.0,0.0,4.461,4.461,4.461,4.461,4.461,4.461,4.461,0.0,0.0,0.0,0.0,0.0,0.0,0.0,0.0,0.0,0.0,0.0,0.0,0.0,0.0,0.0,0.0,0.0,0.0,0.0,0.0,0.0,0.0,0.0,0.0,0.0,0.0,0.0,0.0,0.0,0.0,0.0,0.0,0.0,0.0,0.0,0.0,0.0,0.0,0.0,0.0,0.0,0.0,0.0,0.0,0.0,0.0,0.0,0.0,0.0,5.6357,5.6055,5.5443,5.5385,5.5104,5.4512,5.4512,5.4512,5.4512,5.3822,5.3063,5.2239,5.2239,5.2222,5.2188,5.2188,5.2222,5.2343,5.3132,5.346,5.3511,5.4218,5.4512,5.4512,5.4512,5.4367,5.4239,5.4239,5.4143,5.4013,0.0,0.0,0.0,0.0,0.0,0.0,0.0,0.0,0.0,0.0,0.0,0.0,0.0,0.0,0.0,0.0,0.0,0.0,0.0,0.0,0.0,0.0,0.0,0.0,0.0,0.0,0.0,0.0,0.0,4.4534,4.461,4.461,4.461,4.461,4.461,4.461,4.461,4.461,0.0,0.0,0.0,0.0,0.0,0.0,0.0,0.0,0.0,0.0,0.0,0.0,0.0,0.0,0.0,0.0,0.0,0.0,0.0,0.0,0.0,0.0,0.0,0.0,0.0,0.0,0.0,0.0,0.0,0.0,0.0,0.0,0.0,0.0,0.0,0.0,0.0,0.0,0.0,0.0,0.0,0.0,0.0,0.0,0.0,0.0,0.0,0.0,0.0,5.5443,5.4865,5.4803,5.4728,5.4512,5.4512,5.4287,5.3804,5.3529,5.277,5.1511,5.1511,5.1269,5.0804,5.0804,5.0804,5.0838,5.1597,5.2494,5.3425,5.3701,5.4018,5.4303,5.4303,5.4207,5.4078,5.4078,5.4045,5.3915,0.0,0.0,0.0,0.0,0.0,0.0,0.0,0.0,0.0,0.0,0.0,0.0,0.0,0.0,0.0,0.0,0.0,0.0,0.0,0.0,0.0,0.0,0.0,0.0,0.0,0.0,0.0,0.0,0.0,0.0,0.0,4.461,4.461,4.461,4.461,4.461,0.0,0.0,0.0,4.461,0.0,0.0,4.461,0.0,0.0,0.0,0.0,0.0,0.0,0.0,0.0,0.0,0.0,0.0,0.0,0.0,0.0,0.0,0.0,0.0,0.0,0.0,0.0,0.0,0.0,0.0,0.0,0.0,0.0,0.0,0.0,0.0,0.0,0.0,0.0,0.0,0.0,0.0,0.0,0.0,0.0,0.0,0.0,0.0,0.0,0.0,0.0,0.0,5.4543,5.4512,5.4512,5.4512,5.4512,5.4029,5.3011,5.3011,5.2235,5.0735,5.0735,5.0476,5.0011,4.9935,4.9889,4.9923,5.0121,5.1261,5.2998,5.2923,5.3246,5.3781,5.3449,5.3213,5.3094,5.3094,5.323,5.3315,0.0,0.0,0.0,0.0,0.0,0.0,0.0,0.0,0.0,0.0,0.0,0.0,0.0,0.0,0.0,0.0,0.0,0.0,0.0,0.0,0.0,0.0,0.0,0.0,0.0,0.0,0.0,0.0,0.0,0.0,0.0,0.0,4.461,0.0,4.461,4.461,4.461,0.0,4.461,4.461,0.0,4.461,4.461,0.0,0.0,0.0,4.461,4.461,0.0,0.0,0.0,0.0,0.0,0.0,0.0,0.0,0.0,0.0,0.0,0.0,0.0,0.0,0.0,0.0,0.0,0.0,0.0,0.0,0.0,0.0,0.0,0.0,0.0,0.0,0.0,0.0,0.0,0.0,0.0,0.0,0.0,0.0,0.0,0.0,0.0,0.0,5.4512,5.4512,5.4512,5.4512,5.4512,5.4512,5.4512,5.377,5.2205,5.2188,5.1447,5.0011,5.0011,4.9982,4.9982,4.9784,4.9679,4.9619,4.8796,4.9811,5.21,5.1909,5.2287,5.2857,5.1944,5.1451,5.1283,5.1283,5.17,5.2148,0.0,0.0,0.0,0.0,0.0,0.0,0.0,0.0,0.0,0.0,0.0,0.0,0.0,0.0,0.0,0.0,0.0,0.0,0.0,0.0,0.0,0.0,0.0,0.0,0.0,0.0,0.0,0.0,0.0,0.0,0.0,0.0,0.0,0.0,4.461,4.461,4.461,4.461,0.0,0.0,4.461,4.461,0.0,0.0,0.0,0.0,0.0,4.461,4.461,0.0,4.461,4.461,0.0,0.0,0.0,0.0,0.0,0.0,4.461,0.0,0.0,0.0,0.0,0.0,0.0,0.0,0.0,0.0,0.0,0.0,0.0,0.0,0.0,0.0,0.0,0.0,0.0,0.0,0.0,0.0,0.0,0.0,0.0,0.0,0.0,0.0,5.4512,5.4512,5.4512,5.4512,5.4512,5.4512,5.4512,5.377,5.2205,5.2188,5.1399,4.9784,4.9784,4.9725,4.9654,4.9577,4.9273,4.8765,4.9033,4.9525,5.0158,5.0119,5.077,5.1727,5.1488,5.1299,5.1166,5.1166,5.1257,5.1311,0.0,0.0,0.0,0.0,0.0,0.0,0.0,0.0,0.0,0.0,0.0,0.0,0.0,0.0,0.0,0.0,0.0,0.0,0.0,0.0,0.0,0.0,0.0,0.0,0.0,0.0,0.0,0.0,0.0,0.0,0.0,0.0,0.0,0.0,0.0,0.0,0.0,0.0,0.0,0.0,4.461,0.0,0.0,4.461,4.461,0.0,0.0,0.0,4.461,4.461,4.461,0.0,0.0,0.0,0.0,0.0,0.0,0.0,0.0,0.0,0.0,0.0,0.0,0.0,4.7372,4.777,4.8081,0.0,0.0,0.0,0.0,0.0,0.0,0.0,0.0,0.0,0.0,0.0,0.0,0.0,0.0,0.0,0.0,5.2598,5.3369,5.422,5.4289,5.4289,5.4289,5.4289,5.4289,5.4289,5.4289,5.3688,5.2468,5.2468,5.1651,5.0069,5.0069,4.9701,4.9043,4.8934,4.8662,4.8283,4.8275,4.8611,4.9086,4.877,4.9502,5.0741,5.0336,5.0135,5.0073,5.0073,5.0306,5.0461,0.0,0.0,0.0,0.0,0.0,0.0,0.0,0.0,0.0,0.0,0.0,0.0,0.0,0.0,0.0,0.0,0.0,0.0,0.0,0.0,0.0,0.0,0.0,0.0,0.0,0.0,0.0,0.0,0.0,0.0,0.0,0.0,0.0,0.0,0.0,0.0,0.0,0.0,0.0,4.461,4.461,4.461,0.0,0.0,4.461,0.0,4.461,4.461,4.461,4.461,4.461,0.0,0.0,0.0,0.0,0.0,4.461,0.0,0.0,0.0,0.0,0.0,0.0,0.0,4.6534,4.6742,4.6811,0.0,0.0,0.0,0.0,0.0,0.0,0.0,0.0,0.0,0.0,0.0,0.0,0.0,0.0,0.0,5.164,5.2309,5.3092,5.3929,5.398,5.398,5.398,5.398,5.398,5.398,5.398,5.3604,5.2819,5.2819,5.2087,5.0721,5.0611,4.9878,4.8555,4.8296,4.8148,4.8012,4.7246,4.7558,4.8537,4.7948,4.8587,4.9829,4.8944,4.862,4.862,4.862,4.9081,4.963,0.0,0.0,0.0,0.0,0.0,0.0,0.0,0.0,0.0,0.0,0.0,0.0,0.0,0.0,0.0,0.0,0.0,0.0,0.0,0.0,0.0,0.0,0.0,0.0,0.0,0.0,0.0,0.0,0.0,0.0,0.0,0.0,0.0,0.0,0.0,0.0,0.0,0.0,0.0,4.461,4.461,0.0,4.461,4.461,4.461,4.461,4.461,4.461,4.461,0.0,4.461,4.461,0.0,0.0,0.0,0.0,0.0,0.0,0.0,0.0,0.0,0.0,0.0,0.0,4.5877,4.6359,4.6811,0.0,0.0,0.0,0.0,0.0,0.0,0.0,0.0,0.0,0.0,0.0,0.0,0.0,0.0,0.0,5.1558,5.1736,5.2401,5.3878,5.398,5.398,5.398,5.398,5.398,5.398,5.398,5.3604,5.2819,5.2819,5.2311,5.1332,5.0655,5.0126,4.9674,4.8971,4.8325,4.7802,4.8146,4.8106,4.7837,4.823,4.8605,4.8862,4.8687,4.862,4.862,4.862,4.8687,4.8852,0.0,0.0,0.0,0.0,0.0,0.0,0.0,0.0,0.0,0.0,0.0,0.0,0.0,0.0,0.0,0.0,0.0,0.0,0.0,0.0,0.0,0.0,0.0,0.0,0.0,0.0,0.0,0.0,0.0,0.0,0.0,0.0,0.0,0.0,0.0,0.0,0.0,0.0,4.461,4.461,4.461,0.0,4.461,4.461,4.461,4.461,4.461,4.461,4.461,4.461,4.461,0.0,0.0,4.461,4.461,0.0,4.461,4.461,0.0,0.0,0.0,4.461,0.0,0.0,0.0,4.5458,4.5697,0.0,0.0,0.0,0.0,0.0,0.0,0.0,0.0,0.0,0.0,0.0,0.0,0.0,0.0,0.0,5.1289,5.1378,5.2005,5.3632,5.3751,5.3751,5.3751,5.3751,5.3751,5.3751,5.3751,5.3564,5.3156,5.3156,5.2717,5.1888,5.1095,5.0265,4.9415,4.8643,4.8032,4.7676,4.8019,4.8137,4.8127,4.8481,4.862,4.862,4.862,4.862,4.862,4.862,4.862,4.862,0.0,0.0,0.0,0.0,0.0,0.0,0.0,0.0,0.0,0.0,0.0,0.0,0.0,0.0,0.0,0.0,0.0,0.0,0.0,0.0,0.0,0.0,0.0,4.3949,0.0,0.0,0.0,0.0,0.0,0.0,0.0,0.0,0.0,0.0,0.0,0.0,0.0,0.0,0.0,4.461,0.0,4.461,4.461,4.461,4.461,4.461,4.461,4.461,4.461,4.461,0.0,4.461,4.461,4.461,0.0,0.0,0.0,0.0,0.0,0.0,0.0,0.0,0.0,4.461,0.0,0.0,0.0,0.0,0.0,0.0,0.0,0.0,0.0,0.0,0.0,0.0,0.0,0.0,0.0,0.0,0.0,0.0,0.0,5.1373,5.2164,5.3416,5.3501,5.3501,5.3501,5.3501,5.3501,5.3501,5.3501,5.3501,5.3501,5.3501,5.3112,5.2287,5.1503,5.0396,4.9066,4.8238,4.7832,4.7788,4.7788,4.8112,4.862,4.862,4.862,4.862,4.862,4.862,4.862,4.862,4.862,4.862,0.0,0.0,0.0,0.0,0.0,0.0,0.0,0.0,0.0,0.0,0.0,0.0,0.0,0.0,0.0,0.0,0.0,0.0,4.3988,0.0,0.0,0.0,0.0,0.0,4.4243,0.0,0.0,0.0,0.0,0.0,0.0,0.0,0.0,0.0,4.461,0.0,0.0,0.0,4.461,0.0,4.461,4.461,0.0,4.461,4.461,4.461,4.461,4.461,4.461,0.0,4.461,4.461,0.0,4.461,0.0,0.0,0.0,0.0,0.0,0.0,0.0,0.0,4.461,0.0,0.0,0.0,4.461,0.0,0.0,0.0,0.0,0.0,0.0,0.0,0.0,0.0,0.0,0.0,0.0,0.0,0.0,0.0,0.0,5.2034,5.3315,5.3501,5.3501,5.3501,5.3501,5.3501,5.3501,5.3501,5.3501,5.3501,5.3501,5.3501,5.3093,5.2281,5.1475,5.0644,4.9749,4.8889,4.8502,4.8496,4.8496,4.8543,4.862,4.862,4.862,4.862,4.862,4.862,4.862,4.862,4.862,4.862,0.0,0.0,0.0,0.0,0.0,0.0,0.0,0.0,0.0,0.0,0.0,0.0,0.0,0.0,0.0,0.0,0.0,4.4358,0.0,0.0,0.0,0.0,0.0,0.0,0.0,0.0,0.0,0.0,4.461,0.0,0.0,0.0,0.0,0.0,4.461,0.0,4.461,0.0,0.0,0.0,0.0,0.0,0.0,4.461,4.461,4.461,4.461,4.461,4.461,0.0,4.461,0.0,0.0,0.0,0.0,0.0,0.0,0.0,0.0,0.0,0.0,0.0,0.0,0.0,4.461,0.0,4.461,0.0,0.0,0.0,0.0,0.0,0.0,0.0,0.0,0.0,0.0,0.0,0.0,0.0,0.0,0.0,0.0,0.0,0.0,0.0,5.3058,5.3024,5.3467,5.3501,5.3501,5.3501,5.3501,5.3501,5.3501,5.3058,5.2642,5.2272,5.1011,5.0206,4.9868,4.9015,4.862,4.862,4.862,4.862,4.862,4.862,4.862,4.862,4.862,4.862,4.862,4.862,4.862,4.862,0.0,0.0,0.0,0.0,0.0,0.0,0.0,0.0,0.0,0.0,0.0,0.0,4.4572,4.461,0.0,0.0,0.0,4.461,0.0,0.0,4.4534,0.0,0.0,0.0,0.0,0.0,0.0,0.0,0.0,0.0,0.0,0.0,0.0,0.0,0.0,4.461,4.461,0.0,0.0,4.461,4.461,4.461,4.461,4.461,4.461,4.461,4.461,4.461,4.461,4.461,4.461,0.0,4.461,0.0,0.0,0.0,0.0,0.0,4.461,0.0,0.0,0.0,0.0,0.0,0.0,0.0,0.0,0.0,0.0,0.0,0.0,0.0,0.0,0.0,0.0,0.0,0.0,0.0,0.0,0.0,0.0,0.0,0.0,0.0,0.0,5.3093,5.2642,5.2642,5.3467,5.3501,5.3501,5.3501,5.3501,5.3501,5.3501,5.2677,5.22,5.1951,5.0554,4.9749,4.951,4.8893,4.862,4.862,4.862,4.862,4.862,4.862,4.862,4.862,4.862,4.862,4.862,4.862,4.862,4.862,4.4281,4.4143,0.0,0.0,0.0,0.0,0.0,0.0,0.0,0.0,0.0,0.0,0.0,0.0,0.0,0.0,0.0,4.461,4.461,0.0,4.461,0.0,0.0,4.461,0.0,0.0,0.0,0.0,0.0,0.0,0.0,0.0,0.0,0.0,0.0,4.461,4.461,4.461,4.461,4.461,4.461,4.461,4.461,0.0,4.461,4.461,4.461,0.0,0.0,4.461,4.461,0.0,0.0,0.0,0.0,0.0,0.0,0.0,0.0,0.0,0.0,4.461,0.0,0.0,0.0,0.0,4.461,0.0,0.0,0.0,0.0,0.0,0.0,0.0,0.0,0.0,0.0,0.0,0.0,0.0,0.0,0.0,0.0,0.0,0.0,5.2272,5.2307,5.2642,5.3467,5.3501,5.3501,5.3501,5.3501,5.3501,5.3501,5.2677,5.1915,5.1145,5.0283,4.9446,4.8646,4.8604,4.862,4.862,4.862,4.862,4.862,4.862,4.862,4.862,4.862,4.862,4.862,4.862,4.862,4.862,0.0,0.0,0.0,0.0,0.0,0.0,0.0,4.461,0.0,0.0,0.0,0.0,0.0,0.0,4.461,0.0,0.0,4.461,4.461,4.461,0.0,0.0,0.0,4.461,0.0,0.0,0.0,0.0,0.0,0.0,0.0,0.0,0.0,0.0,0.0,4.461,0.0,0.0,0.0,0.0,0.0,4.461,4.461,0.0,0.0,4.461,4.461,4.461,0.0,4.461,4.461,4.461,4.461,4.461,4.461,4.461,4.461,0.0,0.0,0.0,4.461,4.461,0.0,0.0,0.0,0.0,0.0,0.0,0.0,0.0,0.0,0.0,0.0,0.0,0.0,0.0,0.0,0.0,0.0,0.0,0.0,0.0,0.0,0.0,0.0,5.1459,5.0978,5.1016,5.1862,5.1898,5.1898,5.1898,5.1898,5.1898,5.1898,5.1124,5.0592,5.0283,4.943,4.8893,4.862,4.862,4.862,4.862,4.862,4.862,4.862,4.862,4.862,4.8578,4.8453,4.8412,4.8412,4.8412,4.8412,4.837,4.461,0.0,0.0,0.0,0.0,0.0,0.0,0.0,0.0,0.0,4.461,0.0,4.461,0.0,4.461,0.0,4.461,4.461,4.461,4.461,0.0,4.461,4.461,0.0,0.0,0.0,0.0,0.0,0.0,4.461,0.0,0.0,0.0,0.0,0.0,0.0,0.0,0.0,4.461,0.0,0.0,4.461,0.0,0.0,4.461,4.461,0.0,4.461,4.461,4.461,4.461,4.461,4.461,4.461,4.461,4.461,4.461,4.461,4.461,4.461,0.0,4.461,4.461,0.0,4.461,0.0,0.0,0.0,0.0,0.0,0.0,0.0,0.0,0.0,0.0,0.0,0.0,0.0,0.0,0.0,0.0,0.0,0.0,0.0,4.9694,5.0631,5.0151,5.0213,0.0,0.0,5.1107,5.1107,5.1107,5.1107,5.1107,5.0283,4.9908,4.9868,4.9015,4.862,4.862,4.862,4.862,4.862,4.862,4.862,4.862,4.862,4.862,4.8578,4.837,4.8286,4.8286,4.8218,4.8202,4.816,0.0,0.0,0.0,0.0,4.461,0.0,0.0,0.0,4.461,0.0,4.461,4.461,4.461,4.461,4.461,4.461,4.461,0.0,4.461,4.461,0.0,0.0,4.461,4.461,4.461,0.0,0.0,0.0,0.0,0.0,0.0,0.0,0.0,0.0,4.461,0.0,4.461,4.461,4.461,4.461,4.461,4.461,4.461,4.461,4.461,4.461,4.461,4.461,4.461,4.461,4.461,4.461,4.461,4.461,4.461,4.461,4.461,4.461,4.461,4.461,4.461,4.461,0.0,0.0,0.0,0.0,4.461,0.0,0.0,0.0,0.0,0.0,0.0,0.0,0.0,0.0,0.0,0.0,0.0,0.0,0.0,0.0,0.0,4.8286,4.8728,4.971,4.9844,5.0167,0.0,0.0,5.0995,5.0995,5.0995,5.0995,5.0995,5.0206,4.9844,4.9829,4.9015,4.862,4.862,4.862,4.862,4.862,4.862,4.862,4.862,4.862,4.8578,4.8578,4.837,4.8244,4.8244,4.8049,4.7964,4.7964,4.461,4.461,4.461,0.0,4.461,4.461,0.0,0.0,0.0,0.0,4.461,4.461,4.461,4.461,4.461,4.461,4.461,0.0,0.0,0.0,0.0,4.461,4.461,4.461,4.461,4.461,0.0,4.461,0.0,0.0,4.461,0.0,0.0,0.0,0.0,0.0,4.461,4.461,4.461,4.461,4.461,4.461,0.0,0.0,4.461,4.461,4.461,4.461,4.461,4.461,4.461,4.461,4.461,4.461,4.461,4.461,4.461,4.461,4.461,4.461,4.461,4.461,4.461,4.461,0.0,0.0,0.0,0.0,0.0,0.0,0.0,0.0,0.0,0.0,0.0,0.0,0.0,0.0,0.0,0.0,0.0,0.0,0.0,4.7964,4.8202,4.848,4.8646,4.8795,0.0,0.0,0.0,4.9228,4.9228,4.9228,4.9228,4.9041,4.8934,4.8934,4.8687,4.862,4.862,4.862,4.862,4.862,4.862,4.862,4.862,4.862,4.8495,4.837,4.8175,4.788,4.7553,4.7681,4.7596,4.7467,4.461,0.0,0.0,4.461,0.0,0.0,4.461,0.0,0.0,4.461,4.461,0.0,4.461,4.461,4.461,4.461,4.461,0.0,4.461,0.0,0.0,4.461,4.461,4.461,4.461,4.461,0.0,4.461,0.0,0.0,4.461,0.0,0.0,0.0,0.0,4.461,0.0,4.461,4.461,4.461,4.461,0.0,0.0,4.461,4.461,4.461,4.461,4.461,4.461,4.461,4.461,4.461,4.461,4.461,4.461,4.461,4.461,4.461,4.461,4.461,4.461,4.461,4.461,4.461,4.461,4.461,4.461,0.0,0.0,0.0,0.0,0.0,0.0,0.0,0.0,0.0,0.0,0.0,0.0,0.0,0.0,0.0,0.0,4.7666,4.788,4.8007,4.8091,0.0,0.0,0.0,0.0,4.862,4.862,4.862,4.862,4.862,4.862,4.862,4.862,4.862,4.862,4.862,4.862,4.862,4.862,4.862,4.8578,4.8495,4.8412,4.8244,4.7964,4.7596,4.7294,4.7424,4.7381,4.7309,0.0,0.0,0.0,0.0,0.0,0.0,0.0,4.461,0.0,4.461,0.0,4.461,4.461,4.461,4.461,4.461,0.0,4.461,4.461,4.461,4.461,4.461,4.461,4.461,4.461,4.461,0.0,0.0,0.0,0.0,0.0,0.0,0.0,0.0,0.0,0.0,0.0,4.461,4.461,0.0,4.461,4.461,4.461,4.461,4.461,4.461,4.461,4.461,4.461,4.461,4.461,4.461,4.461,4.461,4.461,4.461,4.461,4.461,4.461,4.461,4.461,4.461,4.461,4.461,4.461,4.461,4.461,4.461,4.4534,4.4626,0.0,0.0,0.0,0.0,0.0,0.0,0.0,0.0,0.0,0.0,0.0,0.0,0.0,0.0,0.0,0.0,0.0,0.0,0.0,0.0,0.0,4.8578,4.862,4.862,4.862,0.0,4.862,4.862,4.862,4.862,4.862,4.862,4.862,4.862,4.862,4.862,4.8578,4.8412,4.8286,4.8218,4.7752,4.7467,4.7309,4.7309,4.7309,4.7309,0.0,0.0,0.0,0.0,0.0,4.461,4.461,4.461,4.461,4.461,4.461,4.461,4.461,4.461,4.461,4.461,4.461,0.0,0.0,0.0,0.0,4.461,4.461,4.461,4.461,4.461,4.461,0.0,4.461,4.461,0.0,0.0,0.0,0.0,0.0,0.0,4.461,4.461,0.0,4.461,4.461,4.461,4.461,4.461,4.461,4.461,4.461,4.461,4.461,4.461,4.461,4.461,4.461,4.461,4.461,4.461,4.461,4.461,4.461,4.461,4.461,4.461,4.461,4.461,4.461,4.461,4.461,4.461,4.5018,4.5371,4.5299,0.0,0.0,0.0,0.0,0.0,0.0,0.0,0.0,0.0,0.0,0.0,0.0,0.0,0.0,0.0,0.0,0.0,0.0,0.0,0.0,0.0,4.862,0.0,0.0,0.0,4.862,4.862,4.862,4.862,4.862,4.862,4.862,4.862,4.862,4.862,4.862,4.8578,4.837,4.8007,4.7709,4.7467,4.7309,4.7309,4.7309,4.7309,0.0,0.0,0.0,0.0,0.0,0.0,0.0,4.461,0.0,4.461,4.461,4.461,4.461,4.461,4.461,4.461,4.461,4.461,4.461,4.461,4.461,4.461,4.461,0.0,4.461,4.461,4.461,4.461,4.461,4.461,0.0,0.0,0.0,0.0,0.0,4.461,0.0,0.0,0.0,4.461,4.461,4.461,4.461,4.461,4.461,4.461,4.461,4.461,4.461,4.461,4.461,4.461,4.461,4.461,4.461,4.461,4.461,4.461,4.461,4.461,4.461,4.461,4.461,4.461,4.461,4.461,4.4718,4.5033,4.5357,4.5764,4.6232,4.6976,0.0,0.0,0.0,0.0,0.0,0.0,0.0,0.0,0.0,0.0,0.0,0.0,0.0,0.0,0.0,0.0,0.0,0.0,0.0,0.0,0.0,0.0,0.0,0.0,0.0,4.862,4.862,4.862,4.862,4.862,4.862,4.862,4.862,4.862,4.8563,4.837,4.8091,4.7752,4.7553,4.7396,4.7309,4.7309,4.7309,4.7309,0.0,4.461,0.0,0.0,4.461,0.0,4.461,4.461,4.461,4.461,4.461,4.461,4.461,4.461,4.461,4.461,4.461,4.461,4.461,4.461,4.461,4.461,4.461,4.461,4.461,4.461,4.461,0.0,4.461,4.461,0.0,0.0,0.0,0.0,0.0,0.0,0.0,0.0,4.461,4.461,4.461,4.461,4.461,4.461,4.461,4.461,4.461,4.461,4.461,4.461,4.461,4.461,4.461,4.461,4.461,4.461,4.461,4.461,4.461,4.461,4.461,4.461,4.461,4.4656,4.4795,4.4825,4.4987,4.5664,4.5911,4.6348,4.74,4.7893,0.0,0.0,0.0,0.0,0.0,0.0,0.0,0.0,0.0,0.0,0.0,0.0,0.0,0.0,0.0,4.751,4.7964,4.8007,4.816,0.0,0.0,4.862,4.862,0.0,4.862,4.862,4.862,4.862,4.862,4.862,4.862,4.862,4.862,4.8578,4.8495,4.8175,4.7837,4.7581,4.7424,4.7352,4.7309,4.7309,4.7309,4.7309,0.0,0.0,0.0,0.0,0.0,0.0,4.461,4.461,4.461,4.461,4.461,4.461,4.461,4.461,4.461,4.461,4.461,4.461,4.461,4.461,4.461,4.461,4.461,4.461,4.461,4.461,4.461,0.0,0.0,4.461,4.461,0.0,0.0,0.0,0.0,0.0,0.0,4.461,4.461,4.461,4.461,4.461,4.461,4.461,4.461,4.461,4.461,4.461,4.461,4.461,4.461,4.461,4.461,4.461,4.461,4.461,4.461,4.461,4.461,4.461,4.461,4.461,4.461,4.4779,4.5357,4.5495,4.5695,4.6357,4.6988,4.765,4.8347,4.8532,4.8495,0.0,0.0,0.0,0.0,0.0,0.0,0.0,0.0,0.0,0.0,0.0,0.0,0.0,0.0,4.751,4.7964,4.8007,4.816,4.8578,0.0,4.862,4.862,4.862,4.862,4.862,4.862,4.862,4.862,4.862,4.862,4.862,4.862,4.8495,4.8286,4.8091,4.7837,4.7581,4.7596,4.7467,4.7309,4.7309,4.7309,4.7309,0.0,0.0,0.0,0.0,0.0,0.0,0.0,4.461,4.461,4.461,4.461,4.461,4.461,4.461,4.461,4.461,4.461,4.461,4.461,4.461,4.461,4.461,4.461,4.461,4.461,4.461,4.461,0.0,0.0,4.461,4.461,4.461,0.0,0.0,0.0,4.461,4.461,4.461,4.461,4.461,4.461,4.461,4.461,4.461,4.461,4.461,4.461,4.461,4.461,4.461,4.461,4.461,4.461,4.461,4.461,4.461,4.461,4.461,4.461,4.461,4.461,4.461,4.4918,4.5249,4.5526,4.5895,4.6388,4.7065,4.7742,4.8296,4.8558,4.8495,4.837,0.0,0.0,0.0,0.0,0.0,0.0,0.0,0.0,0.0,0.0,0.0,0.0,0.0,0.0,4.7639,4.7964,4.8133,0.0,4.8578,0.0,4.862,4.862,4.862,4.862,4.862,4.862,4.862,4.862,4.862,4.862,4.8578,4.8453,4.837,4.8244,4.7922,4.7709,4.7596,4.7467,4.7396,4.7309,4.7309,4.7549,4.7893,4.461,0.0,4.461,0.0,4.461,4.461,4.4685,4.4648,4.461,4.4685,4.4648,4.461,4.461,4.461,4.461,4.461,4.461,4.461,4.461,4.461,4.461,4.461,4.461,0.0,4.461,4.461,4.461,4.461,4.461,0.0,4.461,0.0,0.0,0.0,4.461,4.461,4.461,4.461,4.461,4.461,4.461,4.461,4.461,4.461,4.461,4.461,4.461,4.461,4.461,4.461,4.461,4.461,4.461,4.461,4.461,4.461,4.461,4.461,4.461,4.461,4.4671,4.4818,4.5234,4.5695,4.6095,4.6542,4.708,4.7758,4.8281,4.862,4.862,4.8495,4.837,4.837,0.0,0.0,0.0,0.0,0.0,0.0,0.0,4.7467,4.7381,0.0,0.0,0.0,0.0,0.0,0.0,0.0,0.0,0.0,0.0,0.0,0.0,4.862,4.862,4.862,4.862,4.862,4.862,4.862,4.862,4.8578,4.8328,4.8202,4.8175,4.7724,4.751,4.751,4.7352,4.7309,4.7324,4.7519,4.7878,4.8312,4.461,4.461,4.461,4.461,4.461,4.4648,4.4874,4.4723,4.4685,4.4874,4.4723,4.461,4.461,4.461,4.461,4.461,4.461,4.461,4.461,4.461,4.461,0.0,0.0,4.461,4.461,4.461,4.461,4.461,0.0,0.0,4.461,0.0,4.461,4.461,4.461,4.461,4.461,4.461,4.461,4.461,4.461,4.461,4.461,4.461,4.461,4.461,4.461,4.461,4.461,4.461,4.461,4.461,4.461,4.461,4.461,4.461,4.461,4.461,4.461,4.461,4.4779,4.5403,4.5588,4.5942,4.7281,4.7588,4.7788,4.8466,4.8604,4.862,4.862,4.862,4.862,4.862,0.0,0.0,0.0,0.0,0.0,0.0,4.7309,4.7381,4.7596,0.0,0.0,0.0,0.0,0.0,0.0,0.0,0.0,4.8578,4.862,0.0,4.862,4.862,4.862,4.862,4.862,4.862,4.862,4.862,4.862,4.8578,4.8175,4.8007,4.7964,4.751,4.7309,4.7309,4.7309,4.7309,4.7384,4.8027,4.8282,4.8371,4.461,4.4723,4.4799,4.4799,4.4799,4.4836,4.4874,4.4723,4.461,4.4685,4.4648,4.461,4.461,4.461,4.461,0.0,4.461,4.461,0.0,4.461,4.461,4.461,4.461,4.461,4.461,4.461,4.461,4.461,0.0,0.0,0.0,4.461,4.461,4.461,4.461,4.461,4.461,4.461,4.461,4.461,4.461,4.461,4.461,4.461,4.461,4.461,4.461,4.461,4.461,4.461,4.461,4.461,4.461,4.461,4.461,4.461,4.461,4.461,4.461,4.491,4.5311,4.5541,4.628,4.708,4.7511,4.7958,4.8358,4.8573,4.862,4.862,4.862,4.862,4.862,4.862,4.8412,0.0,0.0,0.0,0.0,0.0,0.0,4.7964,0.0,4.8118,0.0,0.0,0.0,0.0,0.0,0.0,0.0,0.0,4.862,0.0,4.862,4.862,4.862,4.862,4.862,4.862,4.862,4.862,4.8537,4.837,4.8133,4.788,4.7724,4.7439,4.7309,4.7309,4.7309,4.7578,4.7997,4.8207,4.885,4.9643,4.461,4.4761,4.4911,4.4911,4.4911,4.4911,4.5002,4.4776,4.461,4.4685,4.4663,4.461,4.461,4.461,0.0,4.461,4.461,4.461,4.461,4.461,4.461,4.461,4.461,4.461,4.461,4.461,0.0,4.461,4.461,4.461,4.461,4.461,4.461,4.461,4.461,4.461,4.461,4.461,4.461,4.461,4.461,4.461,4.461,4.461,4.461,4.461,4.461,4.461,4.461,4.461,4.461,4.461,4.461,4.461,4.461,4.461,4.461,4.4671,4.4895,4.5264,4.5711,4.6219,4.6973,4.7665,4.7927,4.8312,4.862,4.862,4.862,4.862,4.862,4.862,4.862,4.862,4.8495,4.837,4.8286,0.0,0.0,0.0,0.0,0.0,0.0,4.8328,0.0,0.0,0.0,0.0,0.0,0.0,0.0,4.862,4.862,0.0,4.862,4.862,4.862,4.862,4.862,4.862,4.862,4.862,4.8495,4.8286,4.8091,4.7837,4.7581,4.7381,4.7309,4.7339,4.7578,4.7923,4.8341,4.8835,4.9538,5.0226,4.461,4.4761,4.4911,0.0,4.4911,0.0,4.5129,4.4852,4.4648,4.4836,4.4739,4.461,4.461,4.461,4.461,4.461,0.0,0.0,0.0,4.461,4.461,4.461,4.461,4.461,4.461,4.461,4.461,4.461,4.461,4.461,4.461,4.461,4.461,4.461,4.461,4.461,4.461,4.461,4.461,4.461,4.461,4.461,4.461,4.461,4.461,4.461,4.461,4.461,4.461,4.461,4.461,4.461,4.461,4.4618,4.4671,4.4625,4.4618,4.4825,4.5418,4.5649,4.6034,4.7296,4.7635,4.7835,4.8481,4.862,4.862,4.862,4.862,4.862,4.862,4.862,4.862,4.862,4.862,4.8537,4.8328,0.0,0.0,0.0,0.0,0.0,0.0,4.8328,4.8412,0.0,0.0,0.0,0.0,0.0,4.862,4.862,4.862,4.862,4.862,4.862,4.862,4.862,4.862,4.862,4.862,4.862,4.8495,4.8286,4.8091,4.788,4.7639,4.7424,4.7367,4.7472,4.8086,4.8386,4.861,4.9793,5.0226,5.0345,0.0,0.0,4.4911,4.4911,4.4911,4.4911,4.4964,4.4776,4.4625,4.4648,4.461,4.461,4.461,4.461,4.461,4.461,4.461,4.461,4.461,4.461,4.461,4.461,4.461,4.461,4.461,4.461,4.461,4.461,4.461,4.461,4.461,4.461,4.461,4.461,4.461,4.461,4.461,4.461,4.461,4.461,4.461,4.461,4.461,4.461,4.461,4.461,4.461,4.461,4.461,4.461,4.461,4.461,4.461,4.4926,4.5249,4.4764,4.4941,4.5387,4.5541,4.6342,4.7204,4.7527,4.7989,4.8419,4.8573,4.862,4.862,4.862,4.862,4.862,4.862,4.862,4.862,4.862,4.862,4.8563,4.8537,4.8537,0.0,0.0,4.8453,4.8495,4.8537,4.8537,4.8537,0.0,0.0,0.0,0.0,4.862,4.862,4.862,4.862,4.862,4.862,4.862,4.862,4.862,4.862,4.862,4.862,4.862,4.8495,4.8286,4.826,4.8091,4.788,4.7624,4.7925,4.8581,4.8398,4.9029,5.008,5.0168,5.051,5.1005,4.461,4.4761,4.4911,4.4911,4.4911,4.4911,4.4911,4.4723,4.461,4.461,4.461,4.461,4.461,4.461,4.461,4.461,4.461,4.461,4.461,4.461,4.461,4.461,4.461,4.461,4.461,4.461,4.461,4.461,4.461,4.461,4.461,4.461,4.461,4.461,4.461,4.461,4.461,4.461,4.461,4.461,4.461,4.461,4.461,4.461,4.461,4.461,4.461,4.461,4.461,4.461,4.461,4.4671,4.4941,4.5295,4.5572,4.5511,4.5757,4.6111,4.6419,4.705,4.7681,4.7989,4.8343,4.862,4.862,4.862,4.862,4.862,4.862,4.862,4.862,4.862,4.862,4.862,4.862,4.862,4.862,4.862,0.0,4.862,4.862,4.862,4.862,4.862,4.862,4.862,4.862,0.0,4.862,4.862,4.862,4.862,4.862,4.862,4.862,4.862,4.862,4.862,4.862,4.862,4.862,4.862,4.8495,4.8286,4.8286,4.8175,4.7995,4.8041,4.8417,4.9027,4.9119,4.9734,5.0577,5.0663,5.0868,5.1214,4.461,4.4723,4.4836,4.4836,4.4836,4.4836,4.4836,4.4723,4.461,4.461,4.461,4.461,4.461,4.461,4.461,4.461,4.461,4.461,4.461,4.461,4.461,4.461,4.461,4.461,4.461,4.461,4.461,4.461,4.461,4.461,4.461,4.461,4.461,4.461,4.461,4.461,4.461,4.461,4.461,4.461,4.461,4.461,4.461,4.461,4.461,4.461,4.461,4.461,4.4641,4.4733,4.4764,4.4887,4.5526,4.5818,4.6003,4.6573,4.6819,4.7004,4.7481,4.7681,4.7896,4.8481,4.862,4.862,4.862,4.862,4.862,4.862,4.862,4.862,4.862,4.862,4.862,4.862,4.862,4.862,4.862,0.0,4.862,4.862,4.862,4.862,4.862,4.862,4.862,4.862,4.862,4.862,4.862,4.862,4.862,4.862,4.862,4.862,4.862,4.862,4.862,4.862,4.862,4.862,4.862,4.862,4.8495,4.8328,4.8328,4.8305,4.8289,4.8566,4.8957,4.9463,4.9975,5.0439,5.0864,5.1098,5.1214,5.1214,4.461,4.4625,4.4663,4.4663,4.4663,4.4663,4.4663,4.461,4.461,4.461,4.461,4.461,4.461,4.461,4.461,4.461,4.461,4.461,4.461,4.461,4.461,4.461,4.461,4.461,4.461,4.461,4.461,4.461,4.461,4.461,4.461,4.461,4.461,4.461,4.461,4.461,4.461,4.461,4.461,4.461,4.461,4.461,4.461,4.461,4.461,4.461,4.461,4.461,4.4702,4.5234,4.5434,4.5541,4.6219,4.6834,4.7311,4.7419,4.785,4.8204,4.7727,4.8019,4.8481,4.8589,4.862,4.862,4.862,4.862,4.862,4.862,4.862,4.862,4.862,4.862,4.862,4.862,4.862,4.862,4.862,0.0,4.862,4.862,4.862,4.862,4.862,4.862,4.862,4.862,4.862,4.862,4.862,4.862,4.862,4.862,4.862,4.862,4.862,4.862,4.862,4.862,4.862,4.862,4.862,4.862,4.8563,4.8537,4.8537,4.8875,4.9401,4.9096,4.9883,5.123,5.0472,5.0862,5.1758,5.1324,5.1214,5.1214,4.461,4.461,4.461,4.461,4.461,4.461,4.461,4.461,4.461,4.461,4.461,4.461,4.461,4.461,4.461,4.461,4.461,4.461,4.461,4.461,4.461,4.461,4.461,4.461,4.461,4.461,4.461,4.461,4.461,4.461,4.461,4.461,4.461,4.461,4.461,4.461,4.461,4.461,4.461,4.461,4.461,4.461,4.461,4.461,4.461,4.4671,4.4987,4.5126,4.5218,4.5895,4.6126,4.6249,4.6927,4.7357,4.7681,4.8035,4.8373,4.8543,4.8235,4.8373,4.862,4.862,4.862,4.862,4.862,4.862,4.862,4.862,4.862,4.862,4.862,4.862,4.862,4.862,4.862,0.0,0.0,4.862,4.862,4.862,4.862,4.862,4.862,4.862,4.862,4.862,4.862,4.862,4.862,4.862,4.862,4.862,4.862,4.862,4.862,4.862,4.862,4.862,4.862,4.862,4.862,4.862,4.8835,4.9189,4.9189,4.9589,5.0251,5.0258,5.0822,5.164,5.1137,5.1377,5.1941,5.1416,5.1214,5.1214,4.461,4.461,4.461,4.461,4.461,4.461,4.461,4.461,4.461,4.461,4.461,4.461,4.461,4.461,4.461,4.461,4.461,4.461,4.461,4.461,4.461,4.461,4.461,4.461,4.461,4.461,4.461,4.461,4.461,4.461,4.461,4.461,4.461,4.461,4.461,4.461,4.461,4.461,4.461,4.461,4.461,4.461,4.4641,4.4756,4.4818,4.491,4.5572,4.5818,4.5926,4.6603,4.6834,4.6942,4.7635,4.7835,4.7942,4.8466,4.862,4.862,4.862,4.862,4.862,4.862,4.862,4.862,4.862,4.862,4.862,4.862,4.862,4.862,4.862,4.862,4.862,4.862,0.0,0.0,0.0,4.862,4.862,4.862,4.862,4.862,4.862,4.862,4.862,4.862,4.862,4.862,4.862,4.862,4.862,4.862,4.862,4.862,4.862,4.862,4.862,4.862,4.862,4.862,4.862,4.8789,4.9158,4.9697,4.9851,5.0297,5.0959,5.1187,5.1493,5.1842,5.1652,5.1741,5.1849,5.1354,5.1214,5.1214,4.461,4.461,4.461,4.461,4.461,4.461,4.461,4.461,4.461,4.461,4.461,4.461,4.461,4.461,4.461,4.461,4.461,4.461,4.461,4.461,4.461,4.461,4.461,4.461,4.461,4.461,4.461,4.461,4.461,4.461,4.461,4.461,4.461,4.461,4.461,4.461,4.461,4.461,4.461,4.461,4.461,4.461,4.4687,4.528,4.5511,4.5603,4.628,4.6526,4.6619,4.7296,4.7527,4.765,4.8327,4.8543,4.8558,4.8604,4.862,4.862,4.862,4.862,4.862,4.862,4.862,4.862,4.862,4.862,4.862,4.862,4.862,4.862,4.862,4.862,4.862,4.862,0.0,0.0,4.862,4.862,4.862,4.862,4.862,4.862,4.862,4.862,4.862,4.862,4.862,4.862,4.862,4.862,4.862,4.862,4.862,4.862,4.862,4.862,4.862,4.862,4.862,4.862,4.8635,4.9297,4.9635,4.9712,5.0359,5.1005,5.1621,5.1371,5.1664,5.2184,5.1788,5.1634,5.1587,5.1308,5.1214,5.1214,4.461,4.461,4.461,4.461,4.461,4.461,4.461,4.461,4.461,4.461,4.461,4.461,4.461,4.461,4.461,4.461,4.461,4.461,4.461,4.461,4.461,4.461,4.461,4.461,4.461,4.461,4.461,4.461,4.461,4.461,4.461,4.461,4.461,4.461,4.461,4.461,4.461,4.461,4.461,4.461,4.461,4.4872,4.5234,4.548,4.5849,4.6311,4.6973,4.7219,4.7327,4.8004,4.8235,4.8266,4.8543,4.862,4.862,4.862,4.862,4.862,4.862,4.862,4.862,4.862,4.862,4.862,4.862,4.862,4.862,4.862,4.862,4.862,4.862,4.862,4.862,4.862,0.0,4.862,4.862,4.862,4.862,4.862,4.862,4.862,4.862,4.862,4.862,4.862,4.862,4.862,4.862,4.862,4.862,4.862,4.862,4.862,4.862,4.862,4.862,4.862,4.862,4.885,4.9281,4.9558,5.0143,5.0944,5.1205,5.1698,5.2329,5.2224,5.2228,5.2261,5.1972,5.1741,5.1587,5.1308,5.1214,5.1214,4.461,4.461,4.461,4.461,4.461,4.461,4.461,4.461,4.461,4.461,4.461,4.461,4.461,4.461,4.461,4.461,4.461,4.461,4.461,4.461,4.461,4.461,4.461,4.461,4.461,4.461,4.461,4.461,4.461,4.461,4.461,4.461,4.461,4.461,4.461,4.461,4.461,4.461,4.4695,4.4895,4.4895,4.5295,4.5926,4.6142,4.6511,4.7004,4.7681,4.7912,4.7989,4.845,4.862,4.862,4.862,4.862,4.862,4.862,4.862,4.862,4.862,4.862,4.862,4.862,4.862,4.862,4.862,4.862,4.862,4.862,4.862,4.862,4.862,4.862,4.862,4.862,4.862,4.862,4.862,4.862,4.862,4.862,4.862,4.862,4.862,4.862,4.862,4.862,4.862,4.862,4.862,4.862,4.862,4.862,4.862,4.862,4.862,4.862,4.862,4.862,4.8835,4.9204,4.9697,5.0128,5.082,5.1713,5.1929,5.2283,5.2713,5.2713,5.2563,5.2306,5.2078,5.1834,5.1587,5.1308,5.1214,5.1214,4.461,4.461,4.461,4.461,4.461,4.461,4.461,4.461,4.461,4.461,4.461,4.461,4.461,4.461,4.461,4.461,4.461,4.461,4.461,4.461,4.461,4.461,4.461,4.461,4.461,4.461,4.461,4.461,4.461,4.461,4.461,4.461,4.461,4.461,4.461,4.461,4.4625,4.4625,4.4972,4.5603,4.5603,4.6003,4.668,4.7357,4.7604,4.7696,4.8373,4.862,4.862,4.862,4.862,4.862,4.862,4.862,4.862,4.862,4.862,4.862,4.862,4.862,4.862,4.862,4.862,4.862,4.862,4.862,4.862,4.862,4.862,4.862,4.862,4.862,4.862,4.862,4.862,4.862,4.862,4.862,4.862,4.862,4.862,4.862,4.862,4.862,4.862,4.862,4.862,4.862,4.862,4.862,4.862,4.862,4.862,4.862,4.862,4.862,4.862,4.8635,4.9343,4.9697,4.9743,5.1082,5.1698,5.1744,5.2421,5.2713,5.2713,5.2713,5.2563,5.2306,5.2078,5.1834,5.1587,5.1308,5.1214,5.1214,4.461,4.461,4.461,4.461,4.461,4.461,4.461,4.461,4.461,4.461,4.461,4.461,4.461,4.461,4.461,4.461,4.461,4.461,4.461,4.461,4.461,4.461,4.461,4.461,4.461,4.461,4.461,4.461,4.461,4.461,4.461,4.461,4.461,4.461,4.461,4.4849,4.528,4.528,4.568,4.6296,4.6296,4.6696,4.7327,4.7527,4.7896,4.8343,4.8543,4.862,4.862,4.862,4.862,4.862,4.862,4.862,4.862,4.862,4.862,4.862,4.862,4.862,4.862,4.862,4.862,4.862,4.862,4.862,4.862,4.862,4.862,4.862,4.862,4.862,4.862,4.862,4.862,4.862,4.862,4.862,4.862,4.862,4.862,4.862,4.862,4.862,4.862,4.862,4.862,4.862,4.862,4.862,4.862,4.862,4.862,4.862,4.862,4.862,4.8866,4.9358,4.9574,5.0174,5.1113,5.1513,5.1959,5.2421,5.2621,5.2713,5.2713,5.2713,5.2563,5.2306,5.2078,5.1834,5.1587,5.1308,5.1214,5.1214,4.461,4.461,4.461,4.461,4.461,4.461,4.461,4.461,4.461,4.461,4.461,4.461,4.461,4.461,4.461,4.461,4.461,4.461,4.461,4.461,4.461,4.461,4.461,4.461,4.461,4.461,4.461,4.461,4.461,4.461,4.461,4.461,4.4764,4.4987,4.4987,4.5357,4.5988,4.5988,4.6372,4.7004,4.7004,4.7404,4.8004,4.8004,4.8266,4.862,4.862,4.862,4.862,4.862,4.862,4.862,4.862,4.862,4.862,4.862,4.862,4.862,4.862,4.862,4.862,4.862,4.862,4.862,4.862,4.862,4.862,4.862,4.862,4.862,4.862,4.862,4.862,4.862,4.862,4.862,4.862,4.862,4.862,4.862,4.862,4.862,4.862,4.862,4.862,4.862,4.862,4.862,4.862,4.862,4.862,4.862,4.862,4.8743,4.9035,4.9035,4.9251,4.9697,5.0236,5.0913,5.1713,5.1975,5.2329,5.2713,5.2713,5.2713,5.2713,5.2713,5.2608,5.2412,5.2124,5.1895,5.1695,5.1369,5.1261,5.1354,4.461,4.461,4.461,4.461,4.461,4.461,4.461,4.461,4.461,4.461,4.461,4.461,4.461,4.461,4.461,4.461,4.461,4.461,4.461,4.461,4.461,4.461,4.4671,4.4664,4.4679,4.4603,4.4572,4.4572,4.4611,4.4626,4.4664,4.4726,4.5095,4.568,4.568,4.6049,4.664,4.668,4.708,4.7696,4.7696,4.8065,4.862,4.862,4.862,4.862,4.862,4.862,4.862,4.862,4.862,4.862,4.862,4.862,4.862,4.862,4.862,4.862,4.862,4.862,4.862,4.862,4.862,4.862,4.862,4.862,4.862,4.862,4.862,4.862,4.862,4.862,4.862,4.862,4.862,4.862,4.862,4.862,4.8578,4.8578,4.8578,4.8578,4.8578,4.8578,4.862,4.862,4.862,4.862,4.862,4.862,4.8635,4.8712,4.8712,4.905,4.9774,4.9835,4.9866,4.9882,5.1113,5.1744,5.1821,5.2436,5.2713,5.2713,5.2713,5.2713,5.2713,5.2713,5.2713,5.2669,5.217,5.2002,5.1941,5.1416,5.1354,5.1587,4.461,4.461,4.461,4.461,4.461,4.461,4.461,4.461,4.461,4.461,4.461,4.461,4.461,4.461,4.461,4.461,4.461,4.461,4.461,4.461,4.461,4.461,4.508,4.531,4.5146,4.4634,4.4358,4.4358,4.4723,4.4998,4.5154,4.569,4.6012,4.615,4.6293,4.6677,4.7145,4.7307,4.7773,4.8389,4.8389,4.8481,4.862,4.862,4.862,4.862,4.862,4.862,4.862,4.862,4.862,4.862,4.862,4.862,4.862,4.862,4.862,4.862,4.862,4.862,4.862,4.862,4.862,4.862,4.862,4.862,4.862,4.862,4.862,4.862,4.862,4.862,4.862,4.862,4.862,4.862,4.862,4.862,4.8537,4.837,4.837,4.837,4.837,4.8495,4.862,4.862,4.862,4.862,4.862,4.862,4.8866,4.9435,4.9451,4.9774,5.0466,5.099,5.1267,5.1267,5.1559,5.199,5.2498,5.2652,5.2713,5.2713,5.2713,5.2713,5.2713,5.2713,5.2713,5.2669,5.217,5.2002,5.1941,5.1416,5.1214,5.1354,4.461,4.461,4.461,4.461,4.461,4.461,4.461,4.461,4.461,4.461,4.461,4.461,4.461,4.461,4.461,4.461,4.461,4.461,4.461,4.4803,4.491,4.4926,4.5437,4.5685,4.5595,4.5135,4.4953,4.5072,4.5318,4.5565,4.5764,4.5995,4.6331,4.6758,4.6879,4.7262,4.7808,4.8014,4.8296,4.862,4.862,4.862,4.862,4.862,4.862,4.862,4.862,4.862,4.862,4.862,4.862,4.862,4.862,4.862,4.862,4.862,4.862,4.862,4.862,4.862,4.862,4.862,4.862,4.862,4.862,4.862,4.862,4.862,4.862,4.862,4.862,4.862,4.862,4.862,4.862,4.862,4.862,4.862,4.8537,4.8328,4.837,4.8453,4.8453,4.8537,4.862,4.862,4.862,4.862,4.862,4.8943,4.9297,4.9682,5.0005,5.0497,5.1174,5.1528,5.1867,5.219,5.219,5.2375,5.2713,5.2713,5.2713,5.2713,5.2713,5.2713,5.2713,5.2713,5.2713,5.2669,5.217,5.2002,5.1941,5.1556,5.1541,5.1757,4.461,4.461,4.461,4.461,4.461,4.461,4.461,4.461,4.461,4.461,4.461,4.461,4.461,4.4572,4.4496,4.4312,4.4381,4.4419,4.4419,4.4889,4.5206,4.541,4.5834,4.5979,4.5785,4.571,4.5748,4.5839,4.5919,4.6087,4.6331,4.6249,4.6598,4.7337,4.742,4.7766,4.8244,4.8453,4.8537,4.8537,4.8537,4.8537,4.8537,4.8578,4.862,4.862,4.862,4.862,4.862,4.862,4.862,4.862,4.862,4.862,4.862,4.862,4.862,4.862,4.862,4.862,4.862,4.862,4.862,4.862,4.862,4.862,4.862,4.862,4.862,4.862,4.862,4.862,4.862,4.862,4.862,4.862,4.862,4.862,4.8495,4.8286,4.8412,4.8495,4.8537,4.8578,4.862,4.862,4.8727,4.8804,4.8804,4.9481,4.9912,5.002,5.0574,5.119,5.1867,5.1882,5.2159,5.2713,5.2713,5.2713,5.2713,5.2713,5.2713,5.2713,5.2713,5.2713,5.2713,5.2713,5.2713,5.2669,5.2216,5.2033,5.2033,5.1772,5.1956,5.2306,4.461,4.461,4.461,4.461,4.461,4.461,4.461,4.461,4.461,4.461,4.461,4.461,4.461,4.4435,4.4004,4.3185,4.3441,4.366,4.3716,4.4211,4.4914,4.5799,4.6466,4.6326,4.5242,4.5756,4.5882,4.5645,4.6055,4.6326,4.6562,4.7123,4.7455,4.7588,4.7981,4.8126,4.8049,4.826,4.8328,4.8328,4.8328,4.8328,4.837,4.8537,4.862,4.862,4.862,4.862,4.862,4.862,4.862,4.862,4.862,4.862,4.862,4.862,4.862,4.862,4.862,4.862,4.862,4.862,4.862,4.862,4.862,4.862,4.862,4.862,4.862,4.862,4.862,4.862,4.862,4.862,4.862,4.862,4.862,4.862,4.8453,4.8091,4.8049,4.8175,4.8328,4.8495,4.862,4.862,4.9189,4.9543,4.9543,5.0189,5.082,5.1405,5.1513,5.1898,5.2575,5.2575,5.2621,5.2713,5.2713,5.2713,5.2713,5.2713,5.2713,5.2713,5.2713,5.2713,5.2713,5.2713,5.2713,5.2669,5.2367,5.2261,5.2215,5.2017,5.2109,5.2261,4.461,4.461,4.461,4.461,4.461,4.461,4.461,4.461,4.4572,4.4473,4.4435,4.4396,4.4281,4.4025,4.3702,4.3268,4.372,4.4019,4.4061,4.5033,4.5588,4.5446,4.6013,4.5815,4.4669,4.4927,4.5025,4.4878,4.5639,4.6137,4.634,4.7071,4.7178,4.6813,4.7551,4.7551,4.6988,4.7807,4.8133,4.8133,4.8244,4.8286,4.8328,4.8537,4.862,4.862,4.862,4.862,4.862,4.862,4.862,4.862,4.862,4.862,4.862,4.862,4.862,4.862,4.862,4.862,4.862,4.862,4.862,4.862,4.862,4.862,4.862,4.862,4.862,4.862,4.862,4.862,4.862,4.862,4.862,4.862,4.862,4.862,4.8495,4.8202,4.8049,4.8091,4.8286,4.8707,4.9063,4.9204,4.9851,5.0251,5.0251,5.0897,5.139,5.1698,5.2067,5.2406,5.2713,5.2713,5.2713,5.2713,5.2713,5.2713,5.2713,5.2713,5.2713,5.2713,5.2713,5.2713,5.2713,5.2713,5.2713,5.2669,5.2397,5.2306,5.2306,5.2185,5.2215,5.2306]}]]